[[{"header":{"parameterUnit":"m.s-1","parameterCategory":1,"la1":30.6,"la2":29.2853,"lo1":-89.7004,"lo2":-87.6739,"dy":0.0162,"dx":0.0183,"nx":112,"ny":82,"refTime":"2023-09-20T18:00:00:Z","depth":0,"parameterNumber":2,"parameterNumberName":"U-component_of_WINDS"},"data":[0.0,0.0,0.0,0.0,0.0,0.0,0.0,0.0,0.0,0.0,0.0,0.0,0.0,0.0,0.0,0.0,0.0,0.0,0.0,0.0,0.0,0.0,0.0,0.0,0.0,0.0,0.0,0.0,0.0,0.0,0.0,0.0,0.0,0.0,0.0,0.0,0.0,0.0,0.0,0.0,0.0,0.0,0.0,0.0,0.0,0.0,0.0,0.0,0.0,0.0,0.0,0.0,0.0,0.0,0.0,0.0,0.0,0.0,0.0,0.0,0.0,0.0,0.0,0.0,0.0,0.0,0.0,0.0,0.0,0.0,0.0,0.0,0.0,0.0,0.0,0.0,0.0,0.0,0.0,0.0,0.0,0.0,0.0,0.0,0.0,0.0,0.0,0.0,0.0,0.0,-2.0814,-2.175,-2.2126,-2.2335,-2.2401,-2.1852,-2.155,-2.1696,0.0,0.0,0.0,0.0,0.0,0.0,0.0,0.0,0.0,0.0,0.0,0.0,0.0,0.0,0.0,0.0,0.0,0.0,0.0,0.0,0.0,0.0,0.0,0.0,0.0,0.0,0.0,0.0,0.0,0.0,0.0,0.0,0.0,0.0,0.0,0.0,0.0,0.0,0.0,0.0,0.0,0.0,0.0,0.0,0.0,0.0,0.0,0.0,0.0,0.0,0.0,0.0,0.0,0.0,0.0,0.0,0.0,0.0,0.0,0.0,0.0,0.0,0.0,0.0,0.0,0.0,0.0,0.0,0.0,0.0,0.0,0.0,0.0,0.0,0.0,0.0,0.0,0.0,0.0,0.0,0.0,0.0,0.0,0.0,0.0,0.0,0.0,0.0,0.0,0.0,0.0,0.0,0.0,0.0,0.0,0.0,0.0,0.0,0.0,0.0,0.0,0.0,0.0,0.0,-2.1433,-2.2001,-2.2199,-2.2323,-2.2401,-2.2393,-2.2469,-2.2592,0.0,0.0,0.0,0.0,0.0,0.0,0.0,0.0,0.0,0.0,0.0,0.0,0.0,0.0,0.0,0.0,0.0,0.0,0.0,0.0,0.0,0.0,0.0,0.0,0.0,0.0,0.0,0.0,0.0,0.0,0.0,0.0,0.0,0.0,0.0,0.0,0.0,0.0,0.0,0.0,0.0,0.0,0.0,0.0,0.0,0.0,0.0,0.0,0.0,0.0,0.0,0.0,0.0,0.0,0.0,0.0,0.0,0.0,0.0,0.0,0.0,0.0,0.0,0.0,0.0,0.0,0.0,0.0,0.0,0.0,0.0,0.0,0.0,0.0,0.0,0.0,0.0,0.0,0.0,0.0,0.0,0.0,0.0,0.0,0.0,0.0,0.0,0.0,0.0,0.0,0.0,0.0,0.0,0.0,0.0,0.0,0.0,0.0,0.0,0.0,0.0,0.0,0.0,-2.2657,-2.315,-2.347,-2.3588,-2.3702,-2.3803,-2.3507,-2.336,-2.3494,-2.2402,0.0,0.0,0.0,0.0,0.0,0.0,0.0,0.0,0.0,0.0,0.0,0.0,0.0,0.0,0.0,0.0,0.0,0.0,0.0,0.0,0.0,0.0,0.0,0.0,0.0,0.0,0.0,0.0,0.0,0.0,0.0,0.0,0.0,0.0,0.0,0.0,0.0,0.0,0.0,0.0,0.0,0.0,0.0,0.0,0.0,0.0,0.0,0.0,0.0,0.0,0.0,0.0,0.0,0.0,0.0,0.0,0.0,0.0,0.0,0.0,0.0,0.0,0.0,0.0,0.0,0.0,0.0,0.0,0.0,0.0,0.0,0.0,0.0,0.0,0.0,0.0,0.0,0.0,0.0,0.0,0.0,0.0,0.0,0.0,0.0,0.0,0.0,0.0,0.0,0.0,0.0,0.0,0.0,0.0,0.0,0.0,0.0,0.0,0.0,0.0,0.0,0.0,-2.3906,-2.4481,-2.4682,-2.4768,-2.4877,-2.4986,-2.4509,-2.4262,-2.4402,-2.3642,0.0,0.0,0.0,0.0,0.0,0.0,0.0,0.0,0.0,0.0,0.0,0.0,0.0,0.0,0.0,0.0,0.0,0.0,0.0,0.0,0.0,0.0,0.0,0.0,0.0,0.0,0.0,0.0,0.0,0.0,0.0,0.0,0.0,0.0,0.0,0.0,0.0,0.0,0.0,0.0,0.0,0.0,0.0,0.0,0.0,0.0,0.0,0.0,0.0,0.0,0.0,0.0,0.0,0.0,0.0,0.0,0.0,0.0,0.0,0.0,0.0,0.0,0.0,0.0,0.0,0.0,0.0,0.0,0.0,0.0,0.0,0.0,0.0,0.0,0.0,0.0,0.0,0.0,0.0,0.0,0.0,0.0,0.0,0.0,0.0,0.0,0.0,0.0,0.0,0.0,0.0,0.0,0.0,0.0,0.0,0.0,0.0,0.0,0.0,0.0,0.0,0.0,-2.4229,-2.4476,-2.4684,-2.4813,-2.4919,-2.4986,-2.5065,-2.5177,-2.5305,-2.455,0.0,0.0,0.0,0.0,0.0,0.0,0.0,0.0,0.0,0.0,0.0,0.0,0.0,0.0,0.0,0.0,0.0,0.0,0.0,0.0,0.0,0.0,0.0,0.0,0.0,0.0,0.0,0.0,0.0,0.0,0.0,0.0,0.0,0.0,0.0,0.0,0.0,0.0,0.0,0.0,0.0,0.0,0.0,0.0,0.0,0.0,0.0,0.0,0.0,0.0,0.0,0.0,0.0,0.0,0.0,0.0,0.0,0.0,0.0,0.0,0.0,0.0,0.0,0.0,0.0,0.0,0.0,0.0,0.0,0.0,0.0,0.0,0.0,0.0,0.0,0.0,0.0,0.0,0.0,0.0,0.0,0.0,0.0,0.0,0.0,0.0,0.0,0.0,0.0,0.0,0.0,0.0,0.0,0.0,0.0,0.0,0.0,0.0,0.0,0.0,0.0,0.0,-2.4355,-2.4545,-2.4742,-2.4834,-2.494,-2.5044,-2.5145,-2.5269,-2.5385,0.0,0.0,0.0,0.0,0.0,0.0,0.0,0.0,0.0,0.0,0.0,0.0,0.0,0.0,0.0,0.0,0.0,0.0,0.0,0.0,0.0,0.0,0.0,0.0,0.0,0.0,0.0,0.0,0.0,0.0,0.0,0.0,0.0,0.0,0.0,0.0,0.0,0.0,0.0,0.0,0.0,0.0,0.0,0.0,0.0,0.0,0.0,0.0,0.0,0.0,0.0,0.0,0.0,0.0,0.0,0.0,0.0,0.0,0.0,0.0,0.0,0.0,0.0,0.0,0.0,0.0,0.0,0.0,0.0,0.0,0.0,0.0,0.0,0.0,0.0,0.0,0.0,0.0,0.0,0.0,0.0,0.0,0.0,0.0,0.0,0.0,0.0,0.0,0.0,0.0,0.0,0.0,0.0,0.0,0.0,0.0,0.0,0.0,0.0,0.0,0.0,0.0,-2.4681,-2.5076,-2.5398,-2.5578,-2.5664,-2.5656,-2.5495,-2.5576,-2.5577,-2.5412,0.0,0.0,0.0,0.0,0.0,0.0,0.0,0.0,0.0,0.0,0.0,0.0,0.0,0.0,0.0,0.0,0.0,0.0,0.0,0.0,0.0,0.0,0.0,0.0,0.0,0.0,0.0,0.0,0.0,0.0,0.0,0.0,0.0,0.0,0.0,0.0,0.0,0.0,0.0,0.0,0.0,0.0,0.0,0.0,0.0,0.0,0.0,0.0,0.0,0.0,0.0,0.0,0.0,0.0,0.0,0.0,0.0,0.0,0.0,0.0,0.0,0.0,0.0,0.0,0.0,0.0,0.0,0.0,0.0,0.0,0.0,0.0,0.0,0.0,0.0,0.0,0.0,0.0,0.0,0.0,0.0,0.0,0.0,0.0,0.0,0.0,0.0,0.0,0.0,0.0,0.0,0.0,0.0,0.0,0.0,0.0,0.0,0.0,0.0,0.0,0.0,0.0,-2.5588,-2.6497,-2.7153,-2.7291,-2.7415,-2.7186,-2.6371,-2.6496,-2.6266,0.0,0.0,0.0,0.0,0.0,0.0,0.0,0.0,0.0,0.0,0.0,0.0,0.0,0.0,0.0,0.0,0.0,0.0,0.0,0.0,0.0,0.0,0.0,0.0,0.0,0.0,0.0,0.0,0.0,0.0,0.0,0.0,0.0,0.0,0.0,0.0,0.0,0.0,0.0,0.0,0.0,0.0,0.0,0.0,0.0,0.0,0.0,0.0,0.0,0.0,0.0,0.0,0.0,0.0,0.0,0.0,0.0,0.0,0.0,0.0,0.0,0.0,0.0,0.0,0.0,0.0,0.0,0.0,0.0,0.0,0.0,0.0,0.0,0.0,0.0,0.0,0.0,0.0,0.0,0.0,0.0,0.0,0.0,0.0,0.0,0.0,0.0,0.0,0.0,0.0,0.0,0.0,0.0,0.0,0.0,0.0,0.0,0.0,0.0,0.0,0.0,0.0,0.0,-2.6618,-2.7003,-2.7288,-2.7422,-2.7519,-2.7495,-2.7294,-2.7388,-2.7397,-2.7239,0.0,0.0,0.0,0.0,0.0,0.0,0.0,0.0,0.0,0.0,0.0,0.0,0.0,0.0,0.0,0.0,0.0,0.0,0.0,0.0,0.0,0.0,0.0,0.0,0.0,0.0,0.0,0.0,0.0,0.0,0.0,0.0,0.0,0.0,0.0,0.0,0.0,0.0,0.0,0.0,0.0,0.0,0.0,0.0,0.0,0.0,0.0,0.0,0.0,0.0,0.0,0.0,0.0,0.0,0.0,0.0,0.0,0.0,0.0,0.0,0.0,0.0,0.0,0.0,0.0,0.0,0.0,0.0,0.0,0.0,0.0,0.0,0.0,0.0,0.0,0.0,0.0,0.0,0.0,0.0,0.0,0.0,0.0,0.0,0.0,0.0,0.0,0.0,0.0,0.0,0.0,0.0,0.0,0.0,0.0,0.0,0.0,0.0,0.0,0.0,0.0,0.0,-2.7577,-2.8035,-2.8393,-2.8518,-2.8598,-2.8529,-2.8286,-2.8324,-2.826,-2.8014,0.0,0.0,0.0,0.0,0.0,0.0,0.0,0.0,0.0,0.0,0.0,0.0,0.0,0.0,0.0,0.0,0.0,0.0,0.0,0.0,0.0,0.0,0.0,0.0,0.0,0.0,0.0,0.0,0.0,0.0,0.0,0.0,0.0,0.0,0.0,0.0,0.0,0.0,0.0,0.0,0.0,0.0,0.0,0.0,0.0,0.0,0.0,0.0,0.0,0.0,0.0,0.0,0.0,0.0,0.0,0.0,0.0,0.0,0.0,0.0,0.0,0.0,0.0,0.0,0.0,0.0,0.0,0.0,0.0,0.0,0.0,0.0,0.0,0.0,0.0,0.0,0.0,0.0,0.0,0.0,0.0,0.0,0.0,0.0,0.0,0.0,0.0,0.0,0.0,0.0,0.0,0.0,0.0,0.0,0.0,0.0,0.0,0.0,0.0,0.0,0.0,0.0,-2.8491,-2.9345,-2.997,-3.0095,-3.0176,-2.9934,-2.928,-2.9272,-2.9004,-2.8283,0.0,0.0,0.0,0.0,0.0,0.0,0.0,0.0,0.0,0.0,0.0,0.0,0.0,0.0,0.0,0.0,0.0,0.0,0.0,0.0,0.0,0.0,0.0,0.0,0.0,0.0,0.0,0.0,0.0,0.0,0.0,0.0,0.0,0.0,0.0,0.0,0.0,0.0,0.0,0.0,0.0,0.0,0.0,0.0,0.0,0.0,0.0,0.0,0.0,0.0,0.0,0.0,0.0,0.0,0.0,0.0,0.0,0.0,0.0,0.0,-1.8441,-1.7535,0.0,0.0,0.0,0.0,0.0,0.0,0.0,0.0,0.0,0.0,0.0,0.0,0.0,0.0,0.0,0.0,0.0,0.0,0.0,0.0,0.0,0.0,0.0,0.0,0.0,0.0,0.0,0.0,0.0,0.0,0.0,0.0,0.0,0.0,0.0,0.0,0.0,0.0,0.0,0.0,-2.9464,-2.9788,-3.003,-3.0157,-3.0245,-3.0241,-3.0136,-3.0183,-3.0163,-3.0053,-2.9465,0.0,0.0,0.0,0.0,0.0,0.0,0.0,0.0,0.0,0.0,0.0,0.0,0.0,0.0,0.0,0.0,0.0,0.0,0.0,0.0,0.0,0.0,0.0,0.0,0.0,0.0,0.0,0.0,0.0,0.0,0.0,0.0,0.0,0.0,0.0,0.0,0.0,0.0,0.0,0.0,0.0,0.0,0.0,0.0,0.0,0.0,0.0,0.0,0.0,0.0,0.0,0.0,0.0,0.0,0.0,0.0,0.0,0.0,0.0,-2.0584,-1.9971,0.0,0.0,0.0,0.0,0.0,0.0,0.0,0.0,0.0,0.0,0.0,0.0,0.0,0.0,0.0,0.0,0.0,0.0,0.0,0.0,0.0,0.0,0.0,0.0,0.0,0.0,0.0,0.0,0.0,0.0,0.0,0.0,0.0,0.0,0.0,0.0,0.0,0.0,0.0,0.0,-2.991,-3.0038,-3.0142,-3.0234,-3.0311,-3.0386,-3.0442,-3.0505,-3.0568,-3.0641,-3.0263,0.0,0.0,0.0,0.0,0.0,0.0,0.0,0.0,0.0,0.0,0.0,0.0,0.0,0.0,0.0,0.0,0.0,0.0,0.0,0.0,0.0,0.0,0.0,0.0,0.0,0.0,0.0,0.0,0.0,0.0,0.0,0.0,0.0,0.0,0.0,0.0,0.0,0.0,0.0,0.0,0.0,0.0,0.0,0.0,0.0,0.0,0.0,0.0,0.0,0.0,0.0,0.0,0.0,-2.2642,-2.2821,-2.2983,-2.3295,-2.3447,-2.3428,-2.3352,-2.3048,-2.2629,-2.2723,0.0,0.0,0.0,0.0,0.0,0.0,0.0,0.0,0.0,0.0,0.0,0.0,0.0,0.0,0.0,0.0,0.0,0.0,0.0,0.0,0.0,0.0,-2.4172,-2.5269,-2.6525,-2.7324,-2.6744,0.0,0.0,0.0,0.0,0.0,0.0,0.0,0.0,0.0,0.0,0.0,-3.0506,-3.0596,-3.068,-3.0746,-3.0808,-3.0821,-3.0728,-3.0791,-3.0791,-3.071,-3.0714,-3.0731,0.0,0.0,0.0,0.0,0.0,0.0,0.0,0.0,0.0,0.0,0.0,0.0,0.0,0.0,0.0,0.0,0.0,0.0,0.0,0.0,0.0,0.0,0.0,0.0,0.0,0.0,0.0,0.0,0.0,0.0,0.0,0.0,-1.5759,-1.6853,0.0,0.0,0.0,0.0,0.0,0.0,0.0,0.0,0.0,0.0,0.0,0.0,0.0,-2.3377,-2.4193,-2.4949,-2.5431,-2.5603,-2.5917,-2.6075,-2.6133,-2.6571,-2.6757,-2.6798,-2.7162,0.0,-2.3135,-2.3363,0.0,0.0,0.0,0.0,0.0,0.0,0.0,0.0,0.0,0.0,0.0,0.0,0.0,0.0,0.0,0.0,0.0,0.0,0.0,0.0,0.0,0.0,-2.6336,-2.7963,-2.8481,-2.8973,-3.0418,-2.9417,-2.8317,-2.8609,-2.8734,-2.9095,0.0,0.0,0.0,0.0,0.0,0.0,-3.2248,-3.2378,-3.249,-3.2551,-3.2613,-3.2386,-3.1685,-3.1734,-3.1495,-3.0752,-3.0748,-3.0782,-3.08,-3.0684,0.0,0.0,0.0,0.0,0.0,0.0,0.0,0.0,0.0,0.0,0.0,0.0,0.0,0.0,0.0,0.0,0.0,0.0,0.0,0.0,0.0,0.0,0.0,0.0,0.0,0.0,0.0,0.0,0.0,-1.7047,-1.7875,-1.8771,-1.8901,-1.9127,0.0,0.0,0.0,0.0,0.0,0.0,0.0,0.0,0.0,-2.4179,-2.4767,-2.5314,-2.5819,-2.6282,-2.6636,-2.6875,-2.7025,-2.7174,-2.7337,-2.7648,-2.781,-2.7858,-2.8265,-2.7688,-2.6439,-2.6384,-2.6402,-2.6441,0.0,0.0,0.0,0.0,-2.5261,-2.5158,-2.5736,-2.5973,-2.6114,-2.6745,0.0,0.0,0.0,0.0,0.0,0.0,0.0,-2.6275,-2.7478,-2.822,-2.8975,-3.0224,-3.0501,-3.0727,-3.1585,-3.111,-3.0519,-3.0538,-3.0617,-3.0827,-3.1281,-3.1461,0.0,0.0,0.0,-3.2572,-3.2754,-3.2818,-3.291,-3.3003,-3.3034,-3.2928,-3.2614,-3.264,-3.2527,-3.2179,-3.2224,-3.2255,-3.2255,-3.1786,-3.1547,0.0,0.0,0.0,0.0,0.0,0.0,0.0,0.0,0.0,0.0,0.0,0.0,0.0,0.0,0.0,0.0,0.0,0.0,0.0,0.0,0.0,0.0,0.0,0.0,0.0,0.0,0.0,0.0,-1.8934,-1.9691,-2.0426,-2.0679,-2.0856,0.0,0.0,0.0,0.0,0.0,0.0,-2.5526,-2.5802,-2.61,-2.6481,-2.6967,-2.7378,-2.7684,-2.8028,-2.8321,-2.8598,-2.8662,-2.879,-2.8974,-2.9264,-2.941,-2.9477,-2.9847,-3.0093,-3.0155,-2.9134,-2.8795,-2.8856,-2.8492,-2.8408,-2.8457,-2.8132,-2.8049,-2.8109,-2.8429,-2.8563,-2.8621,-2.8927,-2.9075,-2.9008,-2.8349,0.0,0.0,0.0,0.0,-2.8738,-2.9591,-3.0357,-3.1123,-3.1975,-3.2191,-3.2291,-3.2641,-3.2718,-3.2547,-3.2003,-3.2,-3.2178,-3.2457,-3.2619,0.0,-3.3135,-3.3271,-3.3371,-3.3537,-3.3577,-3.3639,-3.3738,-3.3761,-3.3727,-3.3559,-3.3549,-3.3492,-3.3342,-3.3373,-3.3399,-3.3401,-3.279,-3.2429,-3.2437,0.0,0.0,0.0,0.0,0.0,0.0,0.0,0.0,0.0,0.0,0.0,0.0,0.0,0.0,0.0,0.0,0.0,0.0,0.0,0.0,0.0,0.0,0.0,0.0,0.0,0.0,0.0,0.0,0.0,-2.1556,-2.2246,0.0,0.0,0.0,0.0,-2.5495,-2.5657,-2.5925,-2.6332,-2.6497,-2.6925,-2.7783,-2.8866,-2.9756,-3.0389,-3.1281,-3.1737,-3.176,-3.203,-3.2167,-3.219,-3.2635,-3.2852,-3.2873,-3.3335,-3.3556,-3.3334,-3.046,-2.9334,-2.9455,-2.9556,-2.9689,-2.9818,-2.9929,-3.0037,-3.0189,-3.0463,-3.0611,-3.0678,-3.0979,-3.1175,-3.12,-3.039,-3.0224,0.0,0.0,-3.0421,-3.0748,-3.1547,-3.1894,-3.2221,-3.3026,-3.3275,-3.3563,-3.4475,-3.4665,-3.4165,-3.2504,-3.2232,-3.2581,-3.3477,0.0,-3.4023,-3.4937,-3.5189,-3.5297,-3.5359,-3.5419,-3.5477,-3.5466,-3.5597,-3.5323,-3.4493,-3.449,-3.4197,-3.3434,-3.3399,-3.3401,-3.3399,-3.3364,-3.3332,-3.3338,-3.3299,0.0,0.0,0.0,0.0,0.0,0.0,0.0,0.0,0.0,0.0,0.0,0.0,0.0,0.0,0.0,0.0,0.0,0.0,0.0,0.0,0.0,0.0,0.0,0.0,0.0,0.0,0.0,0.0,-2.42,-2.4664,0.0,-2.5341,-2.572,-2.6428,-2.762,-2.7837,-2.8443,-2.9681,-2.9776,-3.0043,-3.0523,-3.1102,-3.1515,-3.1776,-3.2226,-3.2478,-3.2584,-3.2763,-3.2912,-3.2999,-3.3385,-3.3577,-3.3642,-3.4005,-3.4274,-3.4302,-3.3261,-3.279,-3.2684,-3.2389,-3.2351,-3.2431,-3.2049,-3.1981,-3.2118,-3.2349,-3.2484,-3.2581,-3.2865,-3.273,-3.2418,-3.2187,-3.1842,-3.1528,-3.1528,-3.2004,-3.2687,-3.3494,-3.4147,-3.4831,-3.573,-3.5958,-3.5934,-3.5799,-3.5771,-3.5448,-3.4397,-3.4144,-3.4241,-3.4666,-3.4759,-3.4917,-3.533,-3.5423,-3.5502,-3.5552,-3.5621,-3.5684,-3.5722,-3.5767,-3.5683,-3.5414,-3.5415,-3.5318,-3.5032,-3.5051,-3.5071,-3.5076,-3.4523,-3.4236,-3.4238,-3.3691,-3.3241,0.0,0.0,0.0,0.0,0.0,0.0,0.0,0.0,0.0,0.0,0.0,0.0,0.0,0.0,0.0,0.0,0.0,0.0,0.0,0.0,0.0,0.0,0.0,0.0,0.0,-2.4325,-2.5042,-2.6031,-2.6612,-2.7026,-2.7186,-2.7742,-2.8567,-2.973,-2.9973,-3.0597,-3.1812,-3.1907,-3.2041,-3.2226,-3.2679,-3.2947,-3.3009,-3.3405,-3.3673,-3.3806,-3.3955,-3.4064,-3.4232,-3.451,-3.4699,-3.4823,-3.5138,-3.5386,-3.5591,-3.5703,-3.5703,-3.5543,-3.4606,-3.4354,-3.4467,-3.4028,-3.3954,-3.4108,-3.432,-3.4497,-3.4605,-3.4795,-3.4643,-3.4389,-3.4442,-3.418,-3.3845,-3.3845,-3.4292,-3.4919,-3.5468,-3.6027,-3.6627,-3.7315,-3.7478,-3.7375,-3.6917,-3.6819,-3.671,-3.6289,-3.5651,-3.5201,-3.5331,-3.5364,-3.5415,-3.5528,-3.5534,-3.5554,-3.5629,-3.5679,-3.5745,-3.5807,-3.5818,-3.5859,-3.5908,-3.59,-3.5899,-3.5929,-3.5978,-3.5996,-3.6005,-3.5447,-3.5137,-3.5136,-3.4274,-3.384,-3.3836,0.0,0.0,0.0,0.0,0.0,0.0,0.0,0.0,0.0,0.0,0.0,0.0,0.0,0.0,0.0,0.0,0.0,0.0,0.0,0.0,0.0,0.0,0.0,-2.4784,-2.5872,-2.6751,-2.6908,-2.8105,-2.9014,-2.9268,-3.0609,-3.155,-3.1829,-3.212,-3.2321,-3.2469,-3.2622,-3.2718,-3.2807,-3.3617,-3.413,-3.4281,-3.5076,-3.5543,-3.569,-3.5841,-3.5973,-3.6087,-3.6285,-3.6478,-3.665,-3.6946,-3.7142,-3.7316,-3.7539,-3.7721,-3.7737,-3.602,-3.5512,-3.574,-3.5783,-3.5903,-3.6047,-3.6319,-3.6527,-3.6699,-3.6699,-3.6889,-3.711,-3.7091,-3.7212,-3.7311,-3.7311,-3.7311,-3.7322,-3.7413,-3.7446,-3.7488,-3.7643,-3.7737,-3.78,-3.7838,-3.7896,-3.7963,-3.8,-3.6584,-3.5422,-3.5551,-3.556,-3.5573,-3.5639,-3.5615,0.0,-3.5684,-3.575,-3.5807,-3.5795,-3.5869,-3.5908,-3.5908,-3.5897,-3.5921,-3.5999,-3.6009,-3.6005,-3.5996,-3.5996,-3.5995,-3.5991,-3.516,-3.474,-3.4732,0.0,0.0,0.0,0.0,0.0,0.0,0.0,0.0,0.0,0.0,0.0,0.0,0.0,0.0,0.0,0.0,0.0,0.0,0.0,0.0,0.0,-2.8188,-2.8792,-2.7661,-2.8297,-2.9092,-2.9685,-3.0661,-3.1387,-3.1638,-3.2021,-3.2531,-3.3195,-3.3423,-3.3808,-3.4472,-3.4587,-3.4684,-3.4796,-3.5127,-3.5588,-3.6158,-3.6564,-3.7074,-3.7627,-3.7851,-3.7978,-3.8044,-3.8345,-3.8198,-3.7714,-3.8127,-3.7999,-3.7539,-3.7792,-3.7949,-3.7927,-3.6815,-3.6552,-3.6721,-3.6149,-3.6109,-3.6371,-3.65,-3.6628,-3.6783,-3.6889,-3.6998,-3.7122,-3.7224,-3.7303,-3.7379,-3.7379,-3.744,-3.7661,-3.8318,-3.849,-3.868,-3.9393,-3.9609,-3.9517,-3.9004,-3.8896,-3.8748,-3.8181,-3.772,-3.7411,-3.7443,-3.6927,-3.6532,-3.6616,-3.6111,-3.5745,-3.5773,-3.583,-3.5866,-3.5872,-3.5883,-3.5899,-3.5899,-3.5949,-3.5985,-3.6009,-3.6008,-3.5995,-3.5996,-3.5995,-3.5991,-3.5999,-3.5768,-3.5619,0.0,0.0,0.0,0.0,0.0,0.0,0.0,0.0,0.0,0.0,0.0,0.0,0.0,0.0,0.0,0.0,0.0,0.0,0.0,0.0,0.0,0.0,-3.0279,-3.0978,-3.0854,-3.1016,-3.1292,-3.1775,-3.2545,-3.3121,-3.3323,-3.3912,-3.4491,-3.5069,-3.5542,-3.6027,-3.6564,-3.6678,-3.6769,-3.6853,-3.692,-3.7209,-3.7682,-3.7856,-3.819,-3.8698,-3.8847,-3.8994,-3.9097,-3.9332,-3.9229,-3.8905,-3.9214,-3.9136,-3.8834,-3.8994,-3.9184,-3.9243,0.0,0.0,0.0,0.0,-3.7437,-3.7635,-3.7742,-3.7846,-3.7954,-3.8094,-3.8188,-3.8297,-3.8396,-3.8481,-3.8543,-3.8573,-3.8632,-3.8804,-3.9347,-3.9517,-3.9677,-4.0243,-4.0436,-4.0369,-3.9937,-3.9872,-3.974,-3.9284,-3.9274,0.0,-3.9326,-3.8319,-3.7515,-3.7584,-3.7184,-3.6907,-3.6927,-3.6648,-3.6436,-3.6448,-3.6114,-3.5914,-3.5942,-3.5983,0.0,0.0,0.0,-3.5996,-3.5992,-3.6003,0.0,0.0,0.0,-3.6097,-3.6406,-3.6406,0.0,0.0,-3.4731,-3.4392,0.0,0.0,0.0,0.0,0.0,0.0,0.0,0.0,0.0,0.0,0.0,0.0,0.0,0.0,0.0,0.0,-3.204,-3.2481,-3.3899,-3.384,-3.3575,-3.3342,-3.4044,-3.461,-3.4737,-3.6022,-3.6903,-3.7104,-3.7906,-3.8397,-3.8481,-3.861,0.0,0.0,0.0,-3.8789,-3.8981,-3.9003,-3.9129,-3.9392,-3.9434,-3.9557,-3.9814,-3.9884,-4.001,-4.017,-4.023,-4.0382,-4.0545,-4.0545,-4.0788,-4.0993,-3.9292,-3.8682,-3.878,-3.9036,-3.9183,-3.9251,-3.9363,0.0,0.0,-3.9682,-3.9815,-3.9922,-3.9996,-4.0067,-4.0137,-4.0196,-4.0215,-4.0244,-4.0307,-4.0368,-4.0427,-4.0508,-4.0554,-4.061,-4.0614,-4.0655,-4.0706,-4.0712,-4.0815,-4.0898,-4.0912,-3.9558,-3.8485,-3.8531,-3.8478,-3.8427,-3.8497,-3.7822,-3.7347,-3.7352,-3.6655,0.0,-3.6274,-3.6284,-3.6297,-3.6288,-3.6289,-3.6285,-3.6285,-3.6286,-3.6243,-3.6181,-3.6198,-3.6531,-3.7253,-3.7249,-3.7638,-3.8354,-3.6881,-3.6181,0.0,0.0,0.0,0.0,0.0,0.0,0.0,0.0,0.0,0.0,0.0,0.0,0.0,0.0,0.0,-3.3969,-3.4632,-3.5082,-3.5399,-3.6402,-3.6512,-3.4816,-3.5848,-3.6747,-3.6891,-3.7686,-3.8269,-3.8419,-3.8685,-3.8886,-3.8959,-3.9105,-3.9147,-3.9147,-3.9147,-3.9501,-4.0171,-4.0221,-4.0602,-4.1278,-4.1432,0.0,-4.1597,-4.1785,-4.1586,-4.1131,-4.1321,-4.1144,-4.0754,-4.0908,-4.1188,-4.1408,-4.0396,-3.96,-3.9064,-3.9261,-3.9388,-3.9452,-3.9477,-3.9599,-3.9758,-3.9845,-3.9922,-3.9996,-4.0118,-4.0177,0.0,-4.0262,-4.0326,-4.037,-4.0433,-4.0465,-4.0496,-4.0552,-4.0633,-4.0687,-4.0688,-4.0725,-4.0806,-4.0851,-4.0873,-4.0912,-4.0975,-4.0112,-3.9431,-3.945,-3.8906,-3.85,-3.8494,-3.8351,-3.8241,-3.8246,-3.8106,-3.8,-3.8022,-3.8077,-3.8104,-3.8105,-3.804,-3.8025,-3.8012,-3.8022,-3.8018,-3.7993,-3.7946,-3.7996,-3.8148,-3.8147,-3.8207,-3.8306,-3.8037,-3.7929,0.0,0.0,0.0,0.0,0.0,0.0,0.0,0.0,0.0,0.0,0.0,-3.2285,0.0,0.0,-3.4385,-3.5561,-3.5954,-3.6377,-3.7193,-3.7953,-3.7972,-3.6684,-3.76,-3.8312,-3.8394,-3.9112,-3.9591,-3.9682,-4.0131,-4.0463,-4.0553,-4.0658,-4.0704,-4.0704,-4.0766,-4.0982,-4.1407,-4.1434,-4.1671,-4.2103,-4.2269,-4.2389,-4.247,-4.2668,-4.2587,-4.2303,-4.2432,-4.241,-4.2283,-4.2495,-4.2461,-4.2221,-4.196,-4.1301,-4.0485,-4.0199,-4.014,-4.0152,-3.9774,-3.9747,-3.9859,-4.0015,-4.0068,-4.0128,-4.0253,-4.0299,-4.0316,-4.0375,-4.0427,-4.0468,-4.0534,-4.0571,-4.0612,-4.0647,-4.0694,-4.0752,-4.0751,-4.0804,-4.0853,-4.0883,-4.0935,-4.0961,-4.0983,-4.0662,-4.04,-4.0409,-4.0054,-3.9797,-3.9809,-3.9425,-3.916,-3.9149,-3.8788,-3.8541,-3.8546,-3.8574,-3.8593,-3.859,-3.8534,-3.8495,-3.8491,-3.8494,-3.8484,-3.8452,-3.8412,-3.8594,-3.9004,-3.8996,-3.919,-3.9543,-3.9547,-3.9101,0.0,0.0,0.0,0.0,0.0,0.0,0.0,0.0,-3.2214,-3.2164,-3.3216,-3.413,-3.416,-3.5049,-3.6074,-3.6886,-3.6966,-3.7417,-3.8724,-3.9171,-3.9199,-3.8812,-3.9297,-3.9644,-3.9644,-4.0366,-4.0867,-4.094,-4.1559,-4.1991,-4.2115,-4.2163,-4.2207,-4.2246,-4.2348,-4.2409,-4.243,-4.243,-4.2432,-4.2494,-4.2631,-4.2746,-4.2879,-4.3068,-4.3196,-4.3304,-4.3408,-4.3579,-4.3793,-4.4048,-4.3763,-4.3229,-4.3451,-4.3093,-4.2334,-4.1424,-4.1099,-4.1098,-4.0499,-4.0238,-4.0211,-4.0395,-4.0358,-4.0243,-4.037,-4.0432,-4.0438,-4.05,-4.0512,-4.0534,-4.0607,-4.0668,-4.0694,-4.0713,-4.0764,-4.0792,-4.0823,-4.0863,-4.0893,-4.0911,-4.0953,-4.0994,-4.1025,-4.1067,-4.1098,-4.1111,-4.1096,-4.1107,-4.1101,-4.0498,-4.0055,-4.0047,-3.9463,-3.9096,-3.9081,-3.9099,-3.9092,-3.9088,-3.9047,-3.9009,-3.9009,-3.8987,-3.8967,-3.891,-3.8881,-3.9194,-3.9859,-3.9843,-4.0151,-4.0771,-4.0732,-3.9984,-3.2631,-3.2589,-3.2515,-3.2567,-3.2477,-3.2523,0.0,0.0,-3.4237,-3.476,-3.5468,-3.6178,-3.6753,-3.6911,-3.7185,-3.7985,-3.8589,-3.9045,-3.9226,-4.042,-4.1266,-4.121,-4.1032,-4.0907,-4.0907,-4.1637,-4.2124,-4.2188,-4.2297,-4.2391,-4.253,-4.255,-4.2609,-4.2725,-4.2745,-4.2765,-4.2825,-4.2825,-4.2843,-4.2844,-4.2993,-4.3086,-4.316,-4.3232,-4.3408,-4.3646,-4.3905,-4.403,-4.4079,-4.4222,-4.4283,-4.4323,-4.435,-4.4377,-4.4201,-4.2611,-4.2095,-4.2148,-4.2124,-4.1684,-4.1172,-4.1312,-4.0873,-4.0316,-4.0449,-4.0487,-4.0508,-4.0573,-4.0591,-4.0607,-4.0661,-4.0681,-4.0719,-4.0763,-4.0798,-4.0818,-4.0883,-4.0883,-4.0911,-4.0986,-4.0987,-4.1025,-4.1083,-4.1099,-4.1106,-4.1104,-4.1104,-4.1091,-4.1103,-4.1008,-4.0949,-4.095,-4.0875,-4.082,-4.0819,-4.0813,-4.0826,-4.0826,-4.0801,-4.0801,-4.0801,-4.0747,-4.0723,-4.0704,-4.0655,-4.0655,-4.0747,-4.0693,-4.0672,-4.0706,-4.0707,-4.061,-3.368,-3.4013,0.0,0.0,-3.4345,-3.4652,-3.4872,-3.5469,-3.6014,-3.6155,-3.6737,-3.7281,-3.7503,-3.7845,-3.819,0.0,-3.9122,-3.9697,-4.0171,-4.1159,-4.1996,-4.2468,-4.2411,-4.226,-4.2086,-4.239,-4.2827,-4.3338,-4.3394,-4.3612,-4.414,-4.4256,-4.4314,-4.4371,-4.441,-4.4449,-4.4469,-4.4545,-4.46,-4.4582,-4.4748,-4.4582,-4.4141,-4.4246,-4.4142,-4.3892,-4.4173,-4.4292,-4.4335,-4.444,-4.4524,-4.4619,-4.4659,-4.4719,-4.4676,-4.3466,-4.3056,-4.3052,-4.2599,-4.2322,-4.2171,-4.225,-4.1751,-4.114,-4.1261,-4.0954,-4.058,-4.0639,-4.0666,-4.0674,-4.0745,-4.077,-4.0769,-4.0798,-4.0823,-4.0864,-4.0883,-4.0932,-4.0976,-4.0987,-4.1022,-4.1068,-4.1101,-4.1094,-4.1102,-4.1104,-4.1103,-4.1103,-4.1109,-4.109,-4.1092,-4.1094,-4.1094,-4.1093,-4.1106,-4.1101,-4.1095,-4.1106,-4.1107,-4.1086,-4.1031,-4.1006,-4.0984,-4.0939,-4.0878,-4.0832,-4.0834,-4.077,-4.0733,-4.0701,-4.066,-4.0612,-3.4505,0.0,0.0,-3.5518,-3.6044,-3.6577,-3.6428,-3.6941,-3.7406,-3.725,-3.7763,-3.8201,-3.8109,-3.8489,-3.8837,-3.8837,-3.9559,-4.0343,-4.093,-4.1837,-4.2663,-4.3248,-4.3286,-4.3306,-4.334,-4.332,-4.3646,-4.4503,-4.4595,-4.4851,-4.5434,-4.5566,-4.5622,-4.566,-4.5717,-4.5754,-4.5773,-4.5865,-4.5902,-4.5902,-4.6064,-4.582,-4.5263,-4.5453,-4.5138,-4.4475,-4.4687,-4.4702,-4.4551,-4.4605,-4.4672,-4.4719,-4.4796,-4.4858,-4.4862,-4.4263,-4.4059,-4.4041,-4.3471,-4.3228,-4.3168,-4.3197,-4.2694,-4.2099,-4.2225,-4.1651,-4.0998,-4.1041,-4.0894,-4.0739,-4.0794,-4.0804,-4.0821,-4.0828,-4.0874,-4.093,-4.0924,-4.0976,-4.1016,-4.1028,-4.1068,-4.1109,-4.1091,-4.1102,-4.1109,-4.1092,-4.1111,-4.113,-4.1132,-4.1113,-4.1094,-4.1092,-4.109,-4.1107,-4.1099,-4.1095,-4.1108,-4.1094,-4.1076,-4.1053,-4.1007,-4.0984,-4.0958,-4.0898,-4.0823,-4.0804,-4.0794,-4.0733,-4.0694,-4.0661,-4.0617,-4.0558,-3.5492,0.0,-3.6637,-3.6485,-3.7066,-3.7604,-3.7393,-3.7878,-3.8341,-3.8263,-3.8693,-3.9064,-3.9064,-3.8974,-3.891,-3.891,-4.0221,-4.1256,-4.1292,-4.2597,-4.356,-4.3579,-4.3531,-4.3807,0.0,-4.4618,-4.4876,-4.5681,-4.581,-4.5865,-4.5883,-4.5883,-4.5956,-4.6082,-4.6082,-4.6117,-4.6169,-4.6187,-4.6205,-4.6205,-4.6186,-4.6291,-4.6457,-4.6732,-4.6416,-4.5646,-4.5731,-4.5348,-4.468,-4.4699,-4.4751,-4.4796,-4.4858,-4.4931,-4.5003,-4.5109,-4.5154,-4.5154,-4.5199,-4.4716,-4.4078,-4.4207,-4.3709,-4.3079,-4.3138,-4.2604,-4.1956,-4.1957,-4.1389,-4.08,-4.0796,-4.0849,-4.0903,-4.0903,-4.0943,-4.1003,-4.1,-4.101,-4.1025,-4.1085,-4.1101,-4.1091,-4.1098,-4.1107,-4.1092,-4.1092,-4.1152,-4.1191,-4.1191,-4.1132,-4.1092,-4.1092,-4.1105,-4.1099,-4.1098,-4.1104,-4.1094,-4.1094,-4.1039,-4.1007,-4.1009,-4.0948,-4.0898,-4.0907,-4.0829,-4.08,-4.0794,-4.0733,-4.0661,-4.0595,-4.061,-4.0538,-3.6364,0.0,-3.6873,-3.7329,-3.7978,-3.8471,-3.8295,-3.8812,-3.9286,-3.9125,-3.9252,-3.9324,-3.9197,-3.9129,-3.9073,-3.9031,-4.0378,-4.1425,-4.1425,-4.2767,-4.3718,-4.3718,-4.418,0.0,0.0,0.0,0.0,-4.6745,-4.6891,-4.7131,-4.7665,-4.7702,-4.772,-4.7775,-4.7847,-4.79,-4.7918,-4.8004,-4.8073,-4.8054,-4.7601,-4.7425,-4.7471,-4.7117,-4.6809,-4.6571,-4.6685,-4.631,-4.564,-4.564,-4.5363,-4.4931,-4.4955,-4.5049,-4.5203,-4.5254,-4.5329,-4.539,-4.5379,-4.5247,-4.51,-4.5154,-4.4655,-4.4045,-4.4119,-4.3529,-4.286,-4.2917,-4.2352,-4.172,-4.1732,-4.132,-4.092,-4.0952,-4.0984,-4.0997,-4.101,-4.1025,-4.1072,-4.1103,-4.1098,-4.1107,-4.1108,-4.1131,-4.1152,-4.1113,-4.1152,-4.1172,-4.1132,-4.1112,-4.109,-4.1104,-4.1101,-4.1095,-4.1104,-4.1097,-4.1083,-4.1037,-4.1013,-4.0976,-4.0948,-4.0903,-4.0877,-4.0829,-4.0769,-4.0739,-4.0733,-4.066,-4.0617,-4.061,-4.0562,-4.0482,-3.6788,-3.7133,-3.746,-3.8212,-3.8889,-3.9366,-3.9269,-3.9545,-3.9792,-3.9658,-3.9575,-3.9464,-3.9324,-3.9277,-3.9256,-3.9215,-4.0556,-4.1609,-4.1609,-4.2974,-4.3963,-4.395,-4.4654,-4.5469,0.0,0.0,0.0,-4.7826,-4.799,-4.8248,-4.8783,-4.8802,-4.8802,-4.8802,-4.8891,-4.8945,-4.8945,-4.9044,-4.9127,-4.9141,-4.8749,-4.8571,-4.8553,-4.8145,-4.7824,-4.7589,-4.7655,-4.7265,-4.6537,-4.6253,-4.5862,-4.544,-4.5171,-4.517,-4.5307,-4.537,-4.5467,-4.5541,-4.5496,-4.5542,-4.5648,-4.5651,-4.5341,-4.4977,-4.5079,-4.4486,-4.3807,-4.3885,-4.3296,-4.2675,-4.2693,-4.2054,-4.1412,-4.145,-4.1244,-4.1031,-4.1042,-4.1072,-4.1091,-4.1097,-4.1106,-4.1092,-4.1092,-4.1133,-4.1152,-4.1112,-4.1132,-4.1151,-4.111,-4.1109,-4.1106,-4.1099,-4.1094,-4.1106,-4.1094,-4.1081,-4.1042,-4.1007,-4.0976,-4.0928,-4.0864,-4.0853,-4.0829,-4.0764,-4.0726,-4.0701,-4.0661,-4.0617,-4.058,-4.0565,-4.0515,-4.0449,-3.6851,-3.7608,-3.8362,-3.9165,-3.9835,-4.027,-4.0215,-4.0049,-3.9911,-3.99,-3.9682,-3.9495,0.0,0.0,-3.9405,-3.9405,-4.0755,-4.1801,-4.1801,-4.3239,-4.4289,0.0,0.0,0.0,0.0,0.0,0.0,-4.8869,-4.9049,-4.9133,-4.9214,-4.9214,-4.9214,-4.9195,-4.923,-4.9211,-4.9211,-4.9292,-4.9352,-4.9415,-4.9525,-4.9608,-4.9623,-4.9663,-4.932,-4.8672,-4.8672,-4.8234,-4.7409,-4.6651,-4.6341,-4.6231,-4.554,-4.5303,-4.5348,-4.5523,-4.5594,-4.5603,-4.5603,-4.5657,-4.5714,-4.5791,-4.5807,-4.5834,-4.5949,-4.5415,-4.4785,-4.4861,-4.4238,-4.359,-4.365,-4.3029,-4.2361,-4.2379,-4.1749,-4.1161,-4.1163,-4.1129,-4.1095,-4.1106,-4.1091,-4.1092,-4.1092,-4.1094,-4.1092,-4.1091,-4.1109,-4.1107,-4.1107,-4.1102,-4.1098,-4.1098,-4.1104,-4.1094,-4.1092,-4.1037,-4.1003,-4.1006,-4.0924,-4.0864,-4.0807,-4.0792,-4.0764,-4.07,-4.0694,-4.0661,-4.0607,-4.0603,-4.0565,-4.0489,-4.0479,-4.0432,-3.7749,-3.8516,-3.9255,-4.006,-4.0282,-4.027,-4.0215,-4.0118,-4.0026,-3.9922,-3.9804,-3.967,0.0,0.0,0.0,-3.9405,-4.0755,0.0,-4.1801,-4.3239,0.0,-4.4289,0.0,-4.6458,-4.6663,-4.7988,0.0,0.0,-4.9211,-4.9214,-4.9276,-4.9276,-4.9308,-4.9352,-4.9452,-4.9498,-4.9498,-4.9574,-4.9619,-4.9615,-4.9663,-4.9663,-4.9678,-4.975,-4.9665,-4.9504,-4.9595,-4.9187,-4.8435,-4.8295,-4.7512,-4.6434,-4.6238,-4.5906,-4.5523,-4.5577,-4.5637,-4.5684,-4.5727,-4.5749,-4.5783,-4.5793,-4.588,-4.5968,-4.5994,-4.5885,-4.5755,-4.5769,-4.518,-4.4545,-4.4552,-4.3955,-4.3334,-4.3336,-4.2687,-4.2077,-4.2062,-4.1569,-4.1108,-4.1091,-4.1093,-4.1093,-4.1093,-4.1091,-4.1108,-4.1103,-4.1101,-4.1101,-4.1101,-4.1099,-4.1094,-4.1103,-4.1095,-4.1083,-4.1034,-4.101,-4.0976,-4.0939,-4.0864,-4.0812,-4.0792,-4.0758,-4.0713,-4.07,-4.0646,-4.061,-4.0603,-4.0554,-4.0515,-4.0499,-4.0405,-4.0307,-3.8069,-3.8855,-3.9638,-4.0419,-4.0481,-4.0366,-4.0307,-4.0215,-4.0109,-4.0015,-3.9911,0.0,-3.9658,-3.9613,0.0,0.0,0.0,0.0,-4.1935,-4.309,-4.4037,0.0,-4.5496,0.0,-4.6783,-4.8028,-4.9008,0.0,-4.9387,-4.934,-4.9464,-4.948,-4.9495,-4.954,-4.9604,-4.9648,-4.9678,-4.9721,-4.9764,-4.9788,-4.9835,-4.983,-4.983,-4.9898,-4.9925,-4.9939,-5.0044,-4.9829,-4.9384,-4.9065,-4.8442,-4.7575,-4.6891,-4.6426,-4.6095,-4.5797,-4.5708,-4.5749,-4.5826,-4.5861,-4.5899,-4.5899,-4.5935,-4.6005,-4.6076,-4.6108,-4.613,-4.6135,-4.5829,-4.5481,-4.551,-4.4904,-4.4276,-4.4261,-4.3609,-4.2973,-4.2976,-4.2592,-4.2245,-4.2246,-4.2245,-4.2242,-4.2242,-4.2239,-4.2118,-4.1724,-4.168,-4.1539,-4.1148,-4.1109,-4.1103,-4.1107,-4.1076,-4.1039,-4.0994,-4.0976,-4.0948,-4.0893,-4.0807,-4.0756,-4.0758,-4.0688,-4.0666,-4.0653,-4.0629,-4.0592,-4.0554,-4.0526,-4.0466,-4.0405,-4.0307,-4.0243,-3.8084,-3.8889,-3.9682,-4.0429,-4.0564,-4.0473,-4.043,-4.0307,-4.0187,-4.0128,0.0,-3.99,-3.9826,-3.9758,-3.9712,-3.9701,0.0,-4.1278,-4.2089,-4.2894,-4.3694,-4.4448,-4.5242,-4.6068,-4.6943,-4.7809,-4.8696,-4.965,-4.9555,-4.954,-4.9707,-4.9707,-4.9721,-4.9721,-4.9721,-4.9764,-4.9835,-4.9835,-4.9857,-4.9939,-4.9992,-5.0031,-5.0031,-5.0095,-5.012,-5.0133,-5.0207,-5.0224,-5.0197,-4.9492,-4.9196,-4.9011,-4.7549,-4.6924,-4.6756,-4.6059,-4.5817,-4.5821,-4.5887,-4.5955,-4.6002,-4.6002,-4.6007,-4.6052,-4.6154,-4.6204,-4.6206,-4.6203,-4.6217,-4.6233,-4.6284,-4.5748,-4.5171,-4.5178,-4.4503,-4.3863,-4.3865,-4.3788,-4.3691,-4.3709,-4.3706,-4.3702,-4.3702,-4.3697,-4.3438,-4.2698,-4.2471,-4.2126,-4.1361,-4.1166,-4.1105,-4.1091,-4.1022,-4.1003,-4.0997,-4.0928,-4.0883,-4.0872,-4.0756,-4.0694,-4.0694,-4.0621,-4.0605,-4.058,-4.0592,-4.0554,-4.0493,-4.0458,-4.0396,-4.0298,-4.0215,-4.0177,-3.8145,-3.8935,-3.9682,-4.0488,-4.0581,-4.0489,-4.0492,-4.0375,0.0,0.0,-4.0118,-4.0026,-3.99,-3.9826,-3.977,-3.9712,0.0,0.0,0.0,0.0,-4.3767,0.0,0.0,0.0,-4.708,-4.7891,0.0,0.0,-4.975,-4.975,-4.9778,-4.9778,-4.9821,-4.9871,-4.9871,-4.9898,-4.9965,-4.9965,-5.0005,-5.007,-5.0082,-5.012,-5.0163,-5.0194,-5.02,-5.0267,-5.0344,-5.0412,-5.0448,-5.0368,-4.996,-4.9336,-4.8334,-4.7587,-4.6955,-4.6107,-4.584,-4.588,-4.5953,-4.5986,-4.6002,-4.6002,-4.6066,-4.6177,-4.6185,-4.6206,-4.6203,-4.6201,-4.6233,-4.6284,-4.6296,-4.6188,-4.6078,-4.6064,-4.5405,-4.4764,-4.4765,-4.4218,-4.3706,-4.3705,-4.37,-4.3696,-4.3696,-4.3705,-4.3656,-4.35,-4.2865,-4.232,-4.212,-4.1504,-4.1078,-4.1022,-4.1009,-4.0972,-4.0915,-4.0859,-4.0782,-4.0744,-4.0713,-4.0674,-4.0621,-4.0598,-4.0561,-4.0523,-4.0523,-4.0474,-4.0424,-4.0307,-4.0233,-4.0215,-4.0138,-4.0087,-3.7615,-3.8311,-3.9007,-3.9313,-3.9696,-3.9957,-3.988,0.0,0.0,0.0,-4.0225,-4.0128,-4.0067,0.0,0.0,0.0,0.0,0.0,0.0,0.0,0.0,0.0,0.0,0.0,0.0,-4.7717,-4.8528,-4.9857,-4.9952,-4.9925,-4.9857,-4.9885,-4.9939,-5.0005,-4.9986,-5.0031,-5.0057,-5.0095,-5.0114,-5.0158,-5.0219,-5.0267,-5.0302,-5.0371,-5.0435,-5.0468,-5.0534,-5.0566,-5.0615,-5.0683,-5.0508,-5.0053,-4.8784,-4.8099,-4.7622,-4.6325,-4.5893,-4.596,-4.5986,-4.6056,-4.6098,-4.6098,-4.6142,-4.6208,-4.6196,-4.6217,-4.6248,-4.6255,-4.6288,-4.6302,-4.6306,-4.6295,-4.6303,-4.6306,-4.5976,-4.5683,-4.5682,-4.5345,-4.5047,-4.5047,-4.5042,-4.5054,-4.5051,-4.5041,-4.4894,-4.4392,-4.3969,-4.352,-4.2992,-4.2183,-4.1494,-4.1011,-4.0941,-4.0926,-4.0908,-4.0801,-4.073,-4.07,-4.0668,-4.0631,-4.0598,-4.0577,-4.0538,-4.0495,-4.043,-4.037,-4.0298,-4.0225,-4.0177,-4.0138,-4.0087,-4.0036,-3.7088,-3.7615,-3.8136,-3.8222,-3.8739,-3.9186,-3.9102,-3.9675,0.0,0.0,-4.0208,-4.0243,-4.0234,0.0,-4.0138,0.0,-4.0077,0.0,0.0,0.0,0.0,0.0,0.0,0.0,-4.7277,-4.7535,0.0,-4.9987,-5.0133,-5.0082,-4.9952,-5.0005,-5.0057,-5.012,-5.012,-5.0133,-5.017,-5.0243,-5.0259,-5.029,-5.0393,-5.0448,-5.0459,-5.0573,-5.0624,-5.0653,-5.0702,-5.0729,-5.0747,-5.081,-5.0836,-5.0726,-4.9262,-4.8595,-4.8241,-4.6758,-4.6119,-4.6012,-4.6047,-4.6106,-4.6199,-4.6213,-4.6213,-4.6196,-4.6223,-4.6258,-4.6306,-4.629,-4.6303,-4.6294,-4.6297,-4.6305,-4.6308,-4.6308,-4.6305,-4.63,-4.63,-4.6295,-4.629,-4.6308,-4.6302,-4.6294,-4.6279,-4.6275,-4.6011,-4.5277,-4.5004,-4.4608,-4.3878,-4.285,-4.1917,-4.1223,-4.099,-4.0868,-4.0862,-4.075,-4.07,-4.0681,-4.0639,-4.06,-4.0585,-4.0542,-4.0485,-4.0441,-4.0325,-4.0262,-4.0168,-4.0167,-4.0118,-4.0067,-4.0005,-3.9965,-3.6985,-3.7203,-3.7413,-3.8179,-3.835,-3.8319,-3.8303,0.0,0.0,-3.9398,-3.9927,-4.0372,-4.0377,-4.0325,-4.0262,-4.0206,0.0,-4.0471,0.0,0.0,0.0,0.0,0.0,0.0,-4.7419,-4.7584,-4.8324,-5.0061,-5.0255,-5.0231,-5.0095,-5.0095,-5.012,-5.0175,-5.0188,-5.0255,-5.0379,-5.0446,-5.05,-5.0553,-5.0576,-5.0606,-5.0673,-5.0682,-5.071,-5.0784,-5.0793,-5.0836,-5.0882,-5.089,-5.0956,-5.0983,-5.004,-4.9188,-4.8379,-4.7509,-4.6706,-4.6105,-4.617,-4.6192,-4.6206,-4.627,-4.6253,-4.6206,-4.6279,-4.6303,-4.6308,-4.6306,-4.6291,-4.6297,-4.6307,-4.6308,-4.6308,-4.6305,-4.6299,-4.6294,-4.6294,-4.6308,-4.63,-4.631,-4.6306,-4.6279,-4.6215,-4.6216,-4.616,-4.6002,-4.5319,-4.4773,-4.4686,-4.3179,-4.2075,-4.1999,-4.1277,-4.0781,-4.0712,-4.0707,-4.0673,-4.061,-4.0595,-4.0577,-4.0518,-4.051,-4.0405,-4.0224,-4.0215,-4.0187,-4.0108,-4.0057,-4.0026,-3.9996,-3.987,-3.9815,-3.638,-3.6431,-3.6456,-3.6763,-3.7193,-3.7531,-3.7482,0.0,-3.8646,-3.8646,-3.9231,-3.9738,-3.9742,-4.0111,-4.0392,-4.0323,-4.0316,0.0,-4.1361,0.0,0.0,0.0,0.0,0.0,0.0,0.0,-4.8562,-5.0248,-5.0427,-5.0457,-5.0393,-5.0314,-5.0325,-5.0446,-5.0446,-5.047,-5.0525,-5.0586,-5.0635,-5.0654,-5.0692,-5.0729,-5.0766,-5.0799,-5.0833,-5.0858,-5.0945,-5.1002,-5.1012,-5.1012,-5.1053,-5.1023,-5.0177,-4.9328,-4.8466,-4.766,-4.6842,-4.6166,-4.6183,-4.6228,-4.6267,-4.6288,-4.6277,-4.6278,-4.6282,-4.6303,-4.6306,-4.6301,-4.6305,-4.6307,-4.6308,-4.6306,-4.6302,-4.6297,-4.6291,-4.6305,-4.6298,-4.6294,-4.6286,-4.6248,-4.6242,-4.6212,-4.616,-4.6138,-4.6111,-4.6051,-4.5745,-4.5509,-4.5477,-4.4375,-4.3382,-4.2815,-4.1551,-4.0739,-4.0707,-4.0666,-4.061,-4.0539,-4.0546,-4.0507,-4.0441,-4.0362,-4.0289,-4.0205,-4.0119,-4.0068,-4.0046,-3.9933,-3.987,-3.987,-3.9781,-3.9724,-3.5998,-3.5962,-3.5903,-3.5844,-3.6297,-3.6728,0.0,0.0,-3.7874,-3.7859,-3.8649,-3.9367,-3.9354,-4.0014,-4.0534,-4.0469,-4.0468,-4.0658,-4.1201,0.0,0.0,0.0,0.0,-4.5774,0.0,-4.7712,-4.8999,-5.0439,-5.0624,-5.0664,-5.0693,-5.0604,-5.0565,-5.0624,-5.0624,-5.0635,-5.0654,-5.0738,-5.0764,-5.0764,-5.0844,-5.0897,-5.0897,-5.0933,-5.0956,-5.0956,-5.1053,-5.1107,-5.1089,-5.1089,-5.1102,-5.1088,-5.0526,-4.9614,-4.855,-4.8015,-4.7134,-4.6196,-4.6217,-4.6255,-4.6292,-4.6305,-4.6294,-4.6299,-4.6301,-4.63,-4.6301,-4.6307,-4.6308,-4.6307,-4.6305,-4.6297,-4.6306,-4.6306,-4.628,-4.6271,-4.6262,-4.6277,-4.6267,-4.6203,-4.619,-4.615,-4.6087,-4.606,-4.6052,-4.598,-4.5941,-4.5918,-4.5886,-4.5077,-4.4184,-4.3267,-4.1877,-4.0938,-4.0686,-4.061,-4.0558,-4.05,-4.0491,-4.0432,-4.0344,-4.0243,-4.0187,-4.0139,-4.0058,-3.9975,-3.9943,-3.9848,-3.9792,-3.977,-3.9689,-3.9575,-3.5993,-3.6008,-3.598,-3.5914,-3.5916,-3.5897,0.0,-3.6487,-3.7097,-3.7026,-3.8336,-3.9492,-3.9508,-4.0165,-4.0687,-4.0614,-4.0591,-4.0573,-4.0516,0.0,0.0,0.0,0.0,-4.5914,-4.6724,-4.8365,-4.9748,-5.0634,-5.0766,-5.0838,-5.0899,-5.0899,-5.0838,-5.0701,-5.0701,-5.072,-5.0801,-5.0858,-5.0898,-5.0898,-5.1039,-5.1094,-5.1094,-5.1094,-5.1094,-5.1094,-5.1094,-5.1102,-5.1099,-5.1099,-5.1139,-5.1191,-5.1258,-5.0228,-4.8705,-4.8766,-4.7694,-4.6211,-4.6273,-4.63,-4.6303,-4.6299,-4.6305,-4.6307,-4.6308,-4.6308,-4.6307,-4.6308,-4.6305,-4.6293,-4.6293,-4.6302,-4.6306,-4.6306,-4.6255,-4.6209,-4.6209,-4.6195,-4.62,-4.6203,-4.6146,-4.6084,-4.6012,-4.6,-4.5986,-4.5917,-4.5835,-4.5807,-4.5807,-4.4974,-4.4076,-4.3196,-4.2302,-4.1466,-4.0665,-4.0539,-4.0492,-4.051,-4.0432,-4.0344,-4.0205,-4.0205,-4.0139,-4.0007,-3.9996,-3.9924,-3.9804,-3.9804,-3.977,-3.9689,-3.9563,-3.9401,-3.5994,-3.5996,-3.5991,-3.5964,-3.5929,-3.5888,-3.587,-3.6086,-3.6261,-3.6248,-3.7113,-3.8045,-3.8645,-3.9412,-4.012,-4.0659,-4.0739,-4.0713,0.0,0.0,0.0,0.0,-4.4638,-4.5995,0.0,0.0,-4.9013,-4.9876,-5.0554,-5.096,-5.0968,-5.101,-5.1002,-5.0909,-5.0909,-5.0945,-5.101,-5.1032,-5.1039,-5.1039,-5.1087,-5.1101,-5.1101,-5.1108,-5.1089,-5.1094,-5.1157,-5.1167,-5.1166,-5.1225,-5.1244,-5.1263,-5.1281,-5.0263,-4.8769,-4.8791,-4.7732,-4.6275,-4.6291,-4.63,-4.6303,-4.6307,-4.6308,-4.6308,-4.6306,-4.6307,-4.6308,-4.6303,-4.6291,-4.6294,-4.6294,-4.6264,-4.6233,-4.6233,-4.6223,-4.6209,-4.6196,-4.6153,-4.6119,-4.608,-4.6042,-4.6005,-4.5947,-4.5931,-4.5919,-4.5848,-4.5819,-4.5776,-4.5746,-4.5436,-4.4897,-4.4014,-4.3101,-4.1972,-4.0572,-4.0444,-4.0386,-4.0298,-4.028,-4.0225,-4.0147,-4.0089,-4.0048,-3.9996,-3.9922,-3.9837,-3.9804,-3.9762,-3.9644,-3.9427,-3.9285,-3.917,0.0,-3.5757,-3.5996,-3.5996,-3.5973,0.0,0.0,-3.5946,-3.5933,-3.5899,-3.6565,-3.7404,-3.8233,-3.9088,-3.9908,-4.0704,-4.0842,-4.0818,0.0,0.0,0.0,0.0,0.0,0.0,0.0,-4.7857,-4.8735,-4.9616,-5.0528,-5.1034,-5.1048,-5.1088,-5.1082,-5.1069,-5.1048,-5.1053,-5.1101,-5.1095,-5.1101,-5.1101,-5.1128,-5.114,-5.114,-5.1138,-5.1142,-5.1139,-5.121,-5.1235,0.0,-5.1284,-5.132,-5.1308,-5.0976,-5.0012,-4.8767,-4.8466,-4.7482,-4.6296,-4.6304,-4.6307,-4.6308,-4.6307,-4.6284,-4.6257,-4.6251,-4.6274,-4.6299,-4.6264,-4.6251,-4.6258,-4.6258,-4.6226,-4.6189,-4.6189,-4.6187,-4.6162,-4.6166,-4.6108,-4.6047,-4.6011,-4.5972,-4.5931,-4.588,-4.586,-4.5845,-4.5771,-4.5765,-4.5746,-4.566,-4.5593,-4.5223,-4.4314,-4.3406,-4.2306,-4.0889,-4.0497,-4.0289,-4.0205,-4.0187,-4.0128,-4.0067,-4.0017,-3.9975,-3.9933,-3.9837,-3.98,-3.9754,-3.9662,-3.9483,-3.9219,-3.9115,-3.8993,0.0,-3.5186,0.0,0.0,0.0,0.0,-3.5994,-3.5992,0.0,-3.5919,-3.6553,-3.7383,-3.824,-3.9071,-3.9906,-4.0766,-4.0912,-4.0912,0.0,0.0,0.0,0.0,-4.5912,0.0,-4.7036,-4.7908,-4.8781,-4.966,-5.0532,-5.105,-5.1108,-5.1108,-5.1138,-5.1194,-5.1146,-5.1114,-5.1114,-5.1108,-5.1108,-5.1108,-5.1167,-5.1194,-5.1219,-5.1201,-5.1215,-5.122,-5.1263,-5.1308,-5.1308,-5.131,-5.1346,-5.1305,-5.043,-4.9579,-4.8702,-4.7899,-4.7047,-4.6308,-4.6308,-4.6308,-4.6285,-4.6295,-4.6241,-4.6204,-4.6209,-4.6243,-4.6275,-4.6214,-4.6206,-4.6203,-4.6184,-4.618,-4.6192,-4.6192,-4.6145,-4.6095,-4.6095,-4.6049,-4.5986,-4.5986,-4.5932,-4.588,-4.58,-4.5791,-4.5765,-4.5708,-4.5706,-4.5665,-4.5594,-4.5522,-4.517,-4.4269,-4.3407,-4.2487,-4.1569,-4.0683,-4.0196,-4.0187,-4.0138,-4.0057,-3.9996,-3.9986,-3.9933,-3.9804,-3.9792,-3.9743,-3.9681,-3.9546,-3.9328,-3.9087,-3.9007,-3.8866,-3.2474,0.0,-3.5094,-3.5765,-3.5957,-3.6009,0.0,-3.5995,-3.5996,0.0,0.0,0.0,-3.8209,-3.8634,-3.9279,-4.0817,-4.1013,-4.0972,-4.0975,0.0,0.0,-4.5786,-4.5975,-4.6078,-4.6337,-4.7095,-4.7955,-4.8895,-4.977,-5.0533,-5.1141,-5.118,-5.1185,-5.1201,-5.118,-5.1189,-5.1189,-5.1175,-5.118,-5.118,-5.1196,-5.123,-5.1273,-5.1278,-5.128,-5.1273,-5.1296,-5.1336,-5.1383,-5.1377,-5.139,-5.1304,-5.0433,-4.96,-4.8765,-4.7929,-4.7051,-4.6305,-4.6301,-4.6273,-4.622,-4.6225,-4.6216,-4.6209,-4.62,-4.6215,-4.6214,-4.6195,-4.62,-4.6187,-4.6134,-4.6111,-4.6126,-4.6128,-4.6076,-4.6021,-4.6019,-4.5931,-4.5841,-4.5841,-4.5786,-4.5746,-4.5739,-4.5723,-4.5727,-4.5706,-4.5709,-4.5648,-4.555,-4.5457,-4.5323,-4.5041,-4.4196,-4.3274,-4.2394,-4.0966,-4.0089,-4.0058,-4.0027,-3.9986,-3.9922,-3.987,-3.9826,-3.9804,-3.9647,-3.9557,-3.9546,-3.9315,-3.912,-3.8935,-3.884,-3.8655,-3.1681,-3.3165,-3.4717,-3.519,-3.563,-3.5947,-3.5955,0.0,0.0,0.0,0.0,0.0,0.0,0.0,0.0,-4.0826,-4.1069,0.0,0.0,0.0,0.0,-4.5894,-4.6089,-4.6113,-4.6145,-4.6865,-4.7566,-4.8066,-4.8903,-4.9584,-5.0032,-5.0426,-5.0644,-5.0653,-5.1046,-5.1252,-5.1249,-5.1249,-5.1254,-5.1243,-5.1256,-5.1269,-5.13,-5.1339,-5.1359,-5.1355,-5.135,-5.1364,-5.1396,-5.1408,-5.1161,-5.0715,-4.9841,-4.9003,-4.8203,-4.7322,-4.6692,-4.6293,-4.6266,-4.623,-4.6206,-4.6192,-4.6203,-4.619,-4.6162,-4.6142,-4.615,-4.615,-4.6154,-4.6154,-4.6102,-4.6075,-4.6042,-4.6046,-4.5983,-4.5911,-4.5912,-4.5821,-4.5749,-4.5749,-4.5719,-4.57,-4.5703,-4.5695,-4.5679,-4.5631,-4.5614,-4.5568,-4.5467,-4.5409,-4.532,-4.5256,-4.4416,-4.3493,-4.2634,-4.1366,-4.0433,-4.0034,-3.9965,-3.9922,-3.9867,-3.9815,-3.977,-3.9658,-3.9564,-3.9426,-3.9315,-3.9156,-3.9007,-3.881,-3.8719,-3.858,-3.1264,-3.289,-3.4392,-3.4538,-3.5223,-3.5883,-3.5875,0.0,0.0,0.0,0.0,0.0,0.0,0.0,0.0,0.0,0.0,0.0,-4.3373,-4.3623,-4.4267,-4.5979,-4.6193,-4.6193,-4.6193,-4.6814,-4.7278,-4.7411,-4.8093,-4.856,-4.8716,-4.9422,-4.9822,-4.9819,-5.0521,-5.092,-5.093,-5.1176,-5.132,-5.1316,-5.1314,-5.1327,-5.133,-5.1374,-5.1406,-5.139,-5.1407,-5.1316,-5.1201,-5.1208,-5.0683,-4.9824,-4.8944,-4.82,-4.7475,-4.6606,-4.6284,-4.6273,-4.6221,-4.6198,-4.617,-4.6176,-4.6177,-4.6173,-4.6113,-4.609,-4.6071,-4.6066,-4.6081,-4.6085,-4.6075,-4.6019,-4.598,-4.5968,-4.588,-4.5793,-4.5786,-4.5734,-4.57,-4.57,-4.5692,-4.5676,-4.5665,-4.5657,-4.5631,-4.5504,-4.5485,-4.5467,-4.5389,-4.5328,-4.5265,-4.5181,-4.4471,-4.3567,-4.2557,-4.1779,-4.0953,-4.0011,-3.9911,-3.9856,-3.977,-3.9739,-3.9658,-3.9489,-3.9458,-3.9328,-3.9101,-3.9059,-3.8906,-3.8658,-3.8661,-3.8501,-3.0465,-3.1842,-3.3436,-3.422,-3.5119,-3.5817,-3.5817,0.0,0.0,0.0,0.0,0.0,0.0,0.0,0.0,0.0,0.0,-4.1703,0.0,0.0,-4.4302,-4.5998,0.0,-4.6193,-4.6193,-4.631,-4.6696,-4.7426,-4.7601,-4.8008,-4.875,-4.8906,-4.8969,-4.8981,-4.912,-4.9181,-4.9189,-5.0655,-5.1386,-5.1389,-5.1381,-5.1373,-5.1382,-5.1405,-5.1393,-5.1402,-5.1403,-5.0976,-5.0293,-5.0292,-4.9782,-4.8916,-4.8094,-4.7676,-4.7409,-4.6546,-4.6219,-4.6212,-4.6199,-4.615,-4.6111,-4.6126,-4.6113,-4.6105,-4.6042,-4.6011,-4.6003,-4.595,-4.5974,-4.5997,-4.5944,-4.5925,-4.59,-4.5838,-4.581,-4.5788,-4.5731,-4.5703,-4.569,-4.569,-4.5637,-4.5603,-4.5531,-4.5522,-4.5504,-4.5429,-4.5419,-4.5389,-4.5328,-4.5265,-4.517,-4.5038,-4.4889,-4.4139,-4.2479,-4.221,-4.1449,-3.9841,-3.9781,-3.9728,-3.9544,-3.9551,-3.9508,-3.9425,-3.9242,-3.9129,-3.9101,-3.8881,-3.8686,-3.8525,-3.8419,-3.8307,-3.0166,-3.1513,-3.2993,-3.3467,-3.4681,-3.576,-3.5788,0.0,0.0,0.0,0.0,0.0,0.0,0.0,-4.0097,-4.0969,0.0,-4.1718,-4.3453,-4.3706,-4.4349,-4.6045,-4.6259,-4.6258,-4.6255,-4.6255,-4.6429,-4.6816,-4.6855,-4.703,-4.7439,-4.7907,-4.8143,-4.8146,-4.858,-4.8798,-4.8801,-4.9622,-5.0048,-5.0056,-5.0005,-5.0009,-5.0051,-5.0016,-4.9999,-5.0,-4.9999,-4.9762,-4.9406,-4.94,-4.8885,-4.8058,-4.7699,-4.7238,-4.6733,-4.6303,-4.6144,-4.6158,-4.6158,-4.6137,-4.6095,-4.6061,-4.6056,-4.603,-4.596,-4.5925,-4.5887,-4.5852,-4.588,-4.5887,-4.5852,-4.5824,-4.5783,-4.5746,-4.5754,-4.5738,-4.5714,-4.5673,-4.564,-4.5594,-4.5568,-4.5522,-4.5467,-4.5458,-4.5419,-4.537,-4.5309,-4.5275,-4.5192,-4.5103,-4.5003,-4.4943,-4.487,-4.4127,-4.2384,-4.2252,-4.1522,-3.9814,-3.9647,-3.9599,-3.9495,-3.9401,-3.9304,-3.9248,-3.912,-3.8993,-3.8881,-3.8765,-3.8596,-3.8385,-3.8322,-3.8241,-3.0289,-3.1534,-3.2809,-3.3089,0.0,-3.5679,-3.5732,0.0,0.0,0.0,0.0,0.0,0.0,-3.9494,0.0,-4.0998,-4.1105,-4.1715,-4.3455,-4.3691,-4.4355,-4.6094,-4.6308,-4.6308,-4.6307,-4.6307,-4.6306,-4.6306,-4.6306,-4.6306,-4.6306,-4.693,-4.7301,-4.7302,-4.7889,-4.8203,-4.8203,-4.826,-4.8496,-4.8883,-4.8827,-4.8828,-4.8867,-4.8826,-4.8803,-4.8802,-4.8793,-4.8688,-4.8507,-4.8508,-4.7972,-4.7164,-4.717,-4.6765,-4.6164,-4.6115,-4.6087,-4.608,-4.608,-4.6081,-4.6046,-4.6,-4.5972,-4.5931,-4.5893,-4.5826,-4.5771,-4.5792,-4.5781,-4.5776,-4.5785,-4.5735,-4.5711,-4.5676,-4.5671,-4.5665,-4.5648,-4.5603,-4.5559,-4.5495,-4.5476,-4.5467,-4.54,-4.536,-4.5328,-4.5235,-4.517,-4.5114,-4.5045,-4.4919,-4.4846,-4.4846,-4.4751,-4.3994,-4.2272,-4.177,-4.0973,-3.9669,-3.9489,-3.9427,-3.9414,-3.9232,-3.9115,-3.9031,-3.8964,-3.8837,-3.8658,-3.8611,-3.8501,-3.8307,-3.8239,-3.8156,-3.0909,-3.186,-3.2817,-3.3704,-3.4712,0.0,-3.5602,-3.5659,0.0,-3.675,0.0,0.0,0.0,-4.0337,-4.0947,-4.1076,-4.1099,-4.1716,-4.3455,-4.3699,-4.4348,-4.6082,-4.6301,-4.6303,-4.6303,-4.6303,-4.6305,-4.6307,-4.6307,-4.6307,-4.6307,-4.6366,-4.6385,-4.6382,-4.6459,-4.6477,-4.6472,-4.6471,-4.7277,-4.8807,-4.8801,-4.8797,-4.8816,-4.8808,-4.8798,-4.8808,-4.8806,-4.8343,-4.7593,-4.7593,-4.7047,-4.6197,-4.6193,-4.6162,-4.6102,-4.6102,-4.6071,-4.6007,-4.6007,-4.5969,-4.5917,-4.5899,-4.5867,-4.5807,-4.581,-4.5765,-4.5708,-4.5706,-4.5709,-4.5717,-4.5709,-4.5709,-4.5673,-4.5612,-4.5622,-4.5586,-4.5522,-4.5504,-4.5495,-4.5419,-4.5409,-4.5398,-4.5328,-4.5265,-4.517,-4.5045,-4.4955,-4.4895,-4.4821,-4.4745,-4.4706,-4.4706,-4.4646,-4.3874,-4.2064,-4.0499,-3.9498,-3.9237,-3.9224,-3.9197,-3.9142,-3.9064,-3.895,-3.8818,-3.8765,-3.864,-3.851,-3.8387,-3.8323,-3.8307,-3.8104,-3.8018,-3.0843,-3.1762,-3.2724,-3.3738,-3.4665,0.0,0.0,-3.5556,-3.5828,-3.6745,-3.7651,0.0,0.0,0.0,-4.1009,-4.1022,-4.1496,-4.2271,-4.3528,-4.414,-4.4887,-4.6101,-4.6241,-4.6246,-4.6231,-4.6231,-4.6233,-4.6235,-4.6235,-4.6235,-4.6235,-4.6235,-4.6234,-4.6231,-4.6246,-4.6241,-4.6238,-4.6245,-4.6555,-4.7188,-4.7174,-4.7173,-4.7186,-4.7175,-4.7179,-4.7184,-4.7135,-4.6927,-4.6637,-4.6625,-4.6415,-4.6106,-4.6056,-4.6037,-4.6027,-4.5991,-4.5964,-4.5941,-4.5943,-4.5886,-4.5841,-4.5845,-4.5783,-4.5746,-4.5746,-4.5722,-4.5698,-4.5648,-4.564,-4.564,-4.564,-4.5614,-4.5568,-4.5531,-4.5504,-4.5476,-4.5438,-4.5448,-4.5409,-4.536,-4.5298,-4.5235,-4.5136,-4.5068,-4.4979,-4.4883,-4.4827,-4.4776,-4.4751,-4.4646,-4.4584,-4.4584,-4.3521,-4.2516,-4.1824,-4.0151,-3.911,-3.9021,-3.9087,-3.9087,-3.8979,-3.8866,-3.8747,-3.8621,-3.8544,-3.8483,-3.8387,-3.8322,-3.8239,-3.8104,-3.8053,-3.7932,-3.112,-3.2043,-3.3021,0.0,0.0,0.0,-3.5367,-3.5443,-3.5811,-3.6993,-3.8187,0.0,-4.0645,0.0,0.0,0.0,-4.1724,-4.262,-4.3545,-4.4376,-4.5223,-4.6064,-4.6189,-4.6197,-4.6201,-4.6201,-4.6201,-4.6201,-4.6201,-4.6204,-4.6208,-4.6204,-4.6204,-4.6208,-4.6197,-4.6187,-4.6162,-4.6161,-4.6167,-4.616,-4.6164,-4.6173,-4.6167,-4.6167,-4.6173,-4.6177,-4.6127,-4.6095,-4.6106,-4.6084,-4.6066,-4.6027,-4.5991,-4.5969,-4.5953,-4.5911,-4.588,-4.588,-4.5873,-4.5819,-4.5764,-4.5765,-4.5746,-4.5695,-4.5657,-4.564,-4.5631,-4.5559,-4.555,-4.555,-4.555,-4.5513,-4.5495,-4.5457,-4.5429,-4.539,-4.5361,-4.5339,-4.5307,-4.5213,-4.5148,-4.508,-4.4955,-4.487,-4.4808,-4.4751,-4.4699,-4.4659,-4.4619,-4.4524,-4.4444,-4.4354,-4.2961,-4.188,-4.1575,-4.0178,-3.9154,-3.8807,-3.8859,-3.8873,-3.8788,-3.867,-3.8546,-3.8449,-3.8401,-3.8338,-3.8274,-3.8241,-3.8121,-3.8001,-3.7932,-3.781,-3.1869,-3.2825,0.0,0.0,0.0,0.0,-3.5185,-3.5304,-3.5914,-3.7653,-3.9451,-4.0725,-4.0788,-4.0853,0.0,-4.0907,-4.1703,-4.263,-4.349,-4.4354,-4.5212,-4.6018,-4.6164,-4.6196,-4.6199,-4.6196,-4.6196,-4.6196,-4.6196,-4.6206,-4.6203,-4.6206,-4.6206,-4.6203,-4.6206,-4.6169,-4.6111,-4.6107,-4.6099,-4.6093,-4.6093,-4.6106,-4.6107,-4.6106,-4.6098,-4.6093,-4.6093,-4.6099,-4.6095,-4.6032,-4.5964,-4.5911,-4.5911,-4.5906,-4.59,-4.59,-4.5852,-4.5807,-4.5807,-4.5758,-4.57,-4.5698,-4.5701,-4.5665,-4.5531,-4.5504,-4.5485,-4.5419,-4.54,-4.54,-4.54,-4.5438,-4.5476,-4.5409,-4.5408,-4.5348,-4.5243,-4.5192,-4.5159,-4.5014,-4.4943,-4.487,-4.4808,-4.4732,-4.4685,-4.4605,-4.4592,-4.4551,-4.4411,-4.4397,-4.4277,-4.4036,-4.3222,-4.2282,-4.1293,-4.0452,-3.958,-3.8546,-3.851,-3.851,-3.851,-3.843,-3.8368,-3.8307,-3.8307,-3.8257,-3.8209,-3.8053,-3.8001,-3.7984,-3.7792,-3.7649,-3.1848,-3.2795,0.0,-3.468,0.0,0.0,0.0,-3.6107,0.0,0.0,-3.9832,-4.0647,-4.0713,-4.0756,-4.0984,-4.165,-4.2529,-4.3451,-4.4316,-4.5187,-4.5827,-4.6067,-4.6119,-4.6123,-4.6138,-4.6134,-4.6134,-4.6134,-4.6134,-4.6138,-4.6127,-4.6138,-4.6138,-4.6127,-4.6138,-4.6115,-4.6106,-4.6056,-4.6032,-4.6022,-4.5986,-4.6002,-4.6099,-4.6095,-4.6071,-4.6035,-4.6035,-4.6,-4.5953,-4.5941,-4.5911,-4.5893,-4.5848,-4.5833,-4.5817,-4.5769,-4.5746,-4.5723,-4.573,-4.5714,-4.569,-4.5648,-4.5594,-4.5559,-4.5513,-4.5476,-4.5438,-4.5409,-4.5409,-4.537,-4.5279,-4.5237,-4.5227,-4.5317,-4.5213,-4.5114,-4.508,-4.4998,-4.4907,-4.4858,-4.4815,-4.4751,-4.4672,-4.4605,-4.4537,-4.4468,-4.4411,-4.4325,-4.4143,-4.4113,-4.402,-4.3747,-4.2947,-4.2022,-4.1062,-4.0209,-3.9323,-3.8425,-3.837,-3.837,-3.837,-3.8338,-3.8307,-3.8242,-3.8139,-3.8087,-3.8053,-3.7968,-3.788,-3.7792,-3.7685,-3.7577,-3.2291,0.0,0.0,0.0,-3.4908,-3.5296,-3.6576,0.0,0.0,0.0,-3.9942,-4.0569,-4.0602,-4.0662,-4.1009,-4.1914,-4.2851,-4.3762,-4.4646,-4.5512,-4.6047,-4.6017,-4.6037,-4.6061,-4.6052,-4.6061,-4.6066,-4.6066,-4.6066,-4.6071,-4.6099,-4.6061,-4.6056,-4.6066,-4.6027,-4.6017,-4.6017,-4.5986,-4.5964,-4.5964,-4.5929,-4.5935,-4.6014,-4.6025,-4.5994,-4.5955,-4.5962,-4.5912,-4.5867,-4.5867,-4.5847,-4.5812,-4.5791,-4.5754,-4.5754,-4.5711,-4.5679,-4.5627,-4.562,-4.5594,-4.5577,-4.5522,-4.5495,-4.5467,-4.5419,-4.539,-4.5341,-4.5256,-4.5235,-4.5213,-4.5114,-4.5026,-4.5022,-4.5114,-4.5033,-4.4907,-4.4883,-4.4827,-4.4732,-4.4699,-4.4646,-4.4592,-4.4496,-4.4458,-4.4416,-4.4373,-4.4252,-4.4147,-4.402,-4.3894,-4.3749,-4.358,-4.3023,-4.2279,-4.1371,-4.0517,-3.9666,-3.8784,-3.8387,-3.8189,-3.8189,-3.8189,-3.8156,-3.8122,-3.802,-3.795,-3.795,-3.7863,-3.7775,-3.7703,-3.7577,-3.743,-3.2966,0.0,0.0,0.0,-3.4971,0.0,-3.7224,-3.843,-3.9197,-3.9206,0.0,-4.0489,-4.0496,-4.0595,-4.101,-4.1944,-4.2833,-4.3703,-4.4672,-4.5477,-4.5955,-4.5911,-4.5958,-4.6,-4.5991,-4.5994,-4.5991,-4.5991,-4.5991,-4.6021,-4.6085,-4.6019,-4.5983,-4.5991,-4.5922,-4.5911,-4.5911,-4.5886,-4.588,-4.588,-4.5873,-4.5874,-4.5886,-4.5886,-4.5899,-4.5893,-4.588,-4.5845,-4.5773,-4.5773,-4.575,-4.5692,-4.5692,-4.5679,-4.5665,-4.5665,-4.5605,-4.5495,-4.5485,-4.5457,-4.54,-4.539,-4.539,-4.5361,-4.5309,-4.5286,-4.5224,-4.5038,-4.4998,-4.4955,-4.4895,-4.4821,-4.4802,-4.4846,-4.4821,-4.4757,-4.4699,-4.4685,-4.4632,-4.4515,-4.4487,-4.4444,-4.4314,-4.4285,-4.4285,-4.427,-4.4101,-4.3974,-4.3958,-4.3699,-4.3497,-4.348,-4.3304,-4.285,-4.196,-4.1197,-4.0381,-3.9441,-3.8577,-3.8074,-3.7984,-3.7984,-3.7984,-3.7984,-3.7916,-3.7881,-3.7881,-3.7739,-3.7667,-3.7667,-3.7449,-3.7279,-3.2955,-3.3899,0.0,0.0,0.0,-3.6994,-3.7481,-3.8833,-3.9986,-4.003,-4.0245,-4.0447,-4.0481,-4.0527,-4.1072,-4.2674,-4.3109,-4.3794,-4.5341,-4.5717,-4.5867,-4.5906,-4.5906,-4.5918,-4.5917,-4.5923,-4.591,-4.591,-4.591,-4.5935,-4.5941,-4.5929,-4.5923,-4.591,-4.5917,-4.5911,-4.5911,-4.5854,-4.5827,-4.5827,-4.5771,-4.5734,-4.5746,-4.5847,-4.588,-4.5824,-4.5761,-4.5696,-4.5648,-4.5648,-4.5599,-4.5549,-4.5549,-4.5522,-4.5457,-4.5457,-4.5438,-4.5419,-4.5419,-4.5409,-4.5399,-4.5329,-4.5288,-4.5246,-4.5224,-4.5148,-4.5038,-4.4943,-4.487,-4.4821,-4.4745,-4.4699,-4.4632,-4.4592,-4.4619,-4.4619,-4.457,-4.4496,-4.444,-4.4358,-4.4344,-4.4329,-4.43,-4.4259,-4.4169,-4.4011,-4.3899,-4.3786,-4.3615,-4.3531,-4.3428,-4.3196,-4.316,-4.2741,-4.1814,-4.1542,-4.08,-3.9318,-3.8995,-3.8582,-3.7952,-3.7916,-3.7916,-3.7916,-3.7792,-3.7739,-3.7739,-3.7558,-3.7449,-3.7449,-3.7203,-3.7068,0.0,0.0,0.0,0.0,0.0,0.0,-3.7489,-3.8889,-4.0215,-4.0244,-4.0308,-4.036,-4.0411,-4.0433,-4.1046,-4.2861,-4.3158,-4.3766,-4.5507,-4.5754,-4.5776,-4.5798,-4.5838,-4.584,-4.5861,-4.5874,-4.5893,-4.5911,-4.5911,-4.5911,-4.5911,-4.5893,-4.5899,-4.5841,-4.5848,-4.5847,-4.5787,-4.5771,-4.5749,-4.5749,-4.5688,-4.5632,-4.5618,-4.5704,-4.5731,-4.5643,-4.5618,-4.5565,-4.5502,-4.5502,-4.5475,-4.5448,-4.5448,-4.5429,-4.54,-4.54,-4.537,-4.5341,-4.5328,-4.5246,-4.5203,-4.517,-4.5114,-4.5057,-4.5033,-4.4955,-4.487,-4.477,-4.4738,-4.4685,-4.4592,-4.4537,-4.4482,-4.443,-4.4473,-4.4482,-4.4416,-4.4387,-4.4329,-4.4274,-4.4211,-4.4147,-4.4101,-4.4042,-4.3947,-4.3781,-4.3701,-4.36,-4.3444,-4.3358,-4.3251,-4.3104,-4.3011,-4.2755,-4.2264,-4.1772,-4.1139,-4.031,-3.9463,-3.8797,-3.8348,-3.79,-3.7721,-3.781,-3.7649,-3.7559,-3.7559,-3.7355,-3.7261,-3.7242,-3.7009,-3.6851,0.0,0.0,0.0,0.0,0.0,0.0,-3.739,-3.883,-4.0166,-4.0196,-4.0253,-4.0298,-4.0307,-4.0349,-4.0973,-4.2761,-4.3063,-4.3673,-4.5417,-4.5676,-4.5676,-4.5692,-4.5743,-4.5781,-4.5778,-4.5833,-4.5867,-4.5874,-4.5874,-4.5874,-4.5874,-4.5867,-4.584,-4.5786,-4.5769,-4.575,-4.5673,-4.5665,-4.5676,-4.5657,-4.5607,-4.5538,-4.5476,-4.553,-4.553,-4.5485,-4.5485,-4.5457,-4.539,-4.5381,-4.5371,-4.5361,-4.5351,-4.5351,-4.5341,-4.5348,-4.5297,-4.5243,-4.5159,-4.5068,-4.4955,-4.4943,-4.4907,-4.4865,-4.4796,-4.4776,-4.4738,-4.4619,-4.4565,-4.4524,-4.4411,-4.4383,-4.4373,-4.43,-4.4314,-4.4325,-4.4285,-4.427,-4.4226,-4.4169,-4.4039,-4.3926,-4.3865,-4.3802,-4.3684,-4.3563,-4.3496,-4.341,-4.3286,-4.3142,-4.3067,-4.3049,-4.2879,-4.2764,-4.2764,-4.2055,-4.1528,-4.1384,-4.0051,-3.9114,-3.877,-3.7998,-3.7572,-3.7595,-3.743,-3.7337,-3.7337,-3.7147,-3.705,-3.6993,-3.6811,-3.6609,0.0,0.0,0.0,0.0,0.0,-3.7249,0.0,0.0,-3.9994,0.0,-4.0263,-4.031,-4.0298,-4.0316,-4.0898,-4.2638,-4.2925,-4.3537,-4.5272,-4.5531,-4.5558,-4.5682,-4.5717,-4.5714,-4.5715,-4.5731,-4.5731,-4.5739,-4.5739,-4.5739,-4.5739,-4.5731,-4.5731,-4.5704,-4.5665,-4.5613,-4.5613,-4.5547,-4.5531,-4.5531,-4.5457,-4.5429,-4.5409,-4.535,-4.5361,-4.5419,-4.5419,-4.541,-4.5389,-4.5348,-4.5277,-4.5224,-4.5151,-4.5129,-4.5129,-4.5061,-4.5057,-4.5014,-4.4895,-4.4833,-4.4827,-4.4745,-4.4719,-4.4738,-4.4725,-4.4632,-4.4542,-4.4528,-4.443,-4.4344,-4.4314,-4.4314,-4.43,-4.4229,-4.4116,-4.4067,-4.4199,-4.4116,-4.402,-4.3945,-4.3883,-4.3786,-4.3664,-4.3582,-4.3496,-4.3355,-4.3268,-4.3214,-4.3123,-4.3012,-4.29,-4.2841,-4.2707,-4.2629,-4.2629,-4.2458,-4.2058,-4.136,-4.0949,-4.0099,-3.8675,-3.8339,-3.7853,-3.7185,-3.7166,-3.7147,-3.7147,-3.695,-3.6791,-3.6655,-3.6468,-3.6318,-3.4152,0.0,0.0,0.0,0.0,-3.719,-3.7314,0.0,-3.9933,-4.0067,-4.0147,-4.0206,-4.0291,-4.03,-4.0854,-4.2574,-4.2833,-4.3445,-4.5199,-4.5438,-4.5485,-4.5577,-4.5586,-4.5612,-4.5687,-4.5706,-4.5703,-4.5708,-4.5665,-4.5629,-4.5629,-4.5643,-4.5618,-4.5593,-4.5556,-4.553,-4.5484,-4.5457,-4.5429,-4.539,-4.532,-4.5277,-4.5224,-4.5159,-4.5184,-4.529,-4.5258,-4.5227,-4.5224,-4.5192,-4.5148,-4.5091,-4.5068,-4.5014,-4.4967,-4.4907,-4.4883,-4.487,-4.4789,-4.468,-4.4632,-4.4592,-4.4537,-4.4468,-4.4468,-4.4426,-4.4387,-4.4387,-4.4344,-4.427,-4.4162,-4.4131,-4.4101,-4.3995,-4.3931,-4.3881,-4.3881,-4.3881,-4.3851,-4.3701,-4.3582,-4.3496,-4.3391,-4.3357,-4.3268,-4.3105,-4.305,-4.2975,-4.2841,-4.2765,-4.2709,-4.2688,-4.2607,-4.2528,-4.2528,-4.2387,-4.2124,-4.1767,-4.1215,-4.0309,-3.9037,-3.8478,-3.774,-3.6771,-3.6853,-3.6893,-3.6816,-3.6612,-3.6485,-3.6381,-3.6212,-3.6041,0.0,0.0,0.0,0.0,0.0,0.0,0.0,0.0,-3.9632,0.0,-4.0036,-4.0117,-4.0225,-4.0244,-4.074,-4.2202,-4.2622,-4.3283,-4.4825,-4.5237,-4.541,-4.5476,-4.5466,-4.5513,-4.5603,-4.5631,-4.562,-4.5616,-4.559,-4.5545,-4.5545,-4.5558,-4.5541,-4.5485,-4.5457,-4.5429,-4.538,-4.5341,-4.53,-4.5254,-4.5181,-4.5125,-4.5061,-4.4998,-4.4991,-4.5061,-4.5068,-4.5057,-4.5057,-4.5026,-4.4979,-4.4919,-4.4895,-4.4846,-4.4783,-4.4719,-4.4693,-4.468,-4.4632,-4.4524,-4.4458,-4.4458,-4.4387,-4.43,-4.43,-4.427,-4.4222,-4.4222,-4.4211,-4.4135,-4.3992,-4.3926,-4.3878,-4.3767,-4.3719,-4.3651,-4.358,-4.3634,-4.3617,-4.3463,-4.3339,-4.325,-4.3196,-4.316,-4.3068,-4.29,-4.2843,-4.2767,-4.2629,-4.2607,-4.257,-4.257,-4.2486,-4.2405,-4.2405,-4.2202,-4.2079,-4.2079,-4.1403,-4.0584,-3.9607,-3.8902,-3.7945,-3.6772,-3.6821,-3.6759,-3.6489,-3.6322,-3.617,-3.6036,-3.5932,-3.5756,0.0,0.0,0.0,0.0,0.0,0.0,0.0,0.0,-3.8833,-3.9708,-3.9954,-4.0036,-4.0106,-4.0117,-4.0412,-4.1317,-4.2117,-4.2959,-4.3921,-4.4782,-4.5329,-4.54,-4.541,-4.541,-4.5419,-4.5419,-4.5419,-4.5419,-4.5419,-4.5419,-4.5419,-4.541,-4.541,-4.541,-4.533,-4.5317,-4.5307,-4.5181,-4.5106,-4.5114,-4.5038,-4.5022,-4.4991,-4.4858,-4.477,-4.4719,-4.4846,-4.4907,-4.4914,-4.4833,-4.4789,-4.4712,-4.4646,-4.4578,-4.4496,-4.444,-4.4426,-4.4411,-4.4344,-4.4314,-4.4314,-4.4314,-4.43,-4.43,-4.43,-4.4162,-4.402,-4.402,-4.3913,-4.382,-4.382,-4.3718,-4.3631,-4.3614,-4.346,-4.3356,-4.3479,-4.3409,-4.3303,-4.3232,-4.3196,-4.3178,-4.3123,-4.2994,-4.2881,-4.2822,-4.2706,-4.2609,-4.2609,-4.2528,-4.2503,-4.2503,-4.2284,-4.2124,-4.2124,-4.2034,-4.2005,-4.2005,-4.1719,-4.1205,-4.0375,-3.9889,-3.8927,-3.7478,-3.7207,-3.6798,-3.6208,-3.6062,-3.5888,-3.5622,-3.5622,-3.5526,0.0,0.0,0.0,0.0,-3.4957,-3.5911,-3.6888,-3.7765,-3.8644,-3.9577,-3.9815,-3.987,-3.9911,-4.0015,-4.0402,-4.1269,-4.163,-4.2307,-4.374,-4.4198,-4.4611,-4.5201,-4.5269,-4.5279,-4.5339,-4.537,-4.538,-4.535,-4.5339,-4.5329,-4.5269,-4.5237,-4.5216,-4.5216,-4.5173,-4.517,-4.517,-4.5045,-4.4967,-4.4967,-4.4827,-4.4732,-4.4751,-4.46,-4.4537,-4.451,-4.4524,-4.4565,-4.4646,-4.4619,-4.4565,-4.451,-4.4482,-4.4426,-4.4373,-4.4344,-4.4344,-4.4329,-4.4203,-4.4143,-4.4101,-4.4055,-4.4011,-4.3963,-4.3963,-4.3931,-4.3849,-4.3763,-4.3697,-4.3649,-4.3513,-4.3443,-4.3409,-4.3339,-4.3269,-4.3178,-4.3233,-4.3215,-4.316,-4.3142,-4.303,-4.2936,-4.2899,-4.2785,-4.2688,-4.2625,-4.2566,-4.2488,-4.2409,-4.2308,-4.2225,-4.2225,-4.2118,-4.2051,-4.2051,-4.1862,-4.1732,-4.1732,-4.1475,-4.0929,-3.9988,-3.979,-3.9078,-3.7723,-3.7613,-3.6978,-3.58,-3.5778,-3.5622,-3.5406,-3.5406,-3.5321,-3.3947,0.0,0.0,0.0,0.0,-3.546,-3.6694,-3.7434,-3.8199,-3.9404,-3.9689,-3.9747,-3.9758,-3.9878,-4.0165,-4.0796,-4.113,-4.173,-4.2873,-4.352,-4.4094,-4.4682,-4.4998,-4.5181,-4.5224,-4.5275,-4.5286,-4.5243,-4.5224,-4.5203,-4.517,-4.5125,-4.5091,-4.5026,-4.5026,-4.5003,-4.4974,-4.4865,-4.4796,-4.4815,-4.4619,-4.4524,-4.4463,-4.435,-4.4262,-4.4237,-4.4195,-4.427,-4.443,-4.443,-4.4401,-4.4329,-4.4281,-4.4222,-4.4165,-4.4135,-4.4135,-4.4119,-4.402,-4.3939,-4.386,-4.3814,-4.3751,-4.3703,-4.3703,-4.3669,-4.3617,-4.3529,-4.3477,-4.3443,-4.3303,-4.325,-4.3214,-4.3123,-4.3049,-4.3011,-4.3011,-4.3011,-4.3011,-4.3011,-4.286,-4.2745,-4.2745,-4.2647,-4.2548,-4.2503,-4.2425,-4.2325,-4.2246,-4.2142,-4.2037,-4.1998,-4.1927,-4.1858,-4.1815,-4.1577,-4.1443,-4.1443,-4.118,-4.0706,-3.9995,-3.9866,-3.931,-3.8154,-3.8106,-3.7451,-3.6175,-3.5969,-3.5664,-3.5222,-3.5222,-3.5152,0.0,0.0,0.0,0.0,0.0,0.0,-3.6278,0.0,-3.7459,-3.9114,-3.9532,-3.9611,-3.9677,-3.9689,-3.9735,-3.9878,-4.0601,-4.1192,-4.1277,-4.2693,-4.376,-4.3835,-4.4551,-4.5015,-4.5015,-4.5045,-4.5053,-4.5053,-4.5072,-4.5091,-4.5091,-4.5091,-4.5033,-4.4895,-4.4883,-4.4821,-4.4699,-4.4632,-4.4592,-4.4592,-4.4454,-4.4321,-4.4177,-4.4121,-4.4036,-4.3915,-4.3881,-4.4039,-4.4285,-4.4285,-4.4259,-4.4169,-4.4036,-4.3942,-4.3881,-4.382,-4.3788,-4.3788,-4.3788,-4.3701,-4.3579,-4.3597,-4.3529,-4.3479,-4.3479,-4.3391,-4.3303,-4.3285,-4.3232,-4.3178,-4.3178,-4.3142,-4.3049,-4.2919,-4.2842,-4.2783,-4.2783,-4.2783,-4.2783,-4.2783,-4.2686,-4.2609,-4.2609,-4.2546,-4.2483,-4.2483,-4.2264,-4.2103,-4.2082,-4.2034,-4.1923,-4.1801,-4.167,-4.1538,-4.1403,-4.1192,-4.1087,-4.107,-4.0817,-4.0624,-4.0485,-4.0221,-3.9682,-3.8849,-3.8698,-3.8196,-3.7328,-3.6718,-3.599,-3.5121,-3.5081,-3.4947,-3.3739,0.0,0.0,0.0,0.0,0.0,-3.5495,0.0,-3.7081,-3.8183,-3.8977,-3.9452,-3.9477,-3.9551,-3.9635,-3.9689,-3.9978,-4.0435,-4.1135,-4.1586,-4.2067,-4.2666,-4.2896,-4.2992,-4.2992,-4.3608,-4.398,-4.395,-4.4536,-4.4858,-4.4808,-4.4808,-4.4783,-4.4764,-4.4712,-4.4672,-4.4632,-4.4416,-4.4312,-4.4312,-4.4128,-4.4023,-4.3974,-4.3913,-4.3867,-4.3818,-4.3716,-4.373,-4.3795,-4.3899,-4.3934,-4.3902,-4.3867,-4.3783,-4.3681,-4.3666,-4.3615,-4.3566,-4.3479,-4.3426,-4.3373,-4.3321,-4.3304,-4.3268,-4.3268,-4.325,-4.3214,-4.316,-4.3068,-4.2957,-4.2805,-4.2746,-4.2727,-4.2689,-4.2668,-4.2649,-4.2649,-4.2625,-4.2586,-4.2647,-4.2606,-4.2526,-4.2526,-4.2427,-4.2325,-4.2243,-4.2163,-4.204,-4.1909,-4.178,-4.1666,-4.1515,-4.1353,-4.1233,-4.1186,-4.0935,-4.0769,-4.068,-4.0502,-4.0305,-4.0079,-3.9986,-3.9749,-3.9315,-3.9263,-3.8783,-3.781,-3.7294,-3.6547,-3.558,-3.4962,-3.4618,0.0,0.0,0.0,0.0,0.0,0.0,-3.5101,-3.5734,-3.6467,-3.7679,-3.834,-3.8854,-3.9242,-3.9376,-3.9452,-3.9502,-3.9575,-3.9859,-4.0492,-4.0839,-4.1224,-4.1697,-4.2019,-4.2203,-4.2203,-4.268,-4.2963,-4.2913,-4.3347,-4.3617,-4.3578,-4.3578,-4.3734,-4.4065,-4.3984,-4.4079,-4.4393,-4.4185,-4.4079,-4.4079,-4.3929,-4.38,-4.3734,-4.3684,-4.3635,-4.3532,-4.3445,-4.3392,-4.3392,-4.3428,-4.3515,-4.3669,-4.3617,-4.3548,-4.346,-4.3409,-4.3375,-4.3304,-4.3178,-4.3124,-4.3069,-4.305,-4.2758,-4.2449,-4.2449,-4.2231,-4.1978,-4.194,-4.1885,-4.1864,-4.2035,-4.2106,-4.2196,-4.2519,-4.2588,-4.2548,-4.2548,-4.2427,-4.2366,-4.2528,-4.2468,-4.2405,-4.2325,-4.2284,-4.2184,-4.2058,-4.1973,-4.1866,-4.1736,-4.1533,-4.1353,-4.1198,-4.1029,-4.0905,-4.0786,-4.0576,-4.0387,-4.0263,-4.0113,-3.9935,-3.9746,-3.972,-3.9616,-3.9422,-3.9325,-3.8976,-3.8333,-3.7836,-3.7092,-3.6122,-3.5569,-3.5297,0.0,0.0,0.0,0.0,-3.3739,0.0,-3.4843,-3.5164,-3.5729,-3.7313,-3.7729,-3.8067,-3.8994,-3.917,-3.9224,-3.9343,-3.935,-3.9439,-3.9665,-4.0349,-4.082,-4.082,-4.1461,-4.1901,-4.1901,-4.1927,-4.1939,-4.1939,-4.195,-4.1967,-4.1972,-4.1972,-4.2283,-4.2997,-4.2898,-4.32,-4.3945,-4.3796,-4.3775,-4.3849,-4.3769,-4.3635,-4.3463,-4.3463,-4.3358,-4.316,-4.3086,-4.3067,-4.3067,-4.2919,-4.3105,-4.3427,-4.3303,-4.3249,-4.3232,-4.3123,-4.3049,-4.303,-4.29,-4.277,-4.2638,-4.2638,-4.2021,-4.1279,-4.1279,-4.083,-4.0309,-4.0273,-4.0273,-4.0435,-4.1061,-4.124,-4.1438,-4.2246,-4.2382,-4.2376,-4.2445,-4.2264,-4.2163,-4.2402,-4.2364,-4.2225,-4.2121,-4.2082,-4.2037,-4.1984,-4.1732,-4.156,-4.1538,-4.1238,-4.1,-4.0864,-4.0721,-4.0527,-4.028,-4.0138,-4.0011,-3.9875,-3.9729,-3.9616,-3.9484,-3.9475,-3.9379,-3.9272,-3.9067,-3.8887,-3.875,-3.8224,-3.7492,-3.6663,-3.6456,-3.6344,0.0,0.0,0.0,0.0,0.0,0.0,-3.3927,-3.4578,-3.5432,-3.6463,-3.7234,-3.7978,-3.8802,-3.9007,-3.905,-3.9078,-3.9115,-3.9277,-3.9594,-3.9726,-3.9795,-3.9795,-3.9934,-4.0002,-3.9963,-4.0517,-4.0878,-4.0878,-4.1477,-4.1824,-4.1754,-4.1773,-4.1819,-4.1915,-4.1828,-4.2173,-4.2974,-4.274,-4.2939,-4.3583,-4.341,-4.3269,-4.3178,-4.3178,-4.3087,-4.2939,-4.2899,-4.286,-4.2841,-4.2707,-4.2805,-4.3013,-4.2995,-4.2938,-4.288,-4.286,-4.2783,-4.2688,-4.2668,-4.2217,-4.1658,-4.1658,-4.1136,-4.0506,-4.0506,-4.0417,-4.0273,-4.0179,-4.0142,-4.014,-4.0188,-4.0204,-4.0401,-4.1205,-4.1381,-4.152,-4.2062,-4.2142,-4.21,-4.2111,-4.209,-4.2051,-4.203,-4.1927,-4.1823,-4.171,-4.1453,-4.1226,-4.1059,-4.0888,-4.0697,-4.0436,-4.0288,-4.0163,-4.0003,-3.9858,-3.9703,-3.9606,-3.9537,-3.9484,-3.9352,-3.9175,-3.9094,-3.905,-3.8794,-3.8616,-3.8476,-3.7894,-3.7443,-3.7134,-3.6432,-3.6023,0.0,0.0,0.0,-3.3495,0.0,0.0,0.0,-3.431,-3.5194,-3.6043,-3.6861,-3.7731,-3.863,-3.884,-3.8866,-3.8939,-3.8979,-3.9073,-3.9277,-3.9324,-3.9382,-3.9439,-3.9451,-3.9444,-3.9405,-3.9701,-3.9857,-3.9807,-4.0132,-4.0346,-4.0302,-4.0302,-4.0473,-4.0852,-4.0735,-4.108,-4.1889,-4.2067,-4.2334,-4.272,-4.3014,-4.3086,-4.2955,-4.2879,-4.2785,-4.2632,-4.2512,-4.245,-4.245,-4.2346,-4.2366,-4.247,-4.267,-4.2746,-4.2706,-4.2665,-4.2336,-4.1938,-4.1879,-4.1339,-4.0659,-4.0659,-4.0139,-3.9549,-3.9549,-3.9225,-3.8829,-3.8773,-3.8716,-3.8785,-3.9119,-3.9189,-3.9384,-4.0168,-4.0666,-4.1034,-4.13,-4.1626,-4.1823,-4.171,-4.1617,-4.1595,-4.1754,-4.1688,-4.1538,-4.1375,-4.1175,-4.0995,-4.0817,-4.0576,-4.0337,-4.0213,-4.0037,-3.9858,-3.972,-3.9642,-3.9537,-3.9405,-3.9299,-3.9228,-3.9148,-3.8996,-3.8832,-3.8711,-3.856,-3.8335,-3.8049,-3.7765,-3.7601,-3.7589,-3.7094,-3.6805,0.0,0.0,0.0,0.0,0.0,-3.3502,0.0,0.0,0.0,-3.603,-3.676,-3.7484,-3.8465,-3.8643,-3.8689,-3.8788,-3.8803,-3.8833,-3.8892,-3.9003,-3.9129,-3.9307,-3.932,-3.932,-3.9307,-3.9221,-3.9106,-3.8979,-3.8925,-3.8881,-3.8866,-3.8833,-3.9113,-3.9743,-3.9675,-3.9981,-4.0787,-4.1243,-4.1595,-4.1796,-4.2449,-4.2716,-4.2667,-4.255,-4.245,-4.231,-4.2163,-4.2079,-4.2079,-4.203,-4.1917,-4.1835,-4.2313,-4.24,-4.2237,-4.2192,-4.1672,-4.0957,-4.0858,-4.0283,-3.9642,-3.9642,-3.9125,-3.8519,-3.8519,-3.7981,-3.7373,-3.7373,-3.7336,-3.7456,-3.8113,-3.8252,-3.841,-3.9173,-3.9843,-4.0329,-4.0503,-4.0959,-4.1318,-4.134,-4.1169,-4.114,-4.1466,-4.1358,-4.1198,-4.1047,-4.0864,-4.0704,-4.06,-4.0263,-3.9995,-3.9986,-3.9781,-3.9616,-3.9475,-3.9475,-3.9405,-3.9245,-3.9094,-3.8996,-3.8969,-3.8805,-3.8572,-3.8278,-3.825,-3.8049,-3.7612,-3.7567,-3.7626,-3.7743,-3.7626,-3.7537,0.0,0.0,0.0,0.0,-3.3132,0.0,-3.4283,0.0,-3.5084,-3.6729,0.0,-3.7453,-3.8269,0.0,0.0,-3.8446,-3.8446,-3.8478,-3.8556,-3.8572,-3.871,-3.9007,-3.9054,-3.9026,-3.895,-3.8935,-3.8921,-3.8906,-3.8851,-3.8777,-3.8738,-3.8606,-3.8562,-3.859,-3.8577,-3.8929,-3.9665,-3.9637,-4.0221,-4.1461,-4.1493,-4.1749,-4.2166,-4.2166,-4.2121,-4.203,-4.2009,-4.2009,-4.2026,-4.2005,-4.158,-4.1017,-4.1785,-4.1629,-4.1008,-4.0988,-4.0473,-3.9784,-3.9782,-3.9286,-3.8665,-3.8665,-3.8114,-3.7476,-3.7476,-3.7404,-3.7316,-3.7316,-3.7297,-3.7314,-3.7421,-3.7363,-3.7463,-3.8258,-3.8425,-3.8743,-4.0061,-4.0302,-4.0448,-4.1024,-4.0912,-4.0817,-4.1117,-4.0953,-4.0769,-4.0745,-4.0436,-4.0188,-4.0171,-3.9935,-3.9703,-3.9563,-3.9537,-3.9475,-3.9325,-3.9325,-3.9245,-3.9067,-3.9023,-3.8942,-3.8832,-3.8572,-3.8221,-3.7788,-3.7788,-3.7596,-3.7254,-3.7072,-3.7103,-3.7268,-3.7072,-3.6937,0.0,0.0,0.0,0.0,0.0,0.0,-3.5031,-3.5479,-3.6019,-3.6768,0.0,0.0,0.0,0.0,0.0,0.0,-3.8236,-3.8252,-3.8267,-3.8334,-3.8512,-3.8833,-3.8877,-3.8862,-3.8833,-3.8743,-3.8664,-3.8664,-3.8621,-3.8528,-3.8469,-3.8419,-3.8336,-3.8236,-3.8186,-3.8301,-3.8577,-3.8905,-3.9318,-3.9774,-4.0237,-4.0722,-4.122,-4.1138,-4.1317,-4.1644,-4.156,-4.1538,-4.1485,-4.1069,-4.0701,-4.0385,-4.028,-4.0204,-4.0114,-4.005,-3.9534,-3.8828,-3.8768,-3.8234,-3.7637,-3.7637,-3.7408,-3.7124,-3.7124,-3.7066,-3.7007,-3.7007,-3.6987,-3.6946,-3.6946,-3.6908,-3.6919,-3.7193,-3.755,-3.7955,-3.8465,-3.9207,-3.9882,-4.007,-4.0243,-4.0387,-4.051,-4.0485,-4.0453,-4.0362,-4.0138,-3.9961,-3.9884,-3.9703,-3.9563,-3.9501,-3.9432,-3.9325,-3.9148,-3.9121,-3.9067,-3.8887,-3.8738,-3.86,-3.846,-3.8164,-3.7847,-3.7522,-3.7328,-3.7088,-3.6785,-3.66,-3.6507,-3.6492,-3.6507,-3.6476,-3.5243,0.0,-3.5118,-3.5118,-3.5256,-3.5445,-3.5694,-3.6231,-3.6732,-3.6983,-3.7503,0.0,0.0,0.0,-3.8002,-3.8035,0.0,-3.8052,-3.8052,-3.8139,-3.8305,-3.8624,-3.8667,-3.8683,-3.8683,-3.8544,-3.8465,-3.8465,-3.835,-3.8271,-3.8223,-3.8189,-3.8139,-3.7983,-3.7949,-3.788,-3.7757,-3.824,-3.8466,-3.8467,-3.9053,-3.9623,-4.0169,-4.0258,-4.0574,-4.1044,-4.1145,-4.1087,-4.0861,-4.0282,-3.9812,-3.9355,-3.8812,-3.8622,-3.8719,-3.8945,-3.852,-3.7795,-3.7694,-3.7286,-3.6811,-3.6811,-3.6811,-3.6811,-3.6811,-3.6751,-3.667,-3.667,-3.6626,-3.6602,-3.6602,-3.6582,-3.6541,-3.644,-3.6813,-3.7176,-3.7185,-3.8048,-3.8886,-3.917,-3.9485,-3.9733,-3.9978,-4.0062,-4.0113,-4.0011,-3.9901,-3.9772,-3.9668,-3.9537,-3.9405,-3.9379,-3.9272,-3.9148,-3.8969,-3.8942,-3.886,-3.8694,-3.8375,-3.8135,-3.7992,-3.7714,-3.7449,-3.7148,-3.6921,-3.6662,-3.6352,-3.6148,-3.6022,-3.5926,-3.6022,-3.6038,-3.6075,-3.5491,-3.4907,-3.4907,-3.4995,-3.5331,-3.6167,-3.6487,-3.6843,-3.7702,-3.7881,-3.7899,-3.7899,-3.7899,-3.7899,0.0,-3.7899,0.0,0.0,-3.7899,-3.8003,-3.829,-3.8368,-3.8415,-3.8415,-3.8354,-3.8307,-3.8307,-3.8121,-3.8018,-3.8001,-3.7951,-3.7846,-3.7721,-3.7721,-3.7613,-3.7429,-3.7447,-3.7686,-3.8111,-3.8128,-3.8464,-3.9077,-3.9787,-4.0117,-4.0187,-4.0896,-4.0791,-4.0113,-3.9966,-3.9037,-3.7659,-3.759,-3.7064,-3.6519,-3.7495,-3.7304,-3.6558,-3.6558,-3.644,-3.6322,-3.6322,-3.6322,-3.6322,-3.6322,-3.6322,-3.6322,-3.6322,-3.6322,-3.6322,-3.6322,-3.6255,-3.6208,-3.6225,-3.614,-3.6215,-3.6797,-3.6847,-3.7188,-3.8561,-3.8732,-3.8882,-3.9586,-3.9729,-3.9729,-3.9703,-3.959,-3.9528,-3.9501,-3.9379,-3.9245,-3.9023,-3.9023,-3.8942,-3.8832,-3.8805,-3.8694,-3.842,-3.7992,-3.7626,-3.7447,-3.7298,-3.6983,-3.6554,-3.6523,-3.6367,-3.6005,-3.5816,-3.572,-3.572,-3.572,-3.5653,-3.67,-3.6526,-3.6353,-3.6353,-3.6445,-3.6626,-3.693,-3.7038,-3.7145,-3.7431,-3.7503,-3.7503,-3.7503,-3.7503,0.0,0.0,0.0,-3.7503,0.0,-3.7539,-3.7631,-3.7828,-3.8001,-3.8136,-3.8136,-3.8053,-3.8038,-3.8038,-3.7898,-3.7774,-3.7739,-3.7631,-3.7522,-3.7447,-3.7447,-3.7336,-3.7145,-3.7126,-3.715,-3.717,-3.717,-3.7492,-3.8092,-3.8304,-3.8874,-3.9698,-3.9405,-3.941,-3.9548,-3.8488,-3.7682,-3.7079,-3.6578,-3.6154,-3.5905,-3.6526,-3.6559,-3.6272,-3.6101,-3.5954,-3.5827,-3.5827,-3.5827,-3.5827,-3.5827,-3.5827,-3.5827,-3.5827,-3.5827,-3.5827,-3.5827,-3.5822,-3.5778,-3.5689,-3.5627,-3.5667,-3.5801,-3.6192,-3.6639,-3.7112,-3.7895,-3.8546,-3.8796,-3.9056,-3.9292,-3.9537,-3.9458,-3.9325,-3.9175,-3.9121,-3.9023,-3.8887,-3.886,-3.8805,-3.8683,-3.8488,-3.8278,-3.7963,-3.7655,-3.7358,-3.7087,-3.6861,-3.66,-3.6305,-3.6085,-3.5911,-3.5799,-3.5524,-3.5362,-3.5362,-3.5216,-3.5231,-3.6908,-3.6911,-3.695,-3.695,-3.7029,-3.7124,-3.7124,-3.7163,-3.7201,-3.7201,-3.7201,-3.7201,-3.7222,-3.7222,-3.7241,0.0,0.0,-3.7278,0.0,-3.7279,-3.7317,-3.7373,-3.7667,-3.7863,-3.7863,-3.7793,-3.7721,-3.7721,-3.7613,-3.754,-3.7503,-3.7411,-3.7298,-3.7201,-3.7201,-3.7105,-3.6888,-3.6888,-3.6768,-3.6544,-3.6544,-3.6724,-3.7042,-3.7249,-3.7791,-3.8567,-3.8327,-3.8314,-3.8387,-3.7353,-3.6701,-3.6327,-3.5825,-3.5571,-3.5532,-3.5861,-3.5971,-3.5905,-3.5684,-3.5571,-3.5487,-3.5487,-3.5487,-3.5487,-3.5487,-3.5487,-3.5487,-3.5487,-3.5487,-3.5487,-3.5487,-3.5487,-3.5481,-3.5373,-3.5373,-3.5327,-3.5245,-3.5549,-3.5942,-3.6145,-3.707,-3.788,-3.8146,-3.8616,-3.9023,-3.9299,-3.9202,-3.9067,-3.8942,-3.8942,-3.8887,-3.8738,-3.8683,-3.8544,-3.8307,-3.8078,-3.7801,-3.7537,-3.7254,-3.6967,-3.6784,-3.6476,-3.6226,-3.6038,-3.5767,-3.5574,-3.5509,-3.5231,-3.5082,-3.5082,-3.4902,-3.485]},{"header":{"parameterUnit":"m.s-1","parameterCategory":1,"la1":30.6,"la2":29.2853,"lo1":-89.7004,"lo2":-87.6739,"dy":0.0162,"dx":0.0183,"nx":112,"ny":82,"refTime":"2023-09-20T18:00:00:Z","depth":0,"parameterNumber":3,"parameterNumberName":"V-component_of_WINDS"},"data":[0.0,0.0,0.0,0.0,0.0,0.0,0.0,0.0,0.0,0.0,0.0,0.0,0.0,0.0,0.0,0.0,0.0,0.0,0.0,0.0,0.0,0.0,0.0,0.0,0.0,0.0,0.0,0.0,0.0,0.0,0.0,0.0,0.0,0.0,0.0,0.0,0.0,0.0,0.0,0.0,0.0,0.0,0.0,0.0,0.0,0.0,0.0,0.0,0.0,0.0,0.0,0.0,0.0,0.0,0.0,0.0,0.0,0.0,0.0,0.0,0.0,0.0,0.0,0.0,0.0,0.0,0.0,0.0,0.0,0.0,0.0,0.0,0.0,0.0,0.0,0.0,0.0,0.0,0.0,0.0,0.0,0.0,0.0,0.0,0.0,0.0,0.0,0.0,0.0,0.0,-0.8016,-0.7622,-0.6791,-0.6142,-0.5819,-0.5196,-0.4581,-0.4046,0.0,0.0,0.0,0.0,0.0,0.0,0.0,0.0,0.0,0.0,0.0,0.0,0.0,0.0,0.0,0.0,0.0,0.0,0.0,0.0,0.0,0.0,0.0,0.0,0.0,0.0,0.0,0.0,0.0,0.0,0.0,0.0,0.0,0.0,0.0,0.0,0.0,0.0,0.0,0.0,0.0,0.0,0.0,0.0,0.0,0.0,0.0,0.0,0.0,0.0,0.0,0.0,0.0,0.0,0.0,0.0,0.0,0.0,0.0,0.0,0.0,0.0,0.0,0.0,0.0,0.0,0.0,0.0,0.0,0.0,0.0,0.0,0.0,0.0,0.0,0.0,0.0,0.0,0.0,0.0,0.0,0.0,0.0,0.0,0.0,0.0,0.0,0.0,0.0,0.0,0.0,0.0,0.0,0.0,0.0,0.0,0.0,0.0,0.0,0.0,0.0,0.0,0.0,0.0,-0.8147,-0.7122,-0.6549,-0.6112,-0.5819,-0.5196,-0.4571,-0.4034,0.0,0.0,0.0,0.0,0.0,0.0,0.0,0.0,0.0,0.0,0.0,0.0,0.0,0.0,0.0,0.0,0.0,0.0,0.0,0.0,0.0,0.0,0.0,0.0,0.0,0.0,0.0,0.0,0.0,0.0,0.0,0.0,0.0,0.0,0.0,0.0,0.0,0.0,0.0,0.0,0.0,0.0,0.0,0.0,0.0,0.0,0.0,0.0,0.0,0.0,0.0,0.0,0.0,0.0,0.0,0.0,0.0,0.0,0.0,0.0,0.0,0.0,0.0,0.0,0.0,0.0,0.0,0.0,0.0,0.0,0.0,0.0,0.0,0.0,0.0,0.0,0.0,0.0,0.0,0.0,0.0,0.0,0.0,0.0,0.0,0.0,0.0,0.0,0.0,0.0,0.0,0.0,0.0,0.0,0.0,0.0,0.0,0.0,0.0,0.0,0.0,0.0,0.0,-0.8556,-0.8056,-0.7204,-0.6736,-0.6323,-0.5935,-0.5319,-0.47,-0.409,-0.3248,0.0,0.0,0.0,0.0,0.0,0.0,0.0,0.0,0.0,0.0,0.0,0.0,0.0,0.0,0.0,0.0,0.0,0.0,0.0,0.0,0.0,0.0,0.0,0.0,0.0,0.0,0.0,0.0,0.0,0.0,0.0,0.0,0.0,0.0,0.0,0.0,0.0,0.0,0.0,0.0,0.0,0.0,0.0,0.0,0.0,0.0,0.0,0.0,0.0,0.0,0.0,0.0,0.0,0.0,0.0,0.0,0.0,0.0,0.0,0.0,0.0,0.0,0.0,0.0,0.0,0.0,0.0,0.0,0.0,0.0,0.0,0.0,0.0,0.0,0.0,0.0,0.0,0.0,0.0,0.0,0.0,0.0,0.0,0.0,0.0,0.0,0.0,0.0,0.0,0.0,0.0,0.0,0.0,0.0,0.0,0.0,0.0,0.0,0.0,0.0,0.0,0.0,-0.8319,-0.7895,-0.7311,-0.6869,-0.6463,-0.6028,-0.5405,-0.4771,-0.4111,-0.327,0.0,0.0,0.0,0.0,0.0,0.0,0.0,0.0,0.0,0.0,0.0,0.0,0.0,0.0,0.0,0.0,0.0,0.0,0.0,0.0,0.0,0.0,0.0,0.0,0.0,0.0,0.0,0.0,0.0,0.0,0.0,0.0,0.0,0.0,0.0,0.0,0.0,0.0,0.0,0.0,0.0,0.0,0.0,0.0,0.0,0.0,0.0,0.0,0.0,0.0,0.0,0.0,0.0,0.0,0.0,0.0,0.0,0.0,0.0,0.0,0.0,0.0,0.0,0.0,0.0,0.0,0.0,0.0,0.0,0.0,0.0,0.0,0.0,0.0,0.0,0.0,0.0,0.0,0.0,0.0,0.0,0.0,0.0,0.0,0.0,0.0,0.0,0.0,0.0,0.0,0.0,0.0,0.0,0.0,0.0,0.0,0.0,0.0,0.0,0.0,0.0,0.0,-0.8283,-0.7717,-0.7166,-0.6707,-0.63,-0.6028,-0.5328,-0.4666,-0.4036,-0.3259,0.0,0.0,0.0,0.0,0.0,0.0,0.0,0.0,0.0,0.0,0.0,0.0,0.0,0.0,0.0,0.0,0.0,0.0,0.0,0.0,0.0,0.0,0.0,0.0,0.0,0.0,0.0,0.0,0.0,0.0,0.0,0.0,0.0,0.0,0.0,0.0,0.0,0.0,0.0,0.0,0.0,0.0,0.0,0.0,0.0,0.0,0.0,0.0,0.0,0.0,0.0,0.0,0.0,0.0,0.0,0.0,0.0,0.0,0.0,0.0,0.0,0.0,0.0,0.0,0.0,0.0,0.0,0.0,0.0,0.0,0.0,0.0,0.0,0.0,0.0,0.0,0.0,0.0,0.0,0.0,0.0,0.0,0.0,0.0,0.0,0.0,0.0,0.0,0.0,0.0,0.0,0.0,0.0,0.0,0.0,0.0,0.0,0.0,0.0,0.0,0.0,0.0,-0.809,-0.7563,-0.7036,-0.6625,-0.6218,-0.5782,-0.523,-0.4598,-0.3907,0.0,0.0,0.0,0.0,0.0,0.0,0.0,0.0,0.0,0.0,0.0,0.0,0.0,0.0,0.0,0.0,0.0,0.0,0.0,0.0,0.0,0.0,0.0,0.0,0.0,0.0,0.0,0.0,0.0,0.0,0.0,0.0,0.0,0.0,0.0,0.0,0.0,0.0,0.0,0.0,0.0,0.0,0.0,0.0,0.0,0.0,0.0,0.0,0.0,0.0,0.0,0.0,0.0,0.0,0.0,0.0,0.0,0.0,0.0,0.0,0.0,0.0,0.0,0.0,0.0,0.0,0.0,0.0,0.0,0.0,0.0,0.0,0.0,0.0,0.0,0.0,0.0,0.0,0.0,0.0,0.0,0.0,0.0,0.0,0.0,0.0,0.0,0.0,0.0,0.0,0.0,0.0,0.0,0.0,0.0,0.0,0.0,0.0,0.0,0.0,0.0,0.0,-0.8529,-0.8087,-0.7644,-0.7093,-0.6697,-0.6248,-0.574,-0.5174,-0.4539,-0.3855,0.0,0.0,0.0,0.0,0.0,0.0,0.0,0.0,0.0,0.0,0.0,0.0,0.0,0.0,0.0,0.0,0.0,0.0,0.0,0.0,0.0,0.0,0.0,0.0,0.0,0.0,0.0,0.0,0.0,0.0,0.0,0.0,0.0,0.0,0.0,0.0,0.0,0.0,0.0,0.0,0.0,0.0,0.0,0.0,0.0,0.0,0.0,0.0,0.0,0.0,0.0,0.0,0.0,0.0,0.0,0.0,0.0,0.0,0.0,0.0,0.0,0.0,0.0,0.0,0.0,0.0,0.0,0.0,0.0,0.0,0.0,0.0,0.0,0.0,0.0,0.0,0.0,0.0,0.0,0.0,0.0,0.0,0.0,0.0,0.0,0.0,0.0,0.0,0.0,0.0,0.0,0.0,0.0,0.0,0.0,0.0,0.0,0.0,0.0,0.0,0.0,0.0,-0.8593,-0.8323,-0.7979,-0.7344,-0.6867,-0.6401,-0.5937,-0.515,-0.4454,0.0,0.0,0.0,0.0,0.0,0.0,0.0,0.0,0.0,0.0,0.0,0.0,0.0,0.0,0.0,0.0,0.0,0.0,0.0,0.0,0.0,0.0,0.0,0.0,0.0,0.0,0.0,0.0,0.0,0.0,0.0,0.0,0.0,0.0,0.0,0.0,0.0,0.0,0.0,0.0,0.0,0.0,0.0,0.0,0.0,0.0,0.0,0.0,0.0,0.0,0.0,0.0,0.0,0.0,0.0,0.0,0.0,0.0,0.0,0.0,0.0,0.0,0.0,0.0,0.0,0.0,0.0,0.0,0.0,0.0,0.0,0.0,0.0,0.0,0.0,0.0,0.0,0.0,0.0,0.0,0.0,0.0,0.0,0.0,0.0,0.0,0.0,0.0,0.0,0.0,0.0,0.0,0.0,0.0,0.0,0.0,0.0,0.0,0.0,0.0,0.0,0.0,0.0,-0.8393,-0.7935,-0.7504,-0.6996,-0.6607,-0.619,-0.5739,-0.5169,-0.4554,-0.3919,0.0,0.0,0.0,0.0,0.0,0.0,0.0,0.0,0.0,0.0,0.0,0.0,0.0,0.0,0.0,0.0,0.0,0.0,0.0,0.0,0.0,0.0,0.0,0.0,0.0,0.0,0.0,0.0,0.0,0.0,0.0,0.0,0.0,0.0,0.0,0.0,0.0,0.0,0.0,0.0,0.0,0.0,0.0,0.0,0.0,0.0,0.0,0.0,0.0,0.0,0.0,0.0,0.0,0.0,0.0,0.0,0.0,0.0,0.0,0.0,0.0,0.0,0.0,0.0,0.0,0.0,0.0,0.0,0.0,0.0,0.0,0.0,0.0,0.0,0.0,0.0,0.0,0.0,0.0,0.0,0.0,0.0,0.0,0.0,0.0,0.0,0.0,0.0,0.0,0.0,0.0,0.0,0.0,0.0,0.0,0.0,0.0,0.0,0.0,0.0,0.0,0.0,-0.8267,-0.7808,-0.7376,-0.6879,-0.6537,-0.6129,-0.5562,-0.5154,-0.4603,-0.3875,0.0,0.0,0.0,0.0,0.0,0.0,0.0,0.0,0.0,0.0,0.0,0.0,0.0,0.0,0.0,0.0,0.0,0.0,0.0,0.0,0.0,0.0,0.0,0.0,0.0,0.0,0.0,0.0,0.0,0.0,0.0,0.0,0.0,0.0,0.0,0.0,0.0,0.0,0.0,0.0,0.0,0.0,0.0,0.0,0.0,0.0,0.0,0.0,0.0,0.0,0.0,0.0,0.0,0.0,0.0,0.0,0.0,0.0,0.0,0.0,0.0,0.0,0.0,0.0,0.0,0.0,0.0,0.0,0.0,0.0,0.0,0.0,0.0,0.0,0.0,0.0,0.0,0.0,0.0,0.0,0.0,0.0,0.0,0.0,0.0,0.0,0.0,0.0,0.0,0.0,0.0,0.0,0.0,0.0,0.0,0.0,0.0,0.0,0.0,0.0,0.0,0.0,-0.8203,-0.7829,-0.7438,-0.6913,-0.6552,-0.609,-0.546,-0.5063,-0.4529,-0.3786,0.0,0.0,0.0,0.0,0.0,0.0,0.0,0.0,0.0,0.0,0.0,0.0,0.0,0.0,0.0,0.0,0.0,0.0,0.0,0.0,0.0,0.0,0.0,0.0,0.0,0.0,0.0,0.0,0.0,0.0,0.0,0.0,0.0,0.0,0.0,0.0,0.0,0.0,0.0,0.0,0.0,0.0,0.0,0.0,0.0,0.0,0.0,0.0,0.0,0.0,0.0,0.0,0.0,0.0,0.0,0.0,0.0,0.0,0.0,0.0,-1.582,-1.5076,0.0,0.0,0.0,0.0,0.0,0.0,0.0,0.0,0.0,0.0,0.0,0.0,0.0,0.0,0.0,0.0,0.0,0.0,0.0,0.0,0.0,0.0,0.0,0.0,0.0,0.0,0.0,0.0,0.0,0.0,0.0,0.0,0.0,0.0,0.0,0.0,0.0,0.0,0.0,0.0,-0.8136,-0.76,-0.7106,-0.6548,-0.6222,-0.5844,-0.545,-0.4949,-0.4441,-0.3957,-0.3292,0.0,0.0,0.0,0.0,0.0,0.0,0.0,0.0,0.0,0.0,0.0,0.0,0.0,0.0,0.0,0.0,0.0,0.0,0.0,0.0,0.0,0.0,0.0,0.0,0.0,0.0,0.0,0.0,0.0,0.0,0.0,0.0,0.0,0.0,0.0,0.0,0.0,0.0,0.0,0.0,0.0,0.0,0.0,0.0,0.0,0.0,0.0,0.0,0.0,0.0,0.0,0.0,0.0,0.0,0.0,0.0,0.0,0.0,0.0,-1.6447,-1.5993,0.0,0.0,0.0,0.0,0.0,0.0,0.0,0.0,0.0,0.0,0.0,0.0,0.0,0.0,0.0,0.0,0.0,0.0,0.0,0.0,0.0,0.0,0.0,0.0,0.0,0.0,0.0,0.0,0.0,0.0,0.0,0.0,0.0,0.0,0.0,0.0,0.0,0.0,0.0,0.0,-0.7596,-0.7073,-0.6613,-0.6083,-0.5789,-0.5495,-0.506,-0.4661,-0.4228,-0.3661,-0.3181,0.0,0.0,0.0,0.0,0.0,0.0,0.0,0.0,0.0,0.0,0.0,0.0,0.0,0.0,0.0,0.0,0.0,0.0,0.0,0.0,0.0,0.0,0.0,0.0,0.0,0.0,0.0,0.0,0.0,0.0,0.0,0.0,0.0,0.0,0.0,0.0,0.0,0.0,0.0,0.0,0.0,0.0,0.0,0.0,0.0,0.0,0.0,0.0,0.0,0.0,0.0,0.0,0.0,-1.8376,-1.8153,-1.7916,-1.7475,-1.7271,-1.7296,-1.7398,-1.725,-1.6898,-1.6738,0.0,0.0,0.0,0.0,0.0,0.0,0.0,0.0,0.0,0.0,0.0,0.0,0.0,0.0,0.0,0.0,0.0,0.0,0.0,0.0,0.0,0.0,-1.0385,-1.0499,-1.0987,-1.1458,-1.1768,0.0,0.0,0.0,0.0,0.0,0.0,0.0,0.0,0.0,0.0,0.0,-0.7043,-0.6643,-0.6242,-0.5698,-0.5467,-0.5158,-0.4627,-0.4327,-0.3883,-0.3228,-0.2991,-0.2587,0.0,0.0,0.0,0.0,0.0,0.0,0.0,0.0,0.0,0.0,0.0,0.0,0.0,0.0,0.0,0.0,0.0,0.0,0.0,0.0,0.0,0.0,0.0,0.0,0.0,0.0,0.0,0.0,0.0,0.0,0.0,0.0,-1.7349,-1.8676,0.0,0.0,0.0,0.0,0.0,0.0,0.0,0.0,0.0,0.0,0.0,0.0,0.0,-2.0055,-2.03,-2.0521,-2.0548,-2.0365,-1.9932,-1.9693,-1.9648,-1.9085,-1.8823,-1.8764,-1.8235,0.0,-1.6199,-1.5833,0.0,0.0,0.0,0.0,0.0,0.0,0.0,0.0,0.0,0.0,0.0,0.0,0.0,0.0,0.0,0.0,0.0,0.0,0.0,0.0,0.0,0.0,-1.0308,-1.0594,-1.0826,-1.1013,-1.1109,-1.1329,-1.1405,-1.0982,-1.0707,-1.0518,0.0,0.0,0.0,0.0,0.0,0.0,-0.7223,-0.6808,-0.6352,-0.5813,-0.5458,-0.5021,-0.4559,-0.3896,-0.3415,-0.3198,-0.2622,-0.2186,-0.1918,-0.1541,0.0,0.0,0.0,0.0,0.0,0.0,0.0,0.0,0.0,0.0,0.0,0.0,0.0,0.0,0.0,0.0,0.0,0.0,0.0,0.0,0.0,0.0,0.0,0.0,0.0,0.0,0.0,0.0,0.0,-1.7964,-1.8551,-1.9396,-1.9488,-1.9677,0.0,0.0,0.0,0.0,0.0,0.0,0.0,0.0,0.0,-2.0378,-2.0281,-2.0226,-2.0217,-2.0258,-2.0117,-1.9796,-1.959,-1.9383,-1.9186,-1.8736,-1.8495,-1.8351,-1.7791,-1.7092,-1.6401,-1.6527,-1.6498,-1.6362,0.0,0.0,0.0,0.0,-1.3931,-1.3589,-1.329,-1.3127,-1.302,-1.2614,0.0,0.0,0.0,0.0,0.0,0.0,0.0,-0.9922,-1.0274,-1.0236,-1.0154,-1.037,-1.0465,-1.0468,-1.0301,-1.0371,-1.0471,-1.0478,-1.0244,-0.9979,-0.9713,-0.9319,0.0,0.0,0.0,-0.7296,-0.6627,-0.6305,-0.5914,-0.5375,-0.5048,-0.4701,-0.4258,-0.3719,-0.3311,-0.3063,-0.2536,-0.2114,-0.1796,-0.1388,-0.0998,0.0,0.0,0.0,0.0,0.0,0.0,0.0,0.0,0.0,0.0,0.0,0.0,0.0,0.0,0.0,0.0,0.0,0.0,0.0,0.0,0.0,0.0,0.0,0.0,0.0,0.0,0.0,0.0,-1.8934,-1.9392,-1.9898,-2.0057,-2.0184,0.0,0.0,0.0,0.0,0.0,0.0,-2.1325,-2.1175,-2.0994,-2.0829,-2.0553,-2.0397,-2.0345,-2.027,-2.0062,-1.9701,-1.9607,-1.9419,-1.9178,-1.8733,-1.8466,-1.8285,-1.7713,-1.733,-1.7104,-1.7076,-1.692,-1.666,-1.5997,-1.5585,-1.529,-1.4567,-1.4215,-1.4053,-1.3484,-1.3244,-1.3119,-1.2428,-1.208,-1.1831,-1.1167,0.0,0.0,0.0,0.0,-0.9825,-1.0045,-0.9973,-0.9888,-1.0043,-1.0073,-0.9949,-0.9669,-0.9614,-0.9641,-0.9822,-0.9631,-0.9303,-0.8963,-0.8588,0.0,-0.7726,-0.73,-0.6827,-0.6178,-0.5845,-0.5478,-0.4967,-0.467,-0.4328,-0.3935,-0.3489,-0.3077,-0.2771,-0.237,-0.197,-0.1568,-0.1217,-0.0885,-0.0531,0.0,0.0,0.0,0.0,0.0,0.0,0.0,0.0,0.0,0.0,0.0,0.0,0.0,0.0,0.0,0.0,0.0,0.0,0.0,0.0,0.0,0.0,0.0,0.0,0.0,0.0,0.0,0.0,0.0,-2.0013,-2.0475,0.0,0.0,0.0,0.0,-2.1393,-2.1197,-2.09,-2.0481,-2.0332,-2.0382,-2.0605,-2.0543,-2.0738,-2.1229,-2.1348,-2.1407,-2.1372,-2.1,-2.079,-2.0755,-2.0048,-1.969,-1.9655,-1.886,-1.8505,-1.8382,-1.6798,-1.5968,-1.5661,-1.5427,-1.5127,-1.4826,-1.4557,-1.4287,-1.3917,-1.3404,-1.3112,-1.2904,-1.2164,-1.154,-1.101,-1.0724,-1.037,0.0,0.0,-0.9775,-0.9584,-0.9909,-0.9713,-0.9506,-0.9744,-0.9659,-0.9505,-0.9359,-0.9329,-0.9234,-0.8938,-0.875,-0.8578,-0.8386,0.0,-0.7699,-0.7546,-0.7,-0.6542,-0.6314,-0.5729,-0.5223,-0.5024,-0.4489,-0.3985,-0.3663,-0.3093,-0.2616,-0.2338,-0.197,-0.1568,-0.113,-0.0983,-0.0727,-0.0327,-0.0291,0.0,0.0,0.0,0.0,0.0,0.0,0.0,0.0,0.0,0.0,0.0,0.0,0.0,0.0,0.0,0.0,0.0,0.0,0.0,0.0,0.0,0.0,0.0,0.0,0.0,0.0,0.0,0.0,-2.0715,-2.0833,0.0,-2.0936,-2.0967,-2.1116,-2.1434,-2.1312,-2.1288,-2.1417,-2.1386,-2.1281,-2.1174,-2.088,-2.0859,-2.1032,-2.0878,-2.074,-2.0609,-2.0324,-2.0119,-1.9975,-1.9323,-1.8949,-1.8792,-1.8128,-1.7699,-1.7431,-1.6674,-1.6438,-1.6519,-1.5972,-1.5561,-1.5209,-1.4733,-1.4364,-1.4007,-1.3565,-1.329,-1.2998,-1.2206,-1.143,-1.0768,-1.0536,-1.0078,-0.9639,-0.9639,-0.948,-0.9373,-0.9604,-0.959,-0.9537,-0.9657,-0.9635,-0.9419,-0.8843,-0.8712,-0.8551,-0.7902,-0.804,-0.8141,-0.7685,-0.7349,-0.7064,-0.6788,-0.6286,-0.5822,-0.5512,-0.5046,-0.4579,-0.4268,-0.3878,-0.3554,-0.3293,-0.2826,-0.2547,-0.245,-0.1799,-0.1378,-0.1225,-0.0753,-0.0373,-0.0112,0.0037,0.0218,0.0,0.0,0.0,0.0,0.0,0.0,0.0,0.0,0.0,0.0,0.0,0.0,0.0,0.0,0.0,0.0,0.0,0.0,0.0,0.0,0.0,0.0,0.0,0.0,0.0,-1.9742,-2.0098,-2.0706,-2.0979,-2.102,-2.0813,-2.0953,-2.1187,-2.155,-2.1379,-2.1375,-2.1609,-2.1572,-2.1409,-2.1129,-2.0969,-2.0839,-2.0777,-2.0622,-2.0484,-2.0263,-2.0051,-1.9866,-1.9615,-1.908,-1.8693,-1.8419,-1.7855,-1.7402,-1.7024,-1.6696,-1.6649,-1.6716,-1.6091,-1.5611,-1.5166,-1.4708,-1.4282,-1.3911,-1.3433,-1.3027,-1.2681,-1.2151,-1.1382,-1.0637,-1.053,-1.0043,-0.9585,-0.9585,-0.951,-0.9438,-0.9503,-0.9527,-0.9472,-0.9304,-0.9214,-0.8973,-0.8269,-0.8078,-0.7845,-0.7177,-0.7375,-0.7522,-0.6988,-0.6714,-0.6444,-0.6025,-0.5628,-0.5234,-0.4849,-0.446,-0.4073,-0.3684,-0.337,-0.3137,-0.3023,-0.2628,-0.2353,-0.2198,-0.1649,-0.1178,-0.0864,-0.0425,-0.0077,0.0192,0.0449,0.0701,0.0886,0.0,0.0,0.0,0.0,0.0,0.0,0.0,0.0,0.0,0.0,0.0,0.0,0.0,0.0,0.0,0.0,0.0,0.0,0.0,0.0,0.0,0.0,0.0,-1.8549,-1.954,-2.0158,-2.0047,-2.0892,-2.1371,-2.1022,-2.1732,-2.2092,-2.1722,-2.1361,-2.109,-2.0935,-2.0732,-2.0544,-2.0401,-2.0651,-2.071,-2.0497,-2.0765,-2.078,-2.0605,-2.0381,-2.0146,-1.9901,-1.9497,-1.9091,-1.8674,-1.817,-1.7765,-1.7351,-1.6861,-1.6451,-1.6067,-1.5709,-1.5211,-1.4667,-1.4457,-1.4052,-1.3567,-1.2995,-1.2399,-1.188,-1.188,-1.1278,-1.0597,-1.0592,-1.0233,-0.9867,-0.9867,-0.9867,-0.9826,-0.9632,-0.9423,-0.9173,-0.869,-0.8452,-0.8164,-0.7698,-0.7409,-0.7165,-0.6743,-0.678,-0.6725,-0.6349,-0.607,-0.5754,-0.5326,-0.5085,0.0,-0.4421,-0.4034,-0.3684,-0.3407,-0.302,-0.2787,-0.2787,-0.2392,-0.2,-0.1611,-0.1375,-0.0864,-0.0039,0.0,0.0196,0.0628,0.1036,0.1327,0.1516,0.0,0.0,0.0,0.0,0.0,0.0,0.0,0.0,0.0,0.0,0.0,0.0,0.0,0.0,0.0,0.0,0.0,0.0,0.0,0.0,0.0,-1.7657,-1.8564,-1.9234,-1.986,-2.0323,-2.0497,-2.0974,-2.1121,-2.0743,-2.0944,-2.1126,-2.125,-2.1037,-2.0972,-2.1124,-2.0936,-2.0737,-2.0548,-2.0485,-2.0547,-2.0771,-2.0529,-2.0498,-2.075,-2.0338,-2.014,-2.0016,-1.9433,-1.8941,-1.8599,-1.7829,-1.7267,-1.6861,-1.6237,-1.5816,-1.5564,-1.539,-1.4954,-1.4372,-1.4012,-1.3456,-1.279,-1.2479,-1.2034,-1.1553,-1.1278,-1.0915,-1.0557,-1.0192,-0.9821,-0.945,-0.945,-0.9205,-0.8955,-0.889,-0.8842,-0.8708,-0.8373,-0.8104,-0.7771,-0.7229,-0.6946,-0.6658,-0.6261,-0.5932,-0.5758,-0.5805,-0.556,-0.5297,-0.4983,-0.4474,-0.4073,-0.3997,-0.345,-0.3059,-0.2981,-0.2588,-0.2353,-0.2353,-0.1845,-0.1492,-0.1375,-0.0746,-0.0236,0.0,0.0275,0.0628,0.11,0.1523,0.1789,0.0,0.0,0.0,0.0,0.0,0.0,0.0,0.0,0.0,0.0,0.0,0.0,0.0,0.0,0.0,0.0,0.0,0.0,0.0,0.0,0.0,0.0,-1.7438,-1.8293,-1.8954,-1.9617,-2.0128,-2.0243,-2.0634,-2.0746,-2.042,-2.073,-2.0981,-2.0968,-2.0936,-2.0958,-2.1004,-2.0804,-2.0644,-2.0533,-2.0413,-2.0414,-2.0566,-2.0287,-2.0199,-2.0199,-1.9954,-1.9708,-1.9546,-1.9024,-1.8606,-1.8194,-1.7613,-1.7017,-1.6484,-1.6102,-1.5633,-1.5162,0.0,0.0,0.0,0.0,-1.2936,-1.241,-1.2081,-1.1752,-1.1332,-1.0923,-1.059,-1.0262,-0.9885,-0.955,-0.9298,-0.9172,-0.8919,-0.8692,-0.8498,-0.8355,-0.8163,-0.7822,-0.754,-0.7254,-0.6773,-0.6449,-0.6161,-0.5915,-0.5432,0.0,-0.5046,-0.4917,-0.4731,-0.449,-0.4031,-0.3676,-0.3474,-0.3085,-0.2788,-0.2629,-0.2367,-0.2118,-0.1962,-0.1532,0.0,0.0,0.0,0.0157,0.051,0.0943,0.0,0.0,0.0,0.2326,0.2666,0.2666,0.0,0.0,0.2543,0.2631,0.0,0.0,0.0,0.0,0.0,0.0,0.0,0.0,0.0,0.0,0.0,0.0,0.0,0.0,0.0,0.0,-1.7081,-1.7498,-1.8119,-1.9,-1.958,-1.9591,-2.0054,-2.0286,-2.0106,-2.085,-2.1199,-2.0726,-2.085,-2.0848,-2.0568,-2.0367,0.0,0.0,0.0,-2.0192,-2.0077,-2.0034,-1.983,-1.9479,-1.9393,-1.9187,-1.8831,-1.8545,-1.8128,-1.7675,-1.744,-1.6934,-1.6227,-1.6176,-1.5606,-1.4718,-1.4593,-1.4271,-1.3828,-1.2966,-1.2448,-1.2235,-1.18,0.0,0.0,-1.0679,-1.025,-0.9907,-0.9602,-0.9388,-0.9174,-0.8911,-0.8823,-0.8692,-0.8201,-0.7893,-0.7584,-0.7143,-0.6877,-0.6659,-0.6387,-0.5985,-0.563,-0.5586,-0.5102,-0.4569,-0.4255,-0.4245,-0.4172,-0.3922,-0.3663,-0.3362,-0.2988,-0.2852,-0.2653,-0.2285,-0.2162,0.0,-0.1584,-0.1346,-0.0911,-0.0317,0.0,0.0515,0.1307,0.1743,0.2177,0.253,0.2571,0.2835,0.3341,0.3382,0.3417,0.3524,0.3105,0.3046,0.0,0.0,0.0,0.0,0.0,0.0,0.0,0.0,0.0,0.0,0.0,0.0,0.0,0.0,0.0,-1.6431,-1.7032,-1.7444,-1.7553,-1.8298,-1.8856,-1.9051,-1.9769,-2.016,-1.9978,-2.0355,-2.0509,-2.0267,-2.0138,-1.992,-1.969,-1.9444,-1.9358,-1.9358,-1.9358,-1.948,-1.9755,-1.9563,-1.9584,-1.9799,-1.943,0.0,-1.9121,-1.8659,-1.819,-1.7618,-1.7169,-1.6519,-1.5695,-1.5346,-1.4636,-1.3755,-1.3516,-1.325,-1.2881,-1.2332,-1.1854,-1.1499,-1.1413,-1.0982,-1.0467,-1.0212,-0.9907,-0.9602,-0.917,-0.8907,0.0,-0.842,-0.8204,-0.7984,-0.7448,-0.7272,-0.7095,-0.665,-0.639,-0.6171,-0.5899,-0.5633,-0.5327,-0.4971,-0.4612,-0.4255,-0.381,-0.3818,-0.3753,-0.3321,-0.3019,-0.2692,-0.2481,-0.2262,-0.213,-0.2046,-0.1705,-0.1451,-0.1369,-0.0831,-0.0374,-0.0083,0.0706,0.1286,0.1618,0.2201,0.2575,0.2657,0.3028,0.3366,0.3631,0.3841,0.4016,0.4195,0.3956,0.3861,0.0,0.0,0.0,0.0,0.0,0.0,0.0,0.0,0.0,0.0,0.0,-1.3414,0.0,0.0,-1.5399,-1.5926,-1.6433,-1.6915,-1.7245,-1.7647,-1.8112,-1.8692,-1.9261,-1.9626,-1.951,-1.9821,-1.9955,-1.9731,-1.9791,-1.9735,-1.9506,-1.9284,-1.9143,-1.9143,-1.901,-1.9056,-1.9253,-1.9101,-1.91,-1.9188,-1.8819,-1.8596,-1.8411,-1.7947,-1.7531,-1.7091,-1.6714,-1.6068,-1.5285,-1.4684,-1.4053,-1.3464,-1.2928,-1.2676,-1.2474,-1.2003,-1.1652,-1.1324,-1.0937,-1.0511,-1.0077,-0.9607,-0.9297,-0.9034,-0.8556,-0.8336,-0.8157,-0.7757,-0.7584,-0.7363,-0.6874,-0.6653,-0.6523,-0.6302,-0.5991,-0.5727,-0.5591,-0.5191,-0.479,-0.4523,-0.4032,-0.3539,-0.327,-0.3111,-0.2958,-0.2826,-0.2581,-0.2303,-0.2086,-0.1937,-0.1753,-0.1538,-0.127,-0.1009,-0.0799,-0.0168,0.0295,0.0505,0.1261,0.1765,0.1849,0.2481,0.2902,0.3068,0.353,0.3886,0.4099,0.4357,0.4552,0.4724,0.4856,0.4801,0.0,0.0,0.0,0.0,0.0,0.0,0.0,0.0,-1.0701,-1.1272,-1.2213,-1.3059,-1.3413,-1.4294,-1.5035,-1.5373,-1.5834,-1.6318,-1.6838,-1.7083,-1.7504,-1.8253,-1.8691,-1.8962,-1.8962,-1.9308,-1.9438,-1.9145,-1.9435,-1.9525,-1.9304,-1.9104,-1.8958,-1.892,-1.8689,-1.855,-1.8504,-1.8504,-1.845,-1.8257,-1.7986,-1.7761,-1.7488,-1.7019,-1.6636,-1.6298,-1.5906,-1.5432,-1.4813,-1.41,-1.3641,-1.332,-1.2716,-1.2408,-1.2289,-1.178,-1.1494,-1.1204,-1.0568,-1.0172,-0.9793,-0.9094,-0.8717,-0.8416,-0.7984,-0.7768,-0.7632,-0.7187,-0.7007,-0.6874,-0.6432,-0.6169,-0.5991,-0.5994,-0.5638,-0.528,-0.5193,-0.4701,-0.4253,-0.4074,-0.3403,-0.2867,-0.2689,-0.2332,-0.2109,-0.2244,-0.2154,-0.193,-0.1615,-0.1547,-0.1355,-0.0961,-0.0861,-0.064,-0.0213,0.0427,0.0853,0.1024,0.1662,0.2044,0.2044,0.2726,0.3238,0.3447,0.3958,0.4336,0.4541,0.4848,0.5063,0.5142,0.5589,0.5575,-0.484,-0.571,-0.6726,-0.7406,-0.7872,-0.8335,0.0,0.0,-1.0795,-1.1588,-1.2473,-1.3213,-1.3742,-1.4261,-1.4741,-1.5107,-1.5542,-1.5874,-1.5948,-1.6691,-1.7251,-1.7334,-1.7948,-1.8374,-1.8374,-1.8702,-1.881,-1.8618,-1.8611,-1.8542,-1.8272,-1.8226,-1.8087,-1.7861,-1.7815,-1.7714,-1.7466,-1.7466,-1.7473,-1.7419,-1.7207,-1.6972,-1.673,-1.6433,-1.5906,-1.5242,-1.4478,-1.4094,-1.4004,-1.3678,-1.3275,-1.2866,-1.277,-1.2463,-1.1999,-1.1517,-1.1181,-1.09,-1.06,-1.0104,-0.9553,-0.9017,-0.8548,-0.8157,-0.768,-0.7367,-0.7143,-0.6881,-0.6656,-0.6432,-0.6213,-0.5944,-0.5677,-0.5502,-0.5235,-0.4921,-0.4523,-0.4342,-0.4074,-0.3226,-0.2956,-0.2689,-0.2018,-0.166,-0.148,-0.1525,-0.1525,-0.1345,-0.0897,-0.0805,-0.0804,-0.0759,-0.058,-0.0223,0.0267,0.0757,0.1069,0.1069,0.1781,0.2183,0.2183,0.3028,0.3563,0.3561,0.4273,0.4632,0.4688,0.5132,0.5445,0.563,0.5902,0.5888,-0.4958,-0.5959,0.0,0.0,-0.8127,-0.876,-0.9385,-1.0087,-1.0796,-1.153,-1.2203,-1.2791,-1.3281,-1.3774,-1.4136,0.0,-1.4822,-1.5288,-1.547,-1.6109,-1.6649,-1.6836,-1.7135,-1.7505,-1.7919,-1.8103,-1.8124,-1.8118,-1.8085,-1.812,-1.8171,-1.7993,-1.7848,-1.7758,-1.7662,-1.7509,-1.7405,-1.7211,-1.712,-1.7113,-1.6731,-1.6392,-1.612,-1.5886,-1.5361,-1.458,-1.3769,-1.3383,-1.3238,-1.2953,-1.2662,-1.2322,-1.2175,-1.1878,-1.1502,-1.1342,-1.1135,-1.0834,-1.0473,-0.9868,-0.9204,-0.8836,-0.8352,-0.7811,-0.7368,-0.7083,-0.6836,-0.6482,-0.6305,-0.6124,-0.5772,-0.5594,-0.5458,-0.5235,-0.4877,-0.452,-0.4342,-0.3851,-0.336,-0.2956,-0.2419,-0.1928,-0.1615,-0.1256,-0.0942,-0.0852,-0.0897,-0.0897,-0.0583,-0.0538,-0.0403,-0.009,0.0,0.0269,0.0762,0.0987,0.1211,0.148,0.193,0.2333,0.2599,0.3227,0.3721,0.3987,0.4567,0.4968,0.5104,0.5594,0.5861,0.5947,0.6349,0.6523,-0.5118,0.0,0.0,-0.7631,-0.8321,-0.895,-0.9463,-1.0115,-1.077,-1.13,-1.1952,-1.2504,-1.2843,-1.33,-1.361,-1.361,-1.4203,-1.4733,-1.4948,-1.5538,-1.6004,-1.6224,-1.6346,-1.6569,-1.7127,-1.7283,-1.7468,-1.7586,-1.751,-1.7554,-1.7725,-1.7548,-1.7456,-1.7356,-1.7207,-1.7107,-1.7057,-1.6807,-1.6707,-1.6707,-1.6312,-1.5945,-1.5585,-1.5208,-1.4666,-1.3916,-1.329,-1.2818,-1.2565,-1.237,-1.2127,-1.1878,-1.1585,-1.134,-1.1082,-1.0985,-1.0832,-1.0573,-1.0186,-0.9583,-0.893,-0.8592,-0.8106,-0.7565,-0.7066,-0.683,-0.6585,-0.6179,-0.5975,-0.5816,-0.5416,-0.5191,-0.5057,-0.4832,-0.4431,-0.4076,-0.3941,-0.336,-0.2823,-0.2644,-0.1928,-0.1391,-0.1345,-0.0942,-0.0583,-0.0403,-0.0448,-0.0449,-0.0314,-0.0224,-0.0045,0.0359,0.0538,0.0718,0.1076,0.1211,0.1436,0.1794,0.2153,0.2556,0.2957,0.3496,0.3989,0.4389,0.4877,0.5191,0.5416,0.5861,0.6127,0.6213,0.6615,0.6969,-0.5384,0.0,-0.6708,-0.7589,-0.8048,-0.8509,-0.915,-1.0017,-1.0768,-1.0972,-1.1922,-1.2693,-1.2693,-1.3088,-1.3398,-1.3398,-1.3849,-1.4205,-1.4218,-1.4928,-1.5425,-1.5432,-1.5683,-1.5836,0.0,-1.635,-1.6723,-1.7023,-1.6787,-1.6637,-1.6643,-1.6643,-1.65,-1.6262,-1.6262,-1.6161,-1.5954,-1.596,-1.591,-1.591,-1.5903,-1.5657,-1.5095,-1.4287,-1.3639,-1.3143,-1.2844,-1.247,-1.2024,-1.2029,-1.1834,-1.1585,-1.134,-1.1047,-1.0752,-1.0207,-1.001,-1.001,-0.971,-0.9352,-0.8868,-0.8093,-0.7658,-0.7402,-0.6929,-0.6557,-0.627,-0.599,-0.5679,-0.5371,-0.5099,-0.4654,-0.4344,-0.4344,-0.3942,-0.3497,-0.3047,-0.2913,-0.2689,-0.1973,-0.1615,-0.1345,-0.1121,-0.0718,-0.0403,-0.0403,-0.018,0.0,0.0,0.0224,0.0403,0.0403,0.0807,0.1076,0.1121,0.1525,0.1794,0.1794,0.2465,0.2957,0.3183,0.3898,0.4389,0.4661,0.5149,0.5371,0.5416,0.5861,0.6213,0.6384,0.6659,0.7194,-0.4949,0.0,-0.6502,-0.7256,-0.7986,-0.8661,-0.9326,-0.9992,-1.0573,-1.1081,-1.1487,-1.1929,-1.2406,-1.2619,-1.279,-1.2918,-1.351,-1.4011,-1.4011,-1.4674,-1.5213,-1.5213,-1.5428,0.0,0.0,0.0,0.0,-1.6496,-1.6433,-1.6459,-1.6645,-1.6658,-1.6606,-1.6509,-1.6358,-1.6202,-1.6149,-1.5829,-1.562,-1.5614,-1.5237,-1.4953,-1.474,-1.3957,-1.3478,-1.3244,-1.2837,-1.2355,-1.1909,-1.1909,-1.1573,-1.1047,-1.0949,-1.0556,-0.9969,-0.9826,-0.9377,-0.8977,-0.9232,-0.8898,-0.8308,-0.8013,-0.7573,-0.7075,-0.6594,-0.6311,-0.6024,-0.5603,-0.5247,-0.4938,-0.4663,-0.4297,-0.3985,-0.3853,-0.3496,-0.3092,-0.2913,-0.2374,-0.1838,-0.157,-0.1121,-0.0718,-0.0628,-0.0359,-0.009,0.009,0.0045,0.0045,0.0224,0.0359,0.0538,0.0852,0.0987,0.1211,0.1525,0.1705,0.2018,0.251,0.2868,0.336,0.3898,0.4344,0.4748,0.5149,0.5458,0.568,0.5861,0.6349,0.6615,0.6659,0.7061,0.7503,-0.4721,-0.5508,-0.6311,-0.6996,-0.7824,-0.8592,-0.9111,-0.9722,-1.0337,-1.0766,-1.1068,-1.1456,-1.1929,-1.2149,-1.2283,-1.2412,-1.3031,-1.3519,-1.3519,-1.4119,-1.455,-1.4652,-1.4887,-1.5159,0.0,0.0,0.0,-1.6118,-1.6057,-1.6026,-1.6086,-1.6092,-1.6092,-1.6092,-1.5945,-1.5844,-1.5844,-1.5405,-1.5137,-1.5024,-1.4498,-1.4272,-1.4267,-1.3635,-1.3263,-1.3086,-1.2769,-1.2334,-1.1873,-1.18,-1.1435,-1.0857,-1.0636,-1.0117,-0.9579,-0.9179,-0.8684,-0.8287,-0.8638,-0.8389,-0.7793,-0.7537,-0.7131,-0.6672,-0.6085,-0.5807,-0.5573,-0.5097,-0.4742,-0.4485,-0.4111,-0.3818,-0.3532,-0.3308,-0.2929,-0.2599,-0.242,-0.1838,-0.1345,-0.1166,-0.0762,-0.0403,-0.0403,-0.009,0.018,0.0359,0.0314,0.0314,0.0493,0.0583,0.0762,0.1076,0.1256,0.148,0.1794,0.2063,0.242,0.2957,0.336,0.3896,0.452,0.479,0.5149,0.5638,0.5769,0.5947,0.6213,0.6615,0.6836,0.6925,0.7326,0.768,-0.4688,-0.5495,-0.6248,-0.6774,-0.7563,-0.8285,-0.8548,-0.9292,-0.9951,-0.9994,-1.0679,-1.1278,0.0,0.0,-1.2,-1.2,-1.246,-1.278,-1.278,-1.322,-1.3593,0.0,0.0,0.0,0.0,0.0,0.0,-1.5761,-1.5583,-1.5315,-1.4987,-1.4987,-1.4987,-1.4982,-1.4934,-1.4928,-1.4928,-1.4659,-1.4385,-1.4169,-1.3851,-1.3699,-1.3645,-1.3423,-1.3042,-1.2587,-1.2587,-1.225,-1.1766,-1.1577,-1.1286,-1.0992,-1.0252,-0.9785,-0.9381,-0.8386,-0.7988,-0.7939,-0.7939,-0.7743,-0.7394,-0.6639,-0.6387,-0.6187,-0.5438,-0.5124,-0.4954,-0.4418,-0.4162,-0.3957,-0.3483,-0.315,-0.2916,-0.2638,-0.2371,-0.2022,-0.1527,-0.1391,-0.1211,-0.0762,-0.0493,-0.0359,-0.0359,0.009,0.0403,0.0448,0.0583,0.0718,0.0718,0.0942,0.1121,0.1121,0.1525,0.1794,0.1839,0.251,0.3002,0.3227,0.3941,0.452,0.501,0.528,0.5638,0.6083,0.6127,0.6213,0.6432,0.6704,0.6925,0.7139,0.7411,0.7768,-0.4593,-0.5499,-0.6349,-0.6749,-0.7511,-0.8285,-0.8548,-0.9078,-0.9563,-0.9907,-1.0294,-1.0722,0.0,0.0,0.0,-1.2,-1.246,0.0,-1.278,-1.322,0.0,-1.3593,0.0,-1.4315,-1.4378,-1.4786,0.0,0.0,-1.4928,-1.4987,-1.4713,-1.4713,-1.4606,-1.4385,-1.418,-1.4018,-1.4018,-1.3748,-1.3586,-1.3527,-1.3423,-1.3423,-1.3369,-1.3098,-1.296,-1.2803,-1.2365,-1.1979,-1.1684,-1.1428,-1.0915,-1.0188,-0.9987,-0.9287,-0.8386,-0.8088,-0.7739,-0.7338,-0.6936,-0.6786,-0.6689,-0.6487,-0.5989,-0.5441,-0.5037,-0.4772,-0.4506,-0.4155,-0.3705,-0.331,-0.3213,-0.2785,-0.2366,-0.2319,-0.2004,-0.1653,-0.1515,-0.1043,-0.0628,-0.0493,-0.0134,0.0179,0.0179,0.0448,0.0673,0.0897,0.0987,0.0987,0.0987,0.1076,0.1256,0.157,0.1749,0.2018,0.2555,0.2913,0.336,0.3987,0.452,0.4966,0.528,0.5683,0.5994,0.6083,0.6438,0.6659,0.6704,0.7105,0.7326,0.7415,0.7808,0.8201,-0.4548,-0.5331,-0.6057,-0.6492,-0.7183,-0.7801,-0.8201,-0.864,-0.9122,-0.9607,-0.9951,0.0,-1.0766,-1.1079,0.0,0.0,0.0,0.0,-1.2124,-1.2559,-1.294,0.0,-1.3584,0.0,-1.3913,-1.4113,-1.4169,0.0,-1.4337,-1.4498,-1.4067,-1.4013,-1.3959,-1.3797,-1.364,-1.3478,-1.3369,-1.3207,-1.3044,-1.2876,-1.2772,-1.2713,-1.2713,-1.2441,-1.2332,-1.2278,-1.1841,-1.1561,-1.1401,-1.1046,-1.0518,-0.9896,-0.954,-0.8867,-0.8076,-0.7612,-0.7188,-0.6786,-0.6389,-0.5987,-0.5687,-0.5687,-0.5386,-0.4937,-0.4437,-0.4085,-0.3833,-0.353,-0.3154,-0.2782,-0.2634,-0.2255,-0.1885,-0.1787,-0.1428,-0.1125,-0.1032,-0.0697,-0.0323,-0.0092,0.0276,0.0553,0.0553,0.0783,0.0965,0.1093,0.1273,0.1405,0.1392,0.1391,0.157,0.193,0.2153,0.2465,0.2867,0.336,0.3898,0.4433,0.501,0.5411,0.5683,0.6035,0.6305,0.6393,0.6662,0.6884,0.7105,0.7374,0.7591,0.7808,0.8201,0.8508,-0.4423,-0.5077,-0.5621,-0.6177,-0.6697,-0.7228,-0.7676,-0.8201,-0.8679,-0.9126,0.0,-0.9994,-1.0207,-1.0467,-1.0641,-1.0684,0.0,-1.106,-1.1278,-1.1744,-1.222,-1.264,-1.292,-1.3156,-1.3295,-1.3315,-1.3333,-1.3246,-1.3743,-1.3797,-1.3261,-1.3261,-1.3207,-1.3207,-1.3207,-1.3044,-1.2772,-1.2772,-1.2604,-1.2278,-1.206,-1.1896,-1.1896,-1.1623,-1.1514,-1.1459,-1.1131,-1.0962,-1.0899,-1.0463,-1.0065,-0.9693,-0.892,-0.8432,-0.8034,-0.7089,-0.6592,-0.6287,-0.5939,-0.5388,-0.4784,-0.4784,-0.4734,-0.4485,-0.3784,-0.3383,-0.3079,-0.2826,-0.2574,-0.2271,-0.2021,-0.1747,-0.1479,-0.1232,-0.0874,-0.0622,-0.0383,-0.0287,-0.0095,0.0381,0.0668,0.0858,0.0858,0.1097,0.128,0.1211,0.1576,0.1885,0.1941,0.1932,0.1974,0.2243,0.2734,0.3002,0.3092,0.3896,0.4523,0.4792,0.5411,0.5855,0.6127,0.6343,0.6567,0.6836,0.6884,0.7105,0.7551,0.7635,0.7852,0.8245,0.8548,0.8815,-0.4051,-0.4867,-0.5621,-0.578,-0.6473,-0.7139,-0.7231,-0.7757,0.0,0.0,-0.9078,-0.9563,-0.9994,-1.0207,-1.0424,-1.0641,0.0,0.0,0.0,0.0,-1.1881,0.0,0.0,0.0,-1.2725,-1.2944,0.0,0.0,-1.3098,-1.3098,-1.2989,-1.2989,-1.2827,-1.255,-1.255,-1.2441,-1.2169,-1.2169,-1.2005,-1.1732,-1.1678,-1.1514,-1.1236,-1.1185,-1.1072,-1.0857,-1.0586,-1.0257,-0.9978,-0.9677,-0.9203,-0.8588,-0.8305,-0.7803,-0.7175,-0.6634,-0.6289,-0.5989,-0.5236,-0.4935,-0.4784,-0.4784,-0.4334,-0.3736,-0.3381,-0.3079,-0.2826,-0.2522,-0.2271,-0.2021,-0.1718,-0.1462,-0.1207,-0.0955,-0.0644,-0.0391,-0.0146,0.0289,0.062,0.0715,0.0954,0.1144,0.1144,0.1478,0.1763,0.1757,0.1965,0.231,0.2715,0.2539,0.2467,0.2734,0.3183,0.363,0.403,0.4565,0.5053,0.55,0.5858,0.6124,0.6343,0.6612,0.6833,0.7054,0.7282,0.7547,0.7812,0.8201,0.846,0.8548,0.899,0.9301,-0.3663,-0.4323,-0.4919,-0.5438,-0.5933,-0.6418,-0.6763,0.0,0.0,0.0,-0.8596,-0.9034,-0.9388,0.0,0.0,0.0,0.0,0.0,0.0,0.0,0.0,0.0,0.0,0.0,0.0,-1.2063,-1.2043,-1.22,-1.2223,-1.2332,-1.2604,-1.2495,-1.2278,-1.2005,-1.2001,-1.1896,-1.1787,-1.1623,-1.1455,-1.135,-1.1076,-1.0857,-1.0692,-1.0363,-1.0147,-0.9981,-0.9537,-0.9258,-0.9096,-0.8823,-0.8452,-0.8096,-0.7618,-0.7188,-0.6799,-0.6202,-0.5737,-0.5338,-0.4935,-0.4435,-0.3982,-0.3982,-0.3682,-0.3332,-0.2927,-0.2574,-0.2373,-0.2222,-0.192,-0.1566,-0.1415,-0.1111,-0.0707,-0.0455,-0.005,0.0249,0.0399,0.0742,0.1032,0.1032,0.1229,0.1475,0.1573,0.1819,0.2058,0.2326,0.2545,0.2852,0.3384,0.3459,0.3493,0.3408,0.3762,0.4121,0.448,0.5055,0.5453,0.5675,0.6169,0.6526,0.6612,0.6972,0.7194,0.7323,0.7676,0.7984,0.8245,0.8596,0.8815,0.899,0.9301,0.9519,-0.3204,-0.3663,-0.4134,-0.4905,-0.5315,-0.5638,-0.6193,-0.6684,0.0,0.0,-0.7998,-0.8416,-0.8644,0.0,-0.9082,0.0,-0.9345,0.0,0.0,0.0,0.0,0.0,0.0,0.0,-1.1569,-1.1248,0.0,-1.1483,-1.1459,-1.1678,-1.2223,-1.2005,-1.1787,-1.1514,-1.1514,-1.1459,-1.1295,-1.0966,-1.0798,-1.0747,-1.0253,-0.9978,-0.9923,-0.943,-0.9154,-0.9103,-0.8598,-0.8318,-0.8208,-0.7934,-0.7768,-0.7581,-0.6923,-0.6613,-0.6458,-0.5741,-0.5153,-0.4684,-0.4535,-0.3882,-0.318,-0.2978,-0.2978,-0.2927,-0.2473,-0.2171,-0.1971,-0.1869,-0.1516,-0.1162,-0.101,-0.0606,-0.0253,0.0101,0.0556,0.0909,0.0909,0.1111,0.1313,0.1364,0.1566,0.1768,0.2122,0.2223,0.2411,0.2918,0.3196,0.3511,0.4032,0.4315,0.4406,0.4287,0.4444,0.4656,0.4882,0.5455,0.5811,0.5944,0.6482,0.684,0.6928,0.7286,0.7595,0.7724,0.8113,0.842,0.8767,0.8951,0.917,0.9388,0.965,0.9733,-0.2505,-0.301,-0.352,-0.4097,-0.4666,-0.5215,-0.5468,0.0,0.0,-0.6681,-0.7175,-0.7665,-0.7848,-0.8113,-0.842,-0.8867,0.0,-0.9111,0.0,0.0,0.0,0.0,0.0,0.0,-1.1057,-1.104,-1.1045,-1.1156,-1.0911,-1.1021,-1.1623,-1.1623,-1.1514,-1.1181,-1.1126,-1.0911,-1.0421,-1.0091,-0.9816,-0.9541,-0.9203,-0.8923,-0.865,-0.8595,-0.8429,-0.81,-0.8045,-0.7768,-0.7321,-0.7265,-0.6935,-0.6429,-0.6255,-0.5985,-0.5673,-0.5203,-0.4806,-0.4338,-0.3583,-0.3281,-0.3079,-0.2324,-0.2272,-0.2422,-0.2122,-0.2022,-0.1921,-0.1415,-0.1263,-0.101,-0.0303,-0.0051,0.0101,0.0606,0.096,0.1162,0.1162,0.1364,0.1617,0.187,0.1971,0.2122,0.2624,0.2928,0.3177,0.3469,0.3915,0.4311,0.4598,0.4729,0.4933,0.539,0.5343,0.5369,0.5586,0.5902,0.626,0.6659,0.6748,0.6972,0.7418,0.7462,0.7808,0.8504,0.8548,0.8771,0.9213,0.9432,0.9563,0.9602,1.0033,1.025,-0.1827,-0.2308,-0.2789,-0.3338,-0.395,-0.4442,-0.4685,0.0,-0.5689,-0.5689,-0.6257,-0.6784,-0.6874,-0.7253,-0.7669,-0.8021,-0.8157,0.0,-0.8886,0.0,0.0,0.0,0.0,0.0,0.0,0.0,-1.0046,-1.028,-1.0088,-1.0036,-1.0253,-1.0637,-1.0582,-1.0091,-1.0091,-0.9868,-0.9478,-0.9147,-0.8985,-0.8875,-0.854,-0.8318,-0.8211,-0.7875,-0.7654,-0.7487,-0.716,-0.6884,-0.6659,-0.6659,-0.6495,-0.6265,-0.5772,-0.5457,-0.5254,-0.4484,-0.3995,-0.3633,-0.3128,-0.2726,-0.2374,-0.192,-0.1717,-0.1667,-0.1566,-0.1516,-0.1415,-0.0859,-0.0606,-0.0354,0.0101,0.0505,0.0758,0.101,0.1263,0.1465,0.1667,0.1768,0.197,0.2373,0.2474,0.2675,0.3177,0.3479,0.3831,0.4282,0.4606,0.4984,0.5433,0.5596,0.5808,0.6065,0.5793,0.568,0.5902,0.6305,0.6659,0.6966,0.7149,0.737,0.7724,0.8028,0.8288,0.8592,0.8986,0.9297,0.9476,0.9864,1.0033,1.0033,1.0381,1.0598,-0.1139,-0.157,-0.196,-0.2585,-0.3056,-0.3496,0.0,0.0,-0.4692,-0.4816,-0.5389,-0.5883,-0.5969,-0.6427,-0.6874,-0.7136,-0.7363,-0.7627,-0.8009,0.0,0.0,0.0,0.0,-0.8949,0.0,-0.9112,-0.9137,-0.9405,-0.9154,-0.8933,-0.8881,-0.9265,-0.9372,-0.9154,-0.9154,-0.8985,-0.8647,-0.8263,-0.8097,-0.8097,-0.7712,-0.7493,-0.7493,-0.7102,-0.6935,-0.6935,-0.6495,-0.6219,-0.6047,-0.6047,-0.5935,-0.5708,-0.5088,-0.4777,-0.4621,-0.3779,-0.3244,-0.2927,-0.2574,-0.2222,-0.1819,-0.1465,-0.1162,-0.096,-0.0859,-0.0909,-0.0859,-0.0404,0.0051,0.0404,0.0606,0.101,0.1415,0.1415,0.1616,0.1869,0.207,0.2172,0.2374,0.2826,0.3027,0.3328,0.388,0.4182,0.4485,0.4985,0.5336,0.5689,0.6092,0.6385,0.6554,0.6611,0.6399,0.621,0.6308,0.6659,0.6969,0.7187,0.7459,0.7768,0.8116,0.8416,0.8679,0.8899,0.934,0.9689,0.982,1.012,1.0337,1.0424,1.0727,1.1068,-0.0432,-0.0746,-0.106,-0.1764,-0.2079,-0.2392,0.0,-0.3353,-0.3736,-0.4219,-0.4622,-0.498,-0.5158,-0.569,-0.6171,-0.6387,-0.6656,-0.6881,-0.7098,0.0,0.0,0.0,0.0,-0.8199,-0.866,-0.8474,-0.8381,-0.853,-0.8211,-0.7881,-0.7607,-0.7607,-0.7881,-0.8484,-0.8484,-0.8374,-0.7989,-0.7487,-0.721,-0.721,-0.6606,-0.633,-0.633,-0.633,-0.633,-0.633,-0.633,-0.5935,-0.5427,-0.5427,-0.5037,-0.4479,-0.4147,-0.3788,-0.3459,-0.3143,-0.276,-0.2321,-0.1818,-0.1617,-0.1516,-0.096,-0.0606,-0.0354,-0.0101,-0.0202,-0.0354,-0.0101,0.0556,0.1212,0.1212,0.1566,0.1971,0.1971,0.2222,0.2371,0.2371,0.2623,0.2876,0.313,0.3632,0.4133,0.4684,0.4987,0.529,0.5536,0.6034,0.6387,0.6387,0.6822,0.7129,0.718,0.7316,0.7218,0.6805,0.6966,0.7231,0.7462,0.7768,0.8116,0.8592,0.8592,0.8899,0.9559,0.9602,0.9816,1.0294,1.0294,1.0424,1.0727,1.1111,1.1671,0.0353,-0.0118,-0.0589,-0.0942,-0.1412,-0.1881,-0.2194,-0.2484,-0.2774,-0.3171,-0.3574,-0.3873,-0.4147,-0.4665,-0.5148,-0.5398,-0.568,-0.5994,0.0,0.0,0.0,0.0,-0.732,-0.7491,0.0,0.0,-0.7544,-0.7454,-0.7274,-0.7049,-0.6993,-0.6829,-0.6884,-0.7268,-0.7268,-0.716,-0.6829,-0.6662,-0.6606,-0.6606,-0.6386,-0.6274,-0.6274,-0.6049,-0.5877,-0.5652,-0.5433,-0.5152,-0.4758,-0.4538,-0.4314,-0.4091,-0.3586,-0.3294,-0.309,-0.2344,-0.198,-0.1768,-0.1263,-0.0909,-0.0707,-0.0354,-0.0051,0.0202,0.0455,0.0354,0.0253,0.0707,0.1263,0.1768,0.1768,0.202,0.2271,0.2271,0.2473,0.2725,0.2927,0.3278,0.3731,0.4183,0.4585,0.4937,0.5286,0.5589,0.5842,0.6087,0.6439,0.6739,0.6939,0.74,0.7664,0.7612,0.7842,0.7826,0.7337,0.7496,0.7804,0.8245,0.8332,0.8596,0.9038,0.9209,0.9384,0.9602,0.9907,1.0164,1.0294,1.0608,1.1041,1.1585,1.2057,1.2491,0.0,0.0585,0.0118,-0.0079,-0.051,0.0,0.0,-0.1491,-0.1765,-0.2353,-0.2637,-0.2944,-0.3345,-0.385,-0.4282,-0.4548,-0.4879,-0.5238,0.0,0.0,0.0,0.0,0.0,0.0,0.0,-0.6673,-0.6741,-0.6642,-0.6596,-0.6492,-0.6381,-0.6216,-0.6102,-0.6044,-0.6381,-0.6495,-0.6274,-0.6161,-0.6105,-0.6105,-0.5882,-0.577,-0.577,-0.5431,-0.5206,-0.5037,-0.4706,-0.4426,0.0,-0.3811,-0.3589,-0.3475,-0.2839,-0.2566,-0.2449,-0.1692,-0.1295,-0.1061,-0.0657,-0.0303,-0.0051,0.0354,0.0707,0.106,0.1312,0.1161,0.096,0.1515,0.1868,0.2171,0.2171,0.2423,0.2724,0.2724,0.3078,0.343,0.3633,0.4085,0.4535,0.4887,0.5238,0.5589,0.5837,0.6139,0.6392,0.6637,0.6942,0.7194,0.7487,0.7885,0.8178,0.8263,0.8437,0.8463,0.818,0.8147,0.8288,0.8592,0.8771,0.9034,0.9388,0.9515,0.9689,0.9864,1.0164,1.0386,1.0559,1.1046,1.1602,1.2272,1.2662,1.3094,0.0,0.1421,0.0,0.0,0.0,0.0,-0.0393,-0.051,0.0,-0.1647,-0.1876,-0.2082,-0.2758,-0.3161,-0.3491,-0.3746,-0.4255,-0.4616,0.0,0.0,0.0,0.0,-0.5739,0.0,-0.5723,-0.5829,-0.5936,-0.5988,-0.6093,-0.6042,-0.571,-0.571,-0.5431,-0.4873,-0.5714,-0.6163,-0.6163,-0.588,-0.571,-0.571,-0.5152,-0.4873,-0.4819,-0.4592,-0.4424,-0.4369,-0.4091,-0.3757,-0.3475,-0.3138,-0.2859,-0.252,-0.1981,-0.1731,-0.1648,-0.1045,-0.0616,-0.0253,0.0,0.0253,0.0606,0.1111,0.1615,0.2068,0.2371,0.207,0.1768,0.227,0.2422,0.2472,0.2471,0.2875,0.3281,0.3281,0.3885,0.4438,0.4438,0.4891,0.529,0.529,0.5741,0.6142,0.6437,0.6639,0.6942,0.7188,0.7444,0.7693,0.7988,0.8283,0.8576,0.9007,0.9029,0.9128,0.9216,0.888,0.8636,0.8679,0.9082,0.9432,0.9602,0.9646,0.9864,1.0294,1.0337,1.0603,1.1051,1.1527,1.2118,1.2747,1.3052,1.3525,0.3449,0.0,0.1724,0.1601,0.1177,0.0668,0.0,0.0196,-0.0118,0.0,0.0,0.0,-0.1585,-0.2109,-0.2445,-0.2586,-0.3138,-0.363,-0.381,0.0,0.0,-0.4964,-0.5035,-0.4995,-0.4768,-0.4846,-0.4882,-0.4708,-0.4792,-0.481,-0.4812,-0.4815,-0.476,-0.4592,-0.4815,-0.4929,-0.4929,-0.4871,-0.4815,-0.4815,-0.4648,-0.4482,-0.4204,-0.4148,-0.3867,-0.3417,-0.3362,-0.3027,-0.2524,-0.2243,-0.1907,-0.1567,-0.1266,-0.0974,-0.0692,-0.0314,0.0103,0.0556,0.0808,0.1212,0.1665,0.2018,0.222,0.2371,0.2876,0.2624,0.227,0.2623,0.2876,0.3078,0.3277,0.3578,0.3883,0.4086,0.4437,0.4786,0.4989,0.5589,0.6137,0.6137,0.6537,0.6939,0.6989,0.7089,0.7191,0.7444,0.7547,0.7793,0.8237,0.8528,0.8913,0.942,0.9545,0.9643,0.9641,0.9317,0.9209,0.934,0.9471,0.9646,0.9907,1.0033,1.0207,1.0294,1.0809,1.1203,1.1527,1.216,1.2711,1.3264,1.3659,1.4117,0.4452,0.3413,0.2466,0.2422,0.1945,0.1452,0.1256,0.0,0.0,0.0,0.0,0.0,0.0,0.0,0.0,-0.1649,-0.2287,0.0,0.0,0.0,0.0,-0.4066,-0.4083,-0.4034,-0.3885,-0.3946,-0.4005,-0.3888,-0.3956,-0.4011,-0.4047,-0.4024,-0.3986,-0.3875,-0.3849,-0.3977,-0.4258,-0.4258,-0.4203,-0.4089,-0.3921,-0.3754,-0.3587,-0.3309,-0.2973,-0.2691,-0.241,-0.2074,-0.1739,-0.1346,-0.106,-0.0885,-0.0489,-0.0214,0.0,0.0413,0.0815,0.1212,0.1464,0.1917,0.2422,0.2674,0.2826,0.3027,0.343,0.3429,0.3328,0.3328,0.3531,0.3784,0.3932,0.4234,0.4585,0.4738,0.5138,0.5586,0.5739,0.6287,0.6786,0.6786,0.6986,0.7238,0.7341,0.7391,0.749,0.7892,0.7992,0.8137,0.8684,0.8981,0.9324,0.9723,0.9999,1.0091,0.999,0.9836,0.9707,0.9611,0.9733,0.9907,1.0125,1.025,1.0424,1.0766,1.1251,1.1725,1.216,1.2534,1.3052,1.3743,1.3997,1.4377,0.5232,0.4257,0.3312,0.3212,0.2772,0.2313,0.2116,0.0,0.0,0.0,0.0,0.0,0.0,0.0,0.0,0.0,0.0,0.0,-0.27,-0.2764,-0.2804,-0.2963,-0.2977,-0.2977,-0.2977,-0.3068,-0.3151,-0.3211,-0.3258,-0.3289,-0.33,-0.3293,-0.3156,-0.2883,-0.2924,-0.3114,-0.3561,-0.3691,-0.3589,-0.3363,-0.3082,-0.2858,-0.2802,-0.2299,-0.202,-0.1907,-0.1402,-0.112,-0.1005,-0.0503,-0.0276,-0.0163,0.032,0.0578,0.0725,0.117,0.1515,0.1818,0.2119,0.2573,0.3026,0.3229,0.3482,0.3786,0.4034,0.4286,0.4487,0.4334,0.4386,0.4539,0.464,0.4989,0.534,0.5441,0.5989,0.6487,0.6537,0.6886,0.7238,0.7238,0.7288,0.7388,0.7693,0.7743,0.7892,0.8382,0.8482,0.8684,0.9183,0.948,0.9776,1.0068,1.0369,1.0459,1.0315,1.0368,1.0211,0.9791,0.9951,1.0168,1.0424,1.0463,1.0766,1.137,1.1688,1.2118,1.2705,1.2833,1.3349,1.4166,1.4215,1.4587,0.5818,0.5329,0.4736,0.4164,0.3498,0.2937,0.2937,0.0,0.0,0.0,0.0,0.0,0.0,0.0,0.0,0.0,0.0,-0.1138,0.0,0.0,-0.1741,-0.1858,0.0,-0.1865,-0.1865,-0.187,-0.1988,-0.2278,-0.2286,-0.2359,-0.2395,-0.2403,-0.2299,-0.2032,-0.1984,-0.1932,-0.1718,-0.2212,-0.2468,-0.2412,-0.2131,-0.185,-0.157,-0.1458,-0.1177,-0.0673,-0.0561,-0.0278,0.0165,0.0219,0.0543,0.0961,0.1049,0.1353,0.1759,0.1829,0.217,0.2675,0.318,0.3581,0.3831,0.3883,0.4034,0.4338,0.4585,0.4887,0.514,0.5591,0.5391,0.519,0.5641,0.5792,0.5992,0.6442,0.6642,0.6792,0.7039,0.7341,0.7543,0.7543,0.7739,0.7939,0.8233,0.8283,0.8382,0.8676,0.8931,0.9183,0.948,0.9776,1.0117,1.0605,1.0725,1.075,1.0788,1.0818,1.0719,1.0536,1.0381,1.0506,1.1106,1.1154,1.1375,1.1866,1.2326,1.2619,1.2705,1.3483,1.4033,1.4356,1.4748,1.509,0.6412,0.6054,0.5669,0.5188,0.4412,0.3759,0.3682,0.0,0.0,0.0,0.0,0.0,0.0,0.0,0.1269,0.0805,0.0,-0.0228,-0.0616,-0.0668,-0.0774,-0.0954,-0.0959,-0.1009,-0.1161,-0.1161,-0.1216,-0.1379,-0.138,-0.1386,-0.1449,-0.1464,-0.1418,-0.1313,-0.1166,-0.1012,-0.0852,-0.0812,-0.1037,-0.1475,-0.12,-0.1037,-0.0874,-0.0546,-0.0218,0.0055,0.0327,0.0597,0.0862,0.1186,0.144,0.1626,0.1822,0.2114,0.2449,0.2781,0.3126,0.3481,0.3734,0.3986,0.4236,0.4384,0.4638,0.4889,0.5338,0.5639,0.5939,0.6342,0.6142,0.5939,0.6342,0.6542,0.6689,0.6939,0.7144,0.7244,0.7394,0.7643,0.7842,0.7988,0.8137,0.8283,0.8581,0.8733,0.8931,0.9179,0.9476,0.9727,1.0019,1.0413,1.0752,1.0998,1.1292,1.1361,1.1159,1.1124,1.098,1.0715,1.0809,1.0982,1.1278,1.1671,1.2063,1.2375,1.2711,1.3094,1.3483,1.387,1.4334,1.4783,1.4999,1.5257,0.7028,0.6739,0.6452,0.6133,0.0,0.4618,0.4348,0.0,0.0,0.0,0.0,0.0,0.0,0.2459,0.0,0.1208,0.0807,0.0546,0.0379,0.0238,0.0145,0.0,-0.0101,-0.0202,-0.0404,-0.0404,-0.0455,-0.0505,-0.0505,-0.0505,-0.0505,-0.0563,-0.0568,-0.0516,-0.0313,-0.0158,-0.0105,0.0369,0.0212,-0.0587,-0.0266,-0.0107,-0.0107,0.0426,0.0745,0.0799,0.1224,0.1488,0.1641,0.2118,0.2304,0.242,0.2679,0.2911,0.3127,0.3528,0.388,0.4183,0.4183,0.4386,0.4738,0.4987,0.5238,0.5589,0.6042,0.6389,0.6637,0.6895,0.6842,0.6739,0.6945,0.7141,0.7291,0.7388,0.754,0.7693,0.7793,0.7939,0.8187,0.8432,0.8531,0.8684,0.8928,0.9229,0.948,0.9821,1.0117,1.0364,1.0659,1.1096,1.1389,1.1389,1.1834,1.1943,1.1574,1.1486,1.1363,1.1094,1.137,1.1585,1.1628,1.2229,1.2662,1.2918,1.3179,1.361,1.4166,1.4292,1.4587,1.509,1.5208,1.5416,0.7707,0.7429,0.7088,0.6857,0.616,0.0,0.5043,0.4616,0.0,0.4228,0.0,0.0,0.0,0.3263,0.2684,0.2153,0.166,0.1366,0.1375,0.1001,0.0822,0.1056,0.0859,0.0707,0.0707,0.0707,0.0606,0.0354,0.0303,0.0303,0.0303,0.0303,0.0405,0.0658,0.071,0.0811,0.1065,0.1115,0.0877,0.0319,0.0852,0.1065,0.1065,0.1385,0.1704,0.1971,0.2024,0.2322,0.2807,0.2807,0.3084,0.3484,0.3534,0.3684,0.3932,0.3932,0.4284,0.4734,0.4734,0.5085,0.5536,0.5839,0.6089,0.6387,0.6642,0.6942,0.7188,0.7444,0.7547,0.7497,0.7547,0.7547,0.7643,0.7889,0.7942,0.8038,0.8283,0.8382,0.8432,0.8726,0.8981,0.9236,0.948,0.9776,1.0117,1.0659,1.0949,1.1194,1.1487,1.178,1.1927,1.1927,1.2224,1.2374,1.231,1.2092,1.2029,1.2277,1.232,1.2406,1.2577,1.2881,1.3222,1.3603,1.387,1.4159,1.4398,1.4831,1.5048,1.509,1.5492,1.565,0.812,0.7919,0.7593,0.7171,0.6935,0.0,0.0,0.5354,0.5115,0.5042,0.4748,0.0,0.0,0.0,0.3183,0.2734,0.2356,0.2123,0.1996,0.1879,0.1764,0.1711,0.1615,0.1463,0.1312,0.1312,0.1261,0.116,0.116,0.116,0.116,0.116,0.1211,0.1312,0.1463,0.1615,0.1716,0.2019,0.2084,0.1906,0.175,0.1802,0.1957,0.2214,0.2524,0.2783,0.2935,0.3127,0.3363,0.3516,0.3704,0.3882,0.4232,0.4433,0.4533,0.4885,0.5135,0.5336,0.5489,0.5787,0.6137,0.6392,0.6689,0.6939,0.7194,0.7344,0.7494,0.7793,0.7842,0.7842,0.7842,0.7992,0.8137,0.8233,0.8382,0.8531,0.8627,0.8783,0.8981,0.9229,0.9525,0.9821,1.0265,1.056,1.085,1.1243,1.1541,1.1736,1.1834,1.2224,1.2521,1.2521,1.2685,1.2846,1.2837,1.2756,1.2802,1.3009,1.2747,1.2747,1.3137,1.3525,1.3864,1.4153,1.4363,1.458,1.4831,1.4999,1.5208,1.5492,1.5616,1.5858,0.8594,0.8399,0.8118,0.0,0.0,0.0,0.6595,0.617,0.5872,0.5776,0.5452,0.0,0.4721,0.0,0.0,0.0,0.3055,0.284,0.2759,0.2617,0.2518,0.2515,0.237,0.2219,0.2118,0.2118,0.2118,0.2118,0.2118,0.2068,0.1967,0.2068,0.2068,0.1967,0.2219,0.2421,0.252,0.2874,0.3077,0.3177,0.2823,0.2672,0.2773,0.3077,0.3279,0.3482,0.363,0.378,0.3882,0.4133,0.4334,0.4533,0.4885,0.5085,0.5236,0.5586,0.5837,0.5989,0.6192,0.6439,0.6686,0.6942,0.7194,0.7391,0.7743,0.7842,0.7892,0.8187,0.8237,0.8237,0.8237,0.8333,0.8432,0.863,0.8779,0.8977,0.9126,0.9327,0.9579,0.992,1.0216,1.0511,1.0949,1.1292,1.1536,1.1834,1.2029,1.2175,1.2322,1.2662,1.3007,1.3244,1.3391,1.3507,1.3559,1.3492,1.353,1.3695,1.3428,1.3385,1.3688,1.4075,1.4412,1.4615,1.4741,1.4957,1.5173,1.5257,1.545,1.5692,1.5858,1.6147,0.9176,0.8949,0.0,0.0,0.0,0.0,0.7599,0.7022,0.6535,0.6343,0.5984,0.5633,0.546,0.479,0.0,0.43,0.3786,0.3495,0.3757,0.3247,0.3013,0.3521,0.3127,0.2927,0.318,0.323,0.323,0.323,0.323,0.3079,0.2826,0.3079,0.3079,0.2826,0.3079,0.333,0.3578,0.3629,0.3729,0.4033,0.4033,0.3882,0.3629,0.3882,0.3982,0.4033,0.4033,0.4185,0.4438,0.4686,0.5135,0.5586,0.5586,0.5789,0.5992,0.5992,0.6342,0.6795,0.6795,0.6992,0.7238,0.7494,0.7596,0.7693,0.8233,0.8382,0.8482,0.8726,0.8825,0.8825,0.8825,0.8627,0.8531,0.9084,0.9187,0.9381,0.9875,1.0019,1.0167,1.0703,1.0998,1.1292,1.1536,1.1829,1.2078,1.237,1.2419,1.2565,1.305,1.3098,1.3431,1.4202,1.4305,1.4404,1.4572,1.4374,1.4259,1.4412,1.4398,1.4398,1.4398,1.4608,1.4824,1.509,1.509,1.5215,1.5389,1.5616,1.5692,1.5733,1.6188,1.6517,0.932,0.9133,0.0,0.8727,0.0,0.0,0.0,0.7675,0.0,0.0,0.6576,0.6302,0.5722,0.5411,0.5168,0.4699,0.4376,0.4184,0.417,0.3854,0.3707,0.3879,0.3731,0.3681,0.3732,0.3783,0.3783,0.3783,0.3783,0.3732,0.363,0.3732,0.3732,0.363,0.3732,0.3781,0.3882,0.4232,0.4483,0.4583,0.4935,0.4784,0.4185,0.4236,0.4487,0.4839,0.4839,0.4987,0.5236,0.5336,0.5586,0.5889,0.6087,0.6339,0.6592,0.6789,0.6939,0.7089,0.7294,0.7394,0.7543,0.7793,0.7988,0.8187,0.8333,0.8531,0.873,0.8981,0.9084,0.9179,0.9521,0.9719,0.9768,0.9529,0.992,1.0364,1.0511,1.0855,1.1145,1.134,1.159,1.1834,1.2127,1.237,1.2613,1.2856,1.305,1.334,1.3865,1.3962,1.425,1.501,1.505,1.5087,1.5098,1.4984,1.4898,1.4894,1.4873,1.4873,1.4873,1.4957,1.509,1.5305,1.5458,1.5533,1.5616,1.5873,1.6031,1.6188,1.6484,1.673,0.968,0.0,0.0,0.0,0.8784,0.8596,0.836,0.0,0.0,0.0,0.7088,0.6789,0.634,0.5941,0.5581,0.5286,0.5024,0.4793,0.4791,0.4583,0.4535,0.4634,0.4433,0.4384,0.4485,0.4384,0.4334,0.4334,0.4334,0.4284,0.4185,0.4384,0.4435,0.4334,0.4533,0.4634,0.4634,0.4935,0.5135,0.5135,0.5436,0.5386,0.5039,0.4939,0.5037,0.5388,0.5491,0.5739,0.6089,0.6089,0.6239,0.6489,0.6639,0.6889,0.7144,0.7291,0.749,0.7686,0.7839,0.7988,0.8088,0.8283,0.8432,0.8581,0.8829,0.8977,0.9225,0.9723,0.9821,0.992,1.0364,1.0654,1.0757,1.0364,1.0708,1.1145,1.1243,1.1541,1.1829,1.2029,1.2224,1.2419,1.2759,1.2958,1.3104,1.3249,1.3582,1.3919,1.425,1.4634,1.5064,1.5486,1.5765,1.586,1.5777,1.5604,1.5475,1.5424,1.5364,1.5333,1.5333,1.5333,1.5416,1.5499,1.5748,1.5865,1.5865,1.6121,1.6278,1.6394,1.673,1.7009,1.0079,0.0,0.0,0.0,0.9166,0.0,0.8679,0.83,0.7975,0.7932,0.0,0.7139,0.7095,0.6384,0.5855,0.5942,0.5639,0.5463,0.5584,0.5433,0.5388,0.5586,0.5186,0.4987,0.524,0.5037,0.4885,0.4885,0.4885,0.4786,0.4539,0.4989,0.5138,0.4885,0.5334,0.5586,0.5586,0.5634,0.5684,0.5684,0.5734,0.5887,0.6092,0.5787,0.5687,0.5737,0.5989,0.6392,0.6892,0.6892,0.7042,0.7288,0.7288,0.749,0.7693,0.7693,0.8041,0.8432,0.8482,0.863,0.8825,0.8874,0.8874,0.9023,0.9476,0.9677,0.9871,1.0605,1.0855,1.0949,1.1194,1.1487,1.1639,1.1389,1.1487,1.1731,1.2029,1.2078,1.2273,1.2764,1.2861,1.3007,1.3443,1.3539,1.3539,1.3588,1.4064,1.4394,1.4442,1.5207,1.5832,1.5879,1.6353,1.661,1.6528,1.628,1.6059,1.5935,1.5831,1.5771,1.5733,1.5733,1.5733,1.5733,1.5997,1.6128,1.6128,1.636,1.6476,1.6476,1.6968,1.7383,1.0115,0.9961,0.0,0.0,0.0,0.9138,0.8696,0.8653,0.8591,0.819,0.7914,0.7588,0.7183,0.6918,0.6735,0.6616,0.6347,0.6252,0.6473,0.6323,0.6089,0.5942,0.5789,0.5689,0.5536,0.5486,0.5434,0.5434,0.5434,0.5386,0.5336,0.5436,0.5486,0.5434,0.5536,0.5586,0.5586,0.6037,0.6237,0.6237,0.6637,0.6886,0.6939,0.6239,0.6142,0.6542,0.6839,0.7135,0.7434,0.7434,0.7733,0.8134,0.8134,0.8283,0.8528,0.8528,0.8627,0.8726,0.8931,0.9084,0.9133,0.9377,0.9575,0.9772,0.9871,1.0216,1.0605,1.0998,1.1292,1.1487,1.178,1.2029,1.2273,1.2419,1.2322,1.2322,1.257,1.2759,1.2953,1.3298,1.3346,1.3394,1.3491,1.369,1.3979,1.4406,1.4742,1.5077,1.5445,1.5683,1.6021,1.669,1.6838,1.689,1.6841,1.6889,1.6692,1.6186,1.6302,1.6278,1.6012,1.5997,1.5997,1.5997,1.6237,1.636,1.636,1.6771,1.6968,1.6968,1.7546,1.7829,0.0,0.0,0.0,0.0,0.0,0.0,0.9,0.8934,0.8823,0.86,0.8292,0.7937,0.7672,0.7448,0.7238,0.7172,0.6932,0.6834,0.6953,0.6889,0.6739,0.6589,0.6442,0.6289,0.5987,0.5887,0.5737,0.5586,0.5586,0.5586,0.5586,0.5737,0.5839,0.5984,0.6087,0.6239,0.6384,0.6637,0.6786,0.6786,0.7185,0.7534,0.7736,0.7086,0.7039,0.7587,0.7736,0.7932,0.8177,0.8177,0.8326,0.8577,0.8577,0.8676,0.8825,0.8928,0.9076,0.9225,0.948,0.9772,0.9969,1.0117,1.0364,1.0609,1.0708,1.0949,1.1292,1.1683,1.1883,1.2078,1.2419,1.2613,1.2807,1.3055,1.291,1.2807,1.3104,1.3201,1.3394,1.3642,1.3781,1.3919,1.4064,1.431,1.4598,1.4968,1.5261,1.5547,1.592,1.6211,1.6548,1.6979,1.7214,1.7328,1.7291,1.7356,1.7251,1.6903,1.6802,1.6719,1.6674,1.6627,1.6451,1.6245,1.6566,1.6722,1.6722,1.7172,1.7375,1.7416,1.7951,1.8273,0.0,0.0,0.0,0.0,0.0,0.0,0.9322,0.9188,0.9043,0.8911,0.8556,0.8245,0.8201,0.7889,0.764,0.7636,0.7496,0.7406,0.7397,0.7388,0.7388,0.7288,0.7092,0.6842,0.6587,0.6339,0.6089,0.5887,0.5887,0.5887,0.5887,0.6089,0.6289,0.6537,0.6789,0.7042,0.7285,0.7335,0.7388,0.7385,0.7683,0.8081,0.8531,0.8131,0.8131,0.8482,0.8482,0.863,0.8874,0.8924,0.8973,0.9023,0.9072,0.9072,0.9122,0.9381,0.9628,0.9875,1.0167,1.056,1.0949,1.0998,1.1145,1.1394,1.1585,1.1736,1.1883,1.2322,1.2516,1.2662,1.305,1.3147,1.3249,1.3491,1.3443,1.334,1.3539,1.3588,1.3732,1.3979,1.4256,1.4538,1.4783,1.5029,1.5309,1.5534,1.5778,1.6015,1.6292,1.6777,1.7073,1.712,1.7488,1.7768,1.7768,1.7743,1.7735,1.7673,1.7363,1.7262,1.7363,1.7317,1.7073,1.664,1.7009,1.7212,1.7212,1.7619,1.7821,1.7893,1.8353,1.8754,0.0,0.0,0.0,0.0,0.0,1.0024,0.0,0.0,0.9694,0.0,0.8696,0.8476,0.8245,0.8157,0.8135,0.8192,0.8149,0.8167,0.8238,0.8233,0.8084,0.7593,0.7497,0.7394,0.7138,0.7039,0.7039,0.6989,0.6989,0.6989,0.6989,0.7039,0.7039,0.7086,0.7335,0.7531,0.7531,0.8031,0.8233,0.8233,0.8528,0.8779,0.9084,0.9278,0.9126,0.8726,0.8726,0.8878,0.9183,0.9381,0.9624,0.9871,1.0113,1.0212,1.0212,1.0507,1.0609,1.0703,1.1194,1.1438,1.1541,1.178,1.1878,1.1883,1.1932,1.2273,1.2667,1.2716,1.3055,1.3346,1.3443,1.3443,1.3491,1.3786,1.4016,1.4106,1.3883,1.4016,1.425,1.4544,1.479,1.5077,1.5248,1.554,1.5778,1.6048,1.6339,1.6588,1.6878,1.7106,1.7333,1.7581,1.7854,1.804,1.804,1.8241,1.8233,1.7877,1.8232,1.8169,1.7574,1.7929,1.7953,1.7538,1.7578,1.7619,1.7619,1.8072,1.8393,1.8576,1.8984,1.9311,1.0932,0.0,0.0,0.0,0.0,1.0314,0.978,0.0,0.9864,0.9388,0.913,0.8867,0.8472,0.8428,0.8451,0.8517,0.852,0.8543,0.8632,0.8627,0.8482,0.8088,0.8038,0.7889,0.7441,0.7444,0.7341,0.7188,0.7335,0.7431,0.7431,0.7587,0.7736,0.7885,0.7982,0.8131,0.8276,0.8528,0.8779,0.908,0.9324,0.9624,0.9871,1.0167,0.9965,0.9472,0.962,0.9768,0.9871,1.0019,1.0216,1.0462,1.056,1.0703,1.09,1.1145,1.1243,1.1292,1.1688,1.2024,1.2273,1.2419,1.2613,1.2856,1.2856,1.3001,1.3201,1.3201,1.3346,1.3588,1.3871,1.3968,1.4064,1.4454,1.4646,1.4736,1.4736,1.4736,1.4885,1.5261,1.554,1.5778,1.6008,1.6157,1.6393,1.6763,1.6904,1.7145,1.7581,1.7714,1.78,1.79,1.8141,1.8326,1.8326,1.8651,1.881,1.8651,1.8783,1.8743,1.8463,1.8456,1.8458,1.8434,1.8224,1.8144,1.8256,1.8705,1.8993,1.9192,1.9508,1.9824,0.0,0.0,0.0,0.0,0.0,0.0,0.0,0.0,1.0019,0.0,0.9519,0.9262,0.8872,0.8784,0.8799,0.8874,0.8963,0.8954,0.8916,0.8947,0.8878,0.8531,0.8478,0.8333,0.7939,0.7892,0.7839,0.7633,0.7783,0.7928,0.7928,0.8084,0.8287,0.8482,0.863,0.8779,0.9027,0.9122,0.9422,0.9826,1.0068,1.0314,1.0507,1.0855,1.0801,1.0507,1.056,1.0609,1.0609,1.0654,1.085,1.1096,1.1194,1.1389,1.1634,1.1878,1.1975,1.2024,1.2273,1.2662,1.2958,1.2958,1.3201,1.3491,1.3491,1.3588,1.3678,1.3678,1.3781,1.4022,1.44,1.4538,1.4682,1.507,1.5267,1.5404,1.5486,1.5452,1.5499,1.5927,1.615,1.6386,1.6636,1.673,1.6911,1.7333,1.7473,1.766,1.804,1.8141,1.8179,1.8179,1.8473,1.8658,1.8658,1.9066,1.9288,1.9288,1.9307,1.9303,1.9264,1.9237,1.923,1.9245,1.9066,1.8932,1.8944,1.9262,1.9587,1.9872,2.002,2.0333,0.0,0.0,0.0,0.0,0.0,0.0,0.0,0.0,1.0224,1.0038,0.9777,0.9519,0.9305,0.9262,0.9283,0.9444,0.9627,0.9622,0.9336,0.9417,0.9377,0.8825,0.8775,0.8775,0.8726,0.8726,0.8726,0.8726,0.8726,0.8726,0.8726,0.8775,0.8775,0.8775,0.9274,0.9529,0.9579,1.0068,1.031,1.0364,1.0605,1.0757,1.0801,1.134,1.1683,1.1878,1.1389,1.1145,1.1198,1.1438,1.1688,1.198,1.2224,1.2467,1.2759,1.2953,1.3001,1.305,1.3346,1.3443,1.3443,1.3443,1.3491,1.3491,1.3491,1.3871,1.425,1.425,1.464,1.5035,1.5035,1.5213,1.5343,1.5391,1.5764,1.6103,1.5825,1.5961,1.6244,1.6487,1.6581,1.6683,1.6932,1.7153,1.738,1.7628,1.7908,1.8087,1.8087,1.8326,1.8481,1.8481,1.8881,1.9142,1.9142,1.9433,1.9587,1.9587,2.0011,2.0041,1.9692,2.0489,2.0644,1.9875,2.0255,2.0188,1.9557,1.9784,2.0098,2.0566,2.0566,2.077,0.0,0.0,0.0,0.0,1.098,1.0936,1.0665,1.0651,1.0626,1.0466,1.025,1.0033,0.9951,0.9607,0.9328,0.948,0.9563,0.967,0.9797,0.99,0.9839,0.9608,0.9571,0.9521,0.9327,0.9179,0.913,0.9278,0.9327,0.9377,0.9571,0.9719,0.9817,0.9817,1.0015,1.0117,1.0117,1.0659,1.09,1.09,1.1541,1.1829,1.1834,1.2316,1.2613,1.271,1.2662,1.2516,1.2224,1.2322,1.2516,1.271,1.2807,1.3001,1.3249,1.3346,1.3346,1.3394,1.3673,1.3865,1.4064,1.4208,1.4406,1.455,1.455,1.4646,1.4831,1.4962,1.5153,1.535,1.573,1.5866,1.5961,1.615,1.6447,1.6683,1.6595,1.6643,1.673,1.6831,1.7113,1.7347,1.7441,1.7667,1.79,1.8148,1.8288,1.8419,1.855,1.8781,1.8966,1.8966,1.925,1.9442,1.9442,1.9799,2.0073,2.0073,2.051,2.0686,2.0595,2.0934,2.1107,2.118,2.1334,2.1028,2.0255,2.0294,2.0566,2.1012,2.1012,2.1118,1.1855,0.0,0.0,0.0,0.0,1.1138,1.1044,1.0955,1.0908,1.0881,1.0727,1.0511,1.0467,1.0081,0.9735,0.97,0.9732,0.9826,0.9997,1.0147,1.018,1.0059,1.0079,1.0068,0.9871,0.9727,0.9677,0.9875,0.9871,0.9969,1.0117,1.0314,1.0462,1.0654,1.0654,1.0752,1.0953,1.1394,1.1585,1.159,1.2322,1.2662,1.2802,1.319,1.348,1.363,1.3829,1.3588,1.3055,1.3055,1.3152,1.3394,1.3485,1.3678,1.3925,1.4022,1.4022,1.407,1.425,1.4436,1.4675,1.4873,1.5118,1.5315,1.5315,1.541,1.5499,1.5629,1.5717,1.5866,1.6244,1.6386,1.6534,1.677,1.7066,1.7214,1.7214,1.7214,1.7214,1.7214,1.7535,1.7815,1.7815,1.8048,1.828,1.8481,1.8612,1.8789,1.892,1.915,1.9379,1.9417,1.9662,1.9853,1.9945,2.0391,2.0663,2.0663,2.1096,2.1416,2.1546,2.1702,2.1902,2.2195,2.2278,2.2005,2.1362,2.1135,2.1113,2.132,2.132,2.1436,0.0,0.0,0.0,0.0,0.0,0.0,1.1787,0.0,1.1007,1.1262,1.1149,1.0939,1.0771,1.0727,1.0554,1.0081,1.017,1.0223,0.9957,1.025,1.0405,1.0171,1.0285,1.0444,1.0444,1.04,1.0453,1.0453,1.0458,1.0462,1.0462,1.0462,1.0708,1.1194,1.1243,1.1487,1.2029,1.2273,1.2419,1.2419,1.2905,1.3286,1.3559,1.3806,1.4202,1.4694,1.4736,1.4256,1.3539,1.3539,1.369,1.3979,1.4202,1.449,1.4736,1.5035,1.5131,1.5131,1.5131,1.5261,1.5432,1.5439,1.5629,1.5825,1.5825,1.6008,1.619,1.6237,1.6433,1.6629,1.6629,1.6831,1.7066,1.7286,1.7527,1.7721,1.7721,1.7721,1.7721,1.7721,1.7955,1.8087,1.8087,1.8334,1.8527,1.8527,1.8928,1.9188,1.9234,1.9433,1.9716,1.9882,2.0155,2.0428,2.0699,2.1159,2.1446,2.1437,2.1874,2.223,2.2441,2.2872,2.3026,2.2827,2.308,2.3121,2.2931,2.2281,2.1786,2.1522,2.155,2.1731,1.2489,0.0,0.0,0.0,0.0,0.0,1.1791,0.0,1.1647,1.1719,1.1592,1.1499,1.1413,1.1154,1.0852,1.0727,1.0479,1.0269,1.0208,1.0417,1.0586,1.0687,1.0894,1.1069,1.1069,1.1025,1.1067,1.1264,1.1259,1.134,1.1536,1.1536,1.1634,1.1785,1.198,1.2127,1.2273,1.2894,1.3178,1.3178,1.3913,1.4304,1.4394,1.464,1.4838,1.4981,1.5159,1.5057,1.4867,1.4742,1.47,1.4796,1.4838,1.5022,1.5201,1.5302,1.5445,1.5642,1.5825,1.5913,1.6001,1.6197,1.6298,1.6393,1.6393,1.644,1.6534,1.673,1.6965,1.7192,1.7567,1.7761,1.7807,1.7846,1.7947,1.7994,1.7994,1.8148,1.8241,1.8048,1.8195,1.8381,1.8381,1.8558,1.8789,1.8974,1.9104,1.9325,1.9654,1.9928,2.0209,2.0473,2.0843,2.1122,2.1212,2.1651,2.1963,2.2087,2.2451,2.2803,2.3198,2.3319,2.3531,2.3798,2.3884,2.3883,2.3856,2.3022,2.2561,2.2449,2.222,2.2214,0.0,0.0,0.0,0.0,0.0,0.0,1.2043,1.2,1.2025,1.2152,1.2135,1.2064,1.1997,1.1757,1.1499,1.1327,1.1068,1.0773,1.0519,1.0657,1.0805,1.0929,1.1161,1.1308,1.1308,1.1336,1.1412,1.1599,1.1716,1.184,1.1983,1.1983,1.2077,1.2272,1.256,1.2796,1.3044,1.3667,1.4004,1.4004,1.4592,1.4975,1.5166,1.5309,1.5506,1.5737,1.5974,1.6062,1.6062,1.6021,1.5784,1.541,1.5499,1.5635,1.5764,1.5961,1.6163,1.6353,1.6574,1.6716,1.6857,1.7012,1.7059,1.7043,1.7043,1.6902,1.68,1.6945,1.7082,1.7287,1.7789,1.7873,1.7911,1.8048,1.8187,1.828,1.828,1.8558,1.8697,1.8326,1.8465,1.8658,1.8789,1.8881,1.9058,1.9333,1.9517,1.9745,2.0019,2.0482,2.0843,2.1105,2.1472,2.175,2.1972,2.2318,2.2618,2.2838,2.3101,2.3406,2.3764,2.3807,2.398,2.4335,2.4454,2.4533,2.4598,2.3815,2.3347,2.3234,2.3154,2.3142,0.0,0.0,0.0,0.0,1.2489,0.0,1.2424,1.228,1.2259,1.2575,1.2624,1.2599,1.2529,1.2491,1.232,1.1935,1.1843,1.1542,1.0814,1.0906,1.1033,1.1033,1.1207,1.1375,1.1375,1.1578,1.168,1.168,1.193,1.2083,1.2135,1.2135,1.2324,1.2736,1.3064,1.3414,1.3909,1.4495,1.4806,1.4831,1.5124,1.5506,1.5927,1.5927,1.6211,1.6676,1.6972,1.7073,1.7073,1.7286,1.6817,1.5967,1.6244,1.6332,1.6433,1.6878,1.712,1.7167,1.7333,1.7498,1.7716,1.7716,1.7621,1.7522,1.7522,1.7279,1.7007,1.7043,1.7043,1.7111,1.7535,1.7612,1.7696,1.8041,1.8319,1.8481,1.8566,1.8928,1.9104,1.8713,1.8751,1.8966,1.9196,1.9234,1.9379,1.9633,2.0073,2.0382,2.0428,2.1069,2.1571,2.1785,2.2052,2.2407,2.2847,2.3057,2.3276,2.3547,2.3754,2.398,2.4196,2.4249,2.4368,2.454,2.4828,2.5073,2.5285,2.4587,2.4173,2.398,2.4187,2.4284,0.0,0.0,0.0,0.0,0.0,0.0,1.26,1.2585,1.2634,1.2823,1.2866,1.2984,1.3171,1.3052,1.2924,1.2839,1.2662,1.2149,1.1073,1.111,1.1223,1.1223,1.1451,1.1707,1.1838,1.2098,1.2254,1.2254,1.2434,1.2637,1.2865,1.2871,1.2985,1.3266,1.354,1.3805,1.4119,1.4873,1.5364,1.5594,1.6069,1.6447,1.6791,1.6791,1.6918,1.7185,1.7441,1.7535,1.7581,1.7854,1.7567,1.6998,1.7044,1.7239,1.7434,1.7535,1.7721,1.79,1.7947,1.7811,1.7629,1.7629,1.7408,1.7142,1.7142,1.7052,1.7043,1.7262,1.7298,1.7401,1.7683,1.7743,1.7829,1.8184,1.8316,1.8486,1.8948,1.915,1.9242,1.9358,1.9404,1.9442,1.9487,1.9662,1.9837,2.0119,2.0555,2.1006,2.1374,2.1741,2.2097,2.253,2.2794,2.3013,2.3329,2.3537,2.3797,2.4034,2.411,2.4196,2.4411,2.4658,2.4786,2.4818,2.5253,2.5559,2.577,2.5022,2.4783,2.493,2.4748,2.4758,0.0,0.0,0.0,1.3236,0.0,0.0,0.0,1.2914,1.3115,1.3297,1.3507,1.3686,1.3727,1.3659,1.3525,1.3313,1.3137,1.279,1.2149,1.1929,1.1806,1.1682,1.178,1.1871,1.2,1.2233,1.2519,1.2742,1.2943,1.3109,1.3241,1.3241,1.3346,1.357,1.3977,1.4295,1.4526,1.5363,1.5881,1.6132,1.6565,1.6972,1.7355,1.7488,1.7667,1.7932,1.8265,1.8458,1.8458,1.8743,1.8697,1.8411,1.7893,1.7761,1.7908,1.8055,1.808,1.8018,1.8155,1.7975,1.7679,1.7679,1.7453,1.7145,1.7145,1.7106,1.7085,1.7212,1.7339,1.7472,1.7776,1.7859,1.7948,1.8253,1.8479,1.8755,1.9204,1.9521,1.9837,2.0119,2.0354,2.04,2.0027,2.0164,2.0428,2.0798,2.115,2.1454,2.1874,2.2318,2.2706,2.2925,2.3232,2.3537,2.3807,2.3937,2.411,2.4325,2.4497,2.4572,2.47,2.4903,2.5158,2.538,2.5644,2.5979,2.6396,2.6016,2.5842,2.5894,2.5853,2.5891,0.0,0.0,0.0,0.0,0.0,1.3324,0.0,0.0,0.0,1.3831,1.4111,1.4295,1.4238,1.4208,1.4082,1.3688,1.3646,1.3561,1.3392,1.3003,1.2619,1.2252,1.2209,1.2209,1.2252,1.246,1.2753,1.3137,1.3355,1.3483,1.3525,1.3561,1.3707,1.3976,1.4342,1.47,1.4997,1.5729,1.628,1.6728,1.7043,1.7475,1.8001,1.8226,1.8458,1.8727,1.9104,1.9288,1.9288,1.9487,1.9546,1.9397,1.8673,1.8326,1.831,1.851,1.8336,1.8021,1.8244,1.8093,1.7805,1.7805,1.7573,1.7301,1.7301,1.7259,1.718,1.718,1.7261,1.7466,1.7722,1.7837,1.7962,1.8267,1.8632,1.9021,1.9428,1.9922,2.0432,2.0781,2.1203,2.1302,2.0618,2.0789,2.1105,2.1482,2.1785,2.2043,2.2274,2.2838,2.3266,2.3319,2.3667,2.398,2.4249,2.4249,2.4325,2.4583,2.4786,2.4903,2.4946,2.52,2.5591,2.6063,2.6104,2.6396,2.7015,2.7044,2.6962,2.6798,2.6962,2.7085,0.0,0.0,0.0,0.0,1.4021,0.0,1.3895,0.0,1.3997,1.4191,0.0,1.4377,1.4594,0.0,0.0,1.4566,1.4566,1.4482,1.4272,1.423,1.3851,1.3052,1.2973,1.3058,1.3222,1.3264,1.3307,1.3349,1.3568,1.3779,1.4004,1.4195,1.437,1.4572,1.4663,1.4944,1.5425,1.5763,1.6455,1.7492,1.7666,1.8207,1.905,1.905,1.9196,1.9487,1.9533,1.9533,1.9541,1.9587,1.9389,1.9072,1.9319,1.9191,1.8905,1.895,1.8712,1.8341,1.8392,1.8163,1.7876,1.7876,1.7672,1.7376,1.7376,1.7392,1.7351,1.7351,1.7392,1.74,1.7449,1.7572,1.7819,1.8146,1.8431,1.8896,1.9756,2.0149,2.0554,2.1186,2.1696,2.1874,2.1347,2.166,2.1963,2.2008,2.253,2.2969,2.296,2.3406,2.3797,2.4067,2.411,2.4249,2.4454,2.4454,2.4583,2.4828,2.4861,2.4988,2.5158,2.5591,2.6146,2.6768,2.6768,2.7003,2.7441,2.762,2.758,2.7389,2.762,2.7834,0.0,0.0,0.0,0.0,0.0,0.0,1.4645,1.4787,1.4965,1.5042,0.0,0.0,0.0,0.0,0.0,0.0,1.511,1.5068,1.4977,1.4859,1.4447,1.3561,1.3434,1.3476,1.3561,1.3815,1.3977,1.3977,1.4153,1.4405,1.4671,1.4748,1.4908,1.511,1.5235,1.5474,1.5831,1.6264,1.6842,1.7605,1.7862,1.8451,1.9331,1.9457,1.9763,2.0255,2.0382,2.0428,2.0402,2.0142,1.9961,1.9806,1.9755,1.9284,1.8652,1.8835,1.8646,1.8312,1.8439,1.8288,1.7952,1.7952,1.7843,1.7757,1.7757,1.7878,1.8,1.8,1.804,1.817,1.817,1.8201,1.8357,1.8594,1.8927,1.9339,1.997,2.0573,2.1094,2.153,2.2193,2.2618,2.2397,2.2441,2.2539,2.2662,2.3057,2.3363,2.3493,2.3797,2.4067,2.4206,2.4282,2.4454,2.47,2.4743,2.4828,2.5073,2.5338,2.5549,2.5759,2.6229,2.6685,2.7074,2.7307,2.7632,2.8099,2.8275,2.8395,2.8447,2.8395,2.8435,1.6434,0.0,1.5865,1.5865,1.5605,1.5366,1.5381,1.5566,1.5686,1.5746,1.5919,0.0,0.0,0.0,1.5741,1.5609,0.0,1.5567,1.5567,1.5458,1.5041,1.4201,1.4026,1.3984,1.3984,1.4363,1.4573,1.4573,1.4817,1.5075,1.5249,1.5333,1.5458,1.5684,1.5816,1.6031,1.6368,1.6776,1.7277,1.7886,1.8107,1.8687,1.9537,1.9799,2.0174,2.0632,2.0908,2.0935,2.082,2.058,2.034,2.0161,1.9936,1.9361,1.8676,1.8837,1.8684,1.8434,1.864,1.8539,1.8353,1.8353,1.8353,1.8353,1.8353,1.8474,1.8634,1.8634,1.8763,1.8851,1.8851,1.8891,1.8971,1.9121,1.942,1.9819,2.0295,2.0874,2.1499,2.1992,2.2625,2.3172,2.3256,2.3188,2.3101,2.3276,2.3503,2.3721,2.3894,2.411,2.4325,2.4368,2.454,2.47,2.4946,2.4988,2.5115,2.5369,2.5884,2.6271,2.6479,2.6839,2.7208,2.7551,2.7822,2.8195,2.8657,2.8882,2.904,2.9157,2.904,2.8988,1.687,1.6597,1.6277,1.6277,1.6133,1.6008,1.615,1.6007,1.5924,1.6052,1.6079,1.6087,1.6087,1.6087,1.6087,0.0,1.6087,0.0,0.0,1.6087,1.5839,1.5131,1.4824,1.465,1.465,1.4915,1.509,1.509,1.545,1.565,1.5692,1.5914,1.6162,1.6353,1.6353,1.6599,1.7057,1.7066,1.7573,1.8588,1.8596,1.9021,1.9803,2.0218,2.0386,2.0421,2.0837,2.0784,2.0438,2.0639,2.0267,1.9656,1.983,1.9655,1.9265,1.9208,1.911,1.898,1.898,1.9121,1.9262,1.9262,1.9262,1.9262,1.9262,1.9262,1.9262,1.9262,1.9262,1.9262,1.9262,1.9429,1.9557,1.9566,1.9724,2.0074,2.0713,2.106,2.1525,2.2545,2.2986,2.3305,2.3727,2.3754,2.3754,2.3797,2.4024,2.4163,2.4206,2.4368,2.4583,2.4861,2.4861,2.4988,2.5158,2.52,2.5369,2.5853,2.6479,2.6962,2.7144,2.7348,2.7805,2.8431,2.8471,2.8669,2.9091,2.9263,2.938,2.938,2.938,2.9521,1.7603,1.7422,1.7242,1.7242,1.7092,1.6933,1.6976,1.6928,1.6928,1.696,1.6943,1.6943,1.6943,1.6943,0.0,0.0,0.0,1.6943,0.0,1.6861,1.6607,1.6203,1.5692,1.536,1.536,1.5616,1.5756,1.5756,1.5989,1.6229,1.636,1.6607,1.6853,1.7066,1.7066,1.7261,1.7668,1.7708,1.8019,1.8684,1.8684,1.9,1.9671,1.994,2.0452,2.1108,2.1118,2.1231,2.1306,2.0843,2.0566,2.0448,2.0224,2.0144,2.0108,1.9626,1.9439,1.9439,1.9754,1.9981,2.0167,2.0167,2.0167,2.0167,2.0167,2.0167,2.0167,2.0167,2.0167,2.0167,2.0167,2.0216,2.0294,2.045,2.0518,2.0644,2.1036,2.1372,2.169,2.2079,2.2826,2.3448,2.36,2.411,2.4433,2.411,2.4239,2.4454,2.4658,2.4743,2.4861,2.5073,2.5115,2.52,2.5422,2.5717,2.6063,2.652,2.6921,2.7267,2.7568,2.7966,2.8339,2.8685,2.8961,2.9145,2.9314,2.9677,2.987,2.987,3.0011,3.0024,1.8201,1.8152,1.8072,1.8072,1.791,1.7757,1.7757,1.7676,1.7595,1.7595,1.7595,1.7595,1.7505,1.7505,1.7465,0.0,0.0,1.7432,0.0,1.7383,1.7302,1.718,1.6525,1.6072,1.6072,1.6286,1.6451,1.6451,1.6648,1.6812,1.6943,1.7098,1.7343,1.7595,1.7595,1.7797,1.8241,1.8241,1.8482,1.8922,1.8922,1.9168,1.9696,2.0014,2.0572,2.1268,2.13,2.1402,2.1553,2.108,2.0923,2.0868,2.0684,2.0693,2.0722,2.0186,1.999,2.0108,2.0498,2.0693,2.0799,2.0799,2.0799,2.0799,2.0799,2.0799,2.0799,2.0799,2.0799,2.0799,2.0799,2.0799,2.0848,2.0992,2.0992,2.1069,2.1282,2.1572,2.1864,2.2095,2.294,2.367,2.3836,2.4483,2.4861,2.4497,2.4615,2.4828,2.4988,2.4988,2.5073,2.5338,2.5422,2.5633,2.6021,2.6354,2.6715,2.7085,2.7441,2.7794,2.8035,2.8498,2.8816,2.8988,2.9353,2.9586,2.9664,3.0024,3.0228,3.0228,3.0406,3.0495]}]]